[[{"header":{"parameterUnit":"m.s-1","parameterCategory":1,"la1":31.0,"la2":29.5877,"lo1":-88.7671,"lo2":-86.6584,"dy":0.0162,"dx":0.0185,"nx":115,"ny":88,"refTime":"2025-02-25T06:00:00:Z","depth":0,"parameterNumber":2,"parameterNumberName":"U-component_of_WINDS"},"data":[0.0,0.0,0.0,0.0,0.0,0.0,0.0,0.0,0.0,0.0,0.0,0.0,0.0,0.0,0.0,0.0,0.0,0.0,0.0,0.0,0.0,0.0,0.0,0.0,0.0,0.0,0.0,0.0,0.0,0.0,0.0,0.0,0.0,0.0,0.0,0.0,0.0,0.0,0.0,0.0,0.0,0.0,0.0,0.0,0.0,0.0,0.0,0.0,0.0,0.0,0.0,0.0,0.0,0.0,0.0,0.0,0.0,0.0,0.0,0.0,0.0,0.0,0.0,0.0,0.0,0.0,0.0,0.0,0.0,0.0,0.0,0.0,0.0,0.0,0.0,0.0,0.0,0.0,0.0,0.0,0.0,0.0,0.0,0.0,0.0,0.0,0.0,0.0,0.0,0.0,0.0,0.0,0.0,0.0,0.0,0.0,0.0,0.0,0.0,0.0,0.0,0.0,0.0,0.0,0.0,0.0,0.0,0.0,0.0,0.0,0.0,0.0,0.0,0.0,0.0,0.0,0.0,0.0,0.0,0.0,0.0,0.0,0.0,0.0,0.0,0.0,0.0,0.0,0.0,0.0,0.0,0.0,0.0,0.0,0.0,0.0,0.0,0.0,0.0,0.0,0.0,0.0,0.0,0.0,0.0,0.0,0.0,0.0,0.0,0.0,0.0,0.0,0.0,0.0,0.0,0.0,0.0,0.0,0.0,0.0,0.0,0.0,0.0,0.0,0.0,0.0,0.0,0.0,0.0,0.0,0.0,0.0,0.0,0.0,0.0,0.0,0.0,0.0,0.0,0.0,0.0,0.0,0.0,0.0,0.0,0.0,0.0,0.0,0.0,0.0,0.0,0.0,0.0,0.0,0.0,0.0,0.0,0.0,0.0,0.0,0.0,0.0,0.0,0.0,0.0,0.0,0.0,0.0,0.0,0.0,0.0,0.0,0.0,0.0,0.0,0.0,0.0,0.0,0.0,0.0,0.0,0.0,0.0,0.0,0.0,0.0,0.0,0.0,0.0,0.0,0.0,0.0,0.0,0.0,0.0,0.0,0.0,0.0,0.0,0.0,0.0,0.0,0.0,0.0,0.0,0.0,0.0,0.0,0.0,0.0,0.0,0.0,0.0,0.0,0.0,0.0,0.0,0.0,0.0,0.0,0.0,0.0,0.0,0.0,0.0,0.0,0.0,0.0,0.0,0.0,0.0,0.0,0.0,0.0,0.0,0.0,0.0,0.0,0.0,0.0,0.0,0.0,0.0,0.0,0.0,0.0,0.0,0.0,0.0,0.0,0.0,0.0,0.0,0.0,0.0,0.0,0.0,0.0,0.0,0.0,0.0,0.0,0.0,0.0,0.0,0.0,0.0,0.0,0.0,0.0,0.0,0.0,0.0,0.0,0.0,0.0,0.0,0.0,0.0,0.0,0.0,0.0,0.0,0.0,0.0,0.0,0.0,0.0,0.0,0.0,0.0,0.0,0.0,0.0,0.0,0.0,0.0,0.0,0.0,0.0,0.0,0.0,0.0,0.0,0.0,0.0,0.0,0.0,0.0,0.0,0.0,0.0,0.0,0.0,0.0,0.0,0.0,0.0,0.0,0.0,0.0,0.0,0.0,0.0,0.0,0.0,0.0,0.0,0.0,0.0,0.0,0.0,0.0,0.0,0.0,0.0,0.0,0.0,0.0,0.0,0.0,0.0,0.0,0.0,0.0,0.0,0.0,0.0,0.0,0.0,0.0,0.0,0.0,0.0,0.0,0.0,0.0,0.0,0.0,0.0,0.0,0.0,0.0,0.0,0.0,0.0,0.0,0.0,0.0,0.0,0.0,0.0,0.0,0.0,0.0,0.0,0.0,0.0,0.0,0.0,0.0,0.0,0.0,0.0,0.0,0.0,0.0,0.0,0.0,0.0,0.0,0.0,0.0,0.0,0.0,0.0,0.0,0.0,0.0,0.0,0.0,0.0,0.0,0.0,0.0,0.0,0.0,0.0,0.0,0.0,0.0,0.0,0.0,0.0,0.0,0.0,0.0,0.0,0.0,0.0,0.0,0.0,0.0,0.0,0.0,0.0,0.0,0.0,0.0,0.0,0.0,0.0,0.0,0.0,0.0,0.0,0.0,0.0,0.0,0.0,0.0,0.0,0.0,0.0,0.0,0.0,0.0,0.0,0.0,0.0,0.0,0.0,0.0,0.0,0.0,0.0,0.0,0.0,0.0,0.0,0.0,0.0,0.0,0.0,0.0,0.0,0.0,0.0,0.0,0.0,0.0,0.0,0.0,0.0,0.0,0.0,0.0,0.0,0.0,0.0,0.0,0.0,0.0,0.0,0.0,0.0,0.0,0.0,0.0,0.0,0.0,0.0,0.0,0.0,0.0,0.0,0.0,0.0,0.0,0.0,0.0,0.0,0.0,0.0,0.0,0.0,0.0,0.0,0.0,0.0,0.0,0.0,0.0,0.0,0.0,0.0,0.0,0.0,0.0,0.0,0.0,0.0,0.0,0.0,0.0,0.0,0.0,0.0,0.0,0.0,0.0,0.0,0.0,0.0,0.0,0.0,0.0,0.0,0.0,0.0,0.0,0.0,0.0,0.0,0.0,0.0,0.0,0.0,0.0,0.0,0.0,0.0,0.0,0.0,0.0,0.0,0.0,0.0,0.0,0.0,0.0,0.0,0.0,0.0,0.0,0.0,0.0,0.0,0.0,0.0,0.0,0.0,0.0,0.0,0.0,0.0,0.0,0.0,0.0,0.0,0.0,0.0,0.0,0.0,0.0,0.0,0.0,0.0,0.0,0.0,0.0,0.0,0.0,0.0,0.0,0.0,0.0,0.0,0.0,0.0,0.0,0.0,0.0,0.0,0.0,0.0,0.0,0.0,0.0,0.0,0.0,0.0,0.0,0.0,0.0,0.0,0.0,0.0,0.0,0.0,0.0,0.0,0.0,0.0,0.0,0.0,0.0,0.0,0.0,0.0,0.0,0.0,0.0,0.0,0.0,0.0,0.0,0.0,0.0,0.0,0.0,0.0,0.0,0.0,0.0,0.0,0.0,0.0,0.0,0.0,0.0,0.0,0.0,0.0,0.0,0.0,0.0,0.0,0.0,0.0,0.0,0.0,0.0,0.0,0.0,0.0,0.0,0.0,0.0,0.0,0.0,0.0,0.0,0.0,0.0,0.0,0.0,0.0,0.0,0.0,0.0,0.0,0.0,0.0,0.0,0.0,0.0,0.0,0.0,0.0,0.0,0.0,0.0,0.0,0.0,0.0,0.0,0.0,0.0,0.0,0.0,0.0,0.0,0.0,0.0,0.0,0.0,0.0,0.0,0.0,0.0,0.0,0.0,0.0,0.0,0.0,0.0,0.0,0.0,0.0,0.0,0.0,0.0,0.0,0.0,0.0,0.0,0.0,0.0,0.0,0.0,0.0,0.0,0.0,0.0,0.0,0.0,0.0,0.0,0.0,0.0,0.0,0.0,0.0,0.0,0.0,0.0,0.0,0.0,0.0,0.0,0.0,0.0,0.0,0.0,0.0,0.0,0.0,0.0,0.0,0.0,0.0,0.0,0.0,0.0,0.0,0.0,0.0,0.0,0.0,0.0,0.0,0.0,0.0,0.0,0.0,0.0,0.0,0.0,0.0,0.0,0.0,0.0,0.0,0.0,0.0,0.0,0.0,0.0,0.0,0.0,0.0,0.0,0.0,0.0,0.0,0.0,0.0,0.0,0.0,0.0,0.0,0.0,0.0,0.0,0.0,0.0,0.0,0.0,0.0,0.0,0.0,0.0,0.0,0.0,0.0,0.0,0.0,0.0,0.0,0.0,0.0,0.0,0.0,0.0,0.0,0.0,0.0,0.0,0.0,0.0,0.0,0.0,0.0,0.0,0.0,0.0,0.0,0.0,0.0,0.0,0.0,0.0,0.0,0.0,0.0,0.0,0.0,0.0,0.0,0.0,0.0,0.0,0.0,0.0,0.0,0.0,0.0,0.0,0.0,0.0,0.0,0.0,0.0,0.0,0.0,0.0,0.0,0.0,0.0,0.0,0.0,0.0,0.0,0.0,0.0,0.0,0.0,0.0,0.0,0.0,0.0,0.0,0.0,0.0,0.0,0.0,0.0,0.0,0.0,0.0,0.0,0.0,0.0,0.0,0.0,0.0,0.0,0.0,0.0,0.0,0.0,0.0,0.0,0.0,0.0,0.0,0.0,0.0,0.0,0.0,0.0,0.0,0.0,0.0,0.0,0.0,0.0,0.0,0.0,0.0,0.0,0.0,0.0,0.0,0.0,-1.4171,0.0,0.0,0.0,0.0,0.0,0.0,0.0,0.0,0.0,0.0,0.0,0.0,0.0,0.0,0.0,0.0,0.0,0.0,0.0,0.0,0.0,0.0,0.0,0.0,0.0,0.0,0.0,0.0,0.0,0.0,0.0,0.0,0.0,0.0,0.0,0.0,0.0,0.0,0.0,0.0,0.0,0.0,0.0,0.0,0.0,0.0,0.0,0.0,0.0,0.0,0.0,0.0,0.0,0.0,0.0,0.0,0.0,0.0,0.0,0.0,0.0,0.0,0.0,0.0,0.0,0.0,0.0,0.0,0.0,0.0,0.0,0.0,0.0,0.0,0.0,0.0,0.0,0.0,0.0,0.0,0.0,0.0,0.0,0.0,0.0,0.0,0.0,0.0,0.0,0.0,0.0,0.0,0.0,0.0,0.0,0.0,0.0,0.0,0.0,0.0,0.0,0.0,0.0,0.0,0.0,0.0,0.0,0.0,0.0,0.0,-1.5409,-1.5407,-1.5406,-1.4993,-1.4171,0.0,0.0,0.0,0.0,0.0,0.0,0.0,0.0,0.0,0.0,0.0,0.0,0.0,0.0,0.0,0.0,0.0,0.0,0.0,0.0,0.0,0.0,0.0,0.0,0.0,0.0,0.0,0.0,0.0,0.0,0.0,0.0,0.0,0.0,0.0,0.0,0.0,0.0,0.0,0.0,0.0,0.0,0.0,0.0,0.0,0.0,0.0,0.0,0.0,0.0,0.0,0.0,0.0,0.0,0.0,0.0,0.0,0.0,0.0,0.0,0.0,0.0,0.0,0.0,0.0,0.0,0.0,0.0,0.0,0.0,0.0,0.0,0.0,0.0,0.0,0.0,0.0,0.0,0.0,0.0,0.0,0.0,0.0,0.0,0.0,0.0,0.0,0.0,0.0,0.0,0.0,0.0,0.0,0.0,0.0,0.0,0.0,0.0,0.0,0.0,0.0,0.0,0.0,0.0,0.0,0.0,0.0,0.0,0.0,0.0,0.0,0.0,-1.5698,-1.5383,-1.4757,0.0,0.0,0.0,0.0,0.0,0.0,0.0,0.0,0.0,0.0,0.0,0.0,0.0,0.0,0.0,0.0,0.0,0.0,0.0,0.0,0.0,0.0,0.0,0.0,0.0,0.0,0.0,0.0,0.0,0.0,0.0,0.0,0.0,0.0,0.0,0.0,0.0,0.0,0.0,0.0,0.0,0.0,0.0,0.0,0.0,0.0,0.0,0.0,0.0,0.0,0.0,0.0,0.0,0.0,0.0,0.0,0.0,0.0,0.0,0.0,0.0,0.0,0.0,0.0,0.0,0.0,0.0,0.0,0.0,0.0,0.0,0.0,0.0,0.0,0.0,0.0,0.0,0.0,0.0,0.0,0.0,0.0,0.0,0.0,0.0,0.0,0.0,0.0,0.0,0.0,0.0,0.0,0.0,0.0,0.0,0.0,0.0,0.0,0.0,0.0,0.0,0.0,0.0,0.0,0.0,0.0,0.0,0.0,0.0,0.0,-1.578,-1.654,-1.6578,0.0,-1.6533,0.0,0.0,0.0,0.0,0.0,0.0,0.0,0.0,0.0,0.0,0.0,0.0,0.0,0.0,0.0,0.0,0.0,0.0,0.0,0.0,0.0,0.0,0.0,0.0,0.0,0.0,0.0,0.0,0.0,0.0,0.0,0.0,0.0,0.0,0.0,0.0,0.0,0.0,0.0,0.0,0.0,0.0,0.0,0.0,0.0,0.0,0.0,0.0,0.0,0.0,0.0,0.0,0.0,0.0,0.0,0.0,0.0,0.0,0.0,0.0,0.0,0.0,0.0,0.0,0.0,0.0,0.0,0.0,0.0,0.0,0.0,0.0,0.0,0.0,0.0,0.0,0.0,0.0,0.0,0.0,0.0,0.0,0.0,0.0,0.0,0.0,0.0,0.0,0.0,0.0,0.0,0.0,0.0,0.0,0.0,0.0,0.0,0.0,0.0,0.0,0.0,0.0,0.0,0.0,0.0,0.0,0.0,0.0,0.0,0.0,-1.6346,-1.6696,-1.6693,-1.6457,0.0,0.0,0.0,0.0,0.0,0.0,0.0,0.0,0.0,0.0,0.0,0.0,0.0,0.0,0.0,0.0,0.0,0.0,0.0,0.0,0.0,0.0,0.0,0.0,0.0,0.0,0.0,0.0,0.0,0.0,0.0,0.0,0.0,0.0,0.0,0.0,0.0,0.0,0.0,0.0,0.0,0.0,0.0,0.0,0.0,0.0,0.0,0.0,0.0,0.0,0.0,0.0,0.0,0.0,0.0,0.0,0.0,0.0,0.0,0.0,0.0,0.0,0.0,0.0,0.0,0.0,0.0,0.0,0.0,0.0,0.0,0.0,0.0,0.0,0.0,0.0,0.0,0.0,0.0,0.0,0.0,0.0,0.0,0.0,0.0,0.0,0.0,0.0,0.0,0.0,0.0,0.0,0.0,0.0,0.0,0.0,0.0,0.0,0.0,0.0,0.0,0.0,0.0,0.0,0.0,0.0,0.0,0.0,0.0,0.0,-1.6503,-1.6813,-1.7047,-1.7062,-1.6552,-1.5461,0.0,0.0,0.0,0.0,0.0,0.0,0.0,0.0,0.0,0.0,0.0,0.0,0.0,0.0,0.0,0.0,0.0,0.0,0.0,0.0,0.0,0.0,0.0,0.0,0.0,0.0,0.0,0.0,0.0,0.0,0.0,0.0,0.0,0.0,0.0,0.0,0.0,0.0,0.0,0.0,0.0,0.0,0.0,0.0,0.0,0.0,0.0,0.0,0.0,0.0,0.0,0.0,0.0,0.0,0.0,0.0,0.0,0.0,0.0,0.0,0.0,0.0,0.0,0.0,0.0,0.0,0.0,0.0,0.0,0.0,0.0,0.0,0.0,0.0,0.0,0.0,0.0,0.0,0.0,0.0,0.0,0.0,0.0,0.0,0.0,0.0,0.0,0.0,0.0,0.0,0.0,0.0,0.0,0.0,0.0,0.0,0.0,0.0,0.0,0.0,0.0,0.0,0.0,0.0,0.0,0.0,0.0,0.0,0.0,-1.7108,-1.7085,-1.7921,-1.794,-1.7139,0.0,0.0,0.0,0.0,0.0,0.0,0.0,0.0,0.0,0.0,0.0,0.0,0.0,0.0,0.0,0.0,0.0,0.0,0.0,0.0,0.0,0.0,0.0,0.0,0.0,0.0,0.0,0.0,0.0,0.0,0.0,0.0,0.0,0.0,0.0,0.0,0.0,0.0,0.0,0.0,0.0,0.0,0.0,0.0,0.0,0.0,0.0,0.0,0.0,0.0,0.0,0.0,0.0,0.0,0.0,0.0,0.0,0.0,0.0,0.0,0.0,0.0,0.0,0.0,0.0,0.0,0.0,0.0,0.0,0.0,0.0,0.0,0.0,0.0,0.0,0.0,0.0,0.0,0.0,0.0,0.0,0.0,0.0,0.0,0.0,0.0,0.0,0.0,0.0,0.0,0.0,0.0,0.0,0.0,0.0,0.0,0.0,0.0,0.0,0.0,0.0,0.0,0.0,0.0,0.0,0.0,0.0,0.0,0.0,-1.6289,-1.6561,-1.7398,-1.8703,-1.7237,-1.6027,0.0,0.0,0.0,0.0,0.0,0.0,0.0,0.0,0.0,0.0,0.0,0.0,0.0,0.0,0.0,0.0,0.0,0.0,0.0,0.0,0.0,0.0,0.0,0.0,0.0,0.0,0.0,0.0,0.0,0.0,0.0,0.0,0.0,0.0,0.0,0.0,0.0,0.0,0.0,0.0,0.0,0.0,0.0,0.0,0.0,0.0,0.0,0.0,0.0,0.0,0.0,0.0,0.0,0.0,0.0,0.0,0.0,0.0,0.0,0.0,0.0,0.0,0.0,0.0,0.0,0.0,0.0,0.0,0.0,0.0,0.0,0.0,0.0,0.0,0.0,0.0,0.0,0.0,0.0,0.0,0.0,0.0,0.0,0.0,0.0,0.0,0.0,0.0,0.0,0.0,0.0,0.0,0.0,0.0,0.0,0.0,0.0,0.0,0.0,0.0,0.0,0.0,0.0,0.0,0.0,0.0,0.0,0.0,0.0,-1.582,0.0,-1.7867,-1.8352,-1.6749,-1.5304,0.0,0.0,0.0,0.0,0.0,0.0,0.0,0.0,0.0,0.0,0.0,0.0,0.0,0.0,0.0,0.0,0.0,0.0,0.0,0.0,0.0,0.0,0.0,0.0,0.0,0.0,0.0,0.0,0.0,0.0,0.0,0.0,0.0,0.0,0.0,0.0,0.0,0.0,0.0,0.0,0.0,0.0,0.0,0.0,0.0,0.0,0.0,0.0,0.0,0.0,0.0,0.0,0.0,0.0,0.0,0.0,0.0,0.0,0.0,0.0,0.0,0.0,0.0,0.0,0.0,0.0,0.0,0.0,0.0,0.0,0.0,0.0,0.0,0.0,0.0,0.0,0.0,0.0,0.0,0.0,0.0,0.0,0.0,0.0,0.0,0.0,0.0,0.0,0.0,0.0,0.0,0.0,0.0,0.0,0.0,0.0,0.0,0.0,0.0,0.0,0.0,0.0,0.0,0.0,0.0,0.0,0.0,0.0,-1.4159,-1.6597,-1.8298,-1.8375,-1.6806,-1.663,-1.5049,0.0,0.0,0.0,0.0,0.0,0.0,0.0,0.0,0.0,0.0,0.0,0.0,0.0,0.0,0.0,0.0,0.0,0.0,0.0,0.0,0.0,0.0,0.0,0.0,0.0,0.0,0.0,0.0,0.0,0.0,0.0,0.0,0.0,0.0,0.0,0.0,0.0,0.0,0.0,0.0,0.0,0.0,0.0,0.0,0.0,0.0,0.0,0.0,0.0,0.0,0.0,0.0,0.0,0.0,0.0,0.0,0.0,0.0,0.0,0.0,0.0,0.0,0.0,0.0,0.0,0.0,0.0,0.0,0.0,0.0,0.0,0.0,0.0,0.0,0.0,0.0,0.0,0.0,0.0,0.0,0.0,0.0,0.0,0.0,0.0,0.0,0.0,0.0,0.0,0.0,0.0,0.0,0.0,0.0,0.0,0.0,0.0,0.0,0.0,0.0,0.0,0.0,0.0,0.0,0.0,0.0,0.0,0.0,0.0,-1.578,-1.6911,-1.7534,-1.7531,-1.5305,-1.4133,0.0,0.0,0.0,0.0,0.0,0.0,0.0,0.0,0.0,0.0,0.0,0.0,0.0,0.0,0.0,0.0,0.0,0.0,0.0,0.0,0.0,0.0,0.0,0.0,0.0,0.0,0.0,0.0,0.0,0.0,0.0,0.0,0.0,0.0,0.0,0.0,0.0,0.0,0.0,0.0,0.0,0.0,0.0,0.0,0.0,0.0,0.0,0.0,0.0,0.0,0.0,0.0,0.0,0.0,0.0,0.0,0.0,0.0,0.0,0.0,0.0,0.0,0.0,0.0,0.0,0.0,0.0,0.0,0.0,0.0,0.0,0.0,0.0,0.0,0.0,0.0,0.0,0.0,0.0,0.0,0.0,0.0,0.0,0.0,0.0,0.0,0.0,0.0,0.0,0.0,0.0,0.0,0.0,0.0,0.0,0.0,0.0,0.0,0.0,0.0,0.0,0.0,0.0,0.0,0.0,0.0,0.0,0.0,0.0,-1.6873,-1.8023,-1.8431,-1.8019,-1.593,-1.4523,-1.3957,0.0,0.0,0.0,0.0,0.0,0.0,0.0,0.0,0.0,0.0,0.0,0.0,0.0,0.0,0.0,0.0,0.0,0.0,0.0,0.0,0.0,0.0,0.0,0.0,0.0,0.0,0.0,0.0,0.0,0.0,0.0,0.0,0.0,0.0,0.0,0.0,0.0,0.0,0.0,0.0,0.0,0.0,0.0,0.0,0.0,0.0,0.0,0.0,0.0,0.0,0.0,0.0,0.0,0.0,0.0,0.0,0.0,0.0,0.0,0.0,0.0,0.0,0.0,0.0,0.0,0.0,0.0,0.0,0.0,0.0,0.0,0.0,0.0,0.0,0.0,0.0,0.0,0.0,0.0,0.0,0.0,0.0,0.0,0.0,0.0,0.0,0.0,0.0,0.0,0.0,0.0,0.0,0.0,0.0,0.0,0.0,0.0,0.0,0.0,0.0,0.0,0.0,0.0,0.0,0.0,0.0,0.0,0.0,-1.9329,-2.1105,-2.0792,-1.8271,-1.7978,-1.6006,0.0,0.0,0.0,0.0,0.0,0.0,0.0,0.0,0.0,0.0,0.0,0.0,0.0,0.0,0.0,0.0,0.0,0.0,0.0,0.0,0.0,0.0,0.0,0.0,0.0,0.0,0.0,0.0,0.0,0.0,0.0,0.0,0.0,0.0,0.0,0.0,0.0,0.0,0.0,0.0,0.0,0.0,0.0,0.0,0.0,0.0,0.0,0.0,0.0,0.0,0.0,0.0,0.0,0.0,0.0,0.0,0.0,0.0,0.0,0.0,0.0,0.0,0.0,0.0,0.0,0.0,0.0,0.0,0.0,0.0,0.0,0.0,0.0,0.0,0.0,0.0,0.0,0.0,0.0,0.0,0.0,0.0,0.0,0.0,0.0,0.0,0.0,0.0,0.0,0.0,0.0,0.0,0.0,0.0,0.0,0.0,0.0,0.0,0.0,0.0,0.0,0.0,0.0,0.0,0.0,0.0,0.0,0.0,0.0,-2.0244,-2.2546,-2.2506,-1.9989,-1.8055,-1.6202,0.0,0.0,0.0,0.0,0.0,0.0,0.0,0.0,0.0,0.0,0.0,0.0,0.0,0.0,0.0,0.0,0.0,0.0,0.0,0.0,0.0,0.0,0.0,0.0,0.0,0.0,0.0,0.0,0.0,0.0,0.0,0.0,0.0,0.0,0.0,0.0,0.0,0.0,0.0,0.0,0.0,0.0,0.0,0.0,0.0,0.0,0.0,0.0,0.0,0.0,0.0,0.0,0.0,0.0,0.0,0.0,0.0,0.0,0.0,0.0,0.0,0.0,0.0,0.0,0.0,0.0,0.0,0.0,0.0,0.0,0.0,0.0,0.0,0.0,0.0,0.0,0.0,0.0,0.0,0.0,0.0,0.0,0.0,0.0,0.0,0.0,0.0,0.0,0.0,0.0,0.0,0.0,0.0,0.0,0.0,0.0,0.0,0.0,0.0,0.0,0.0,0.0,0.0,0.0,0.0,0.0,0.0,0.0,-1.956,-2.1628,-2.3793,-2.3891,-2.1687,-1.9851,-1.7606,0.0,0.0,0.0,0.0,0.0,0.0,0.0,0.0,0.0,0.0,0.0,0.0,0.0,0.0,0.0,0.0,0.0,0.0,0.0,0.0,0.0,0.0,0.0,0.0,0.0,0.0,0.0,0.0,0.0,0.0,0.0,0.0,0.0,0.0,0.0,0.0,0.0,0.0,0.0,0.0,0.0,0.0,0.0,0.0,0.0,0.0,0.0,0.0,0.0,0.0,0.0,0.0,0.0,0.0,0.0,0.0,0.0,0.0,0.0,0.0,0.0,0.0,0.0,0.0,0.0,0.0,0.0,0.0,0.0,0.0,0.0,0.0,0.0,0.0,0.0,0.0,0.0,0.0,0.0,0.0,0.0,0.0,0.0,0.0,0.0,0.0,0.0,0.0,0.0,0.0,0.0,0.0,0.0,0.0,0.0,0.0,0.0,0.0,0.0,0.0,0.0,0.0,0.0,0.0,0.0,0.0,0.0,0.0,-2.0592,-2.2916,-2.4653,-2.477,-2.317,-2.2232,-1.9399,0.0,0.0,0.0,0.0,0.0,0.0,0.0,0.0,0.0,0.0,0.0,0.0,0.0,0.0,0.0,0.0,0.0,0.0,0.0,0.0,0.0,0.0,0.0,0.0,0.0,0.0,0.0,0.0,0.0,0.0,0.0,0.0,0.0,0.0,0.0,0.0,0.0,0.0,0.0,0.0,0.0,0.0,0.0,0.0,0.0,0.0,0.0,0.0,0.0,0.0,0.0,0.0,0.0,0.0,0.0,0.0,0.0,0.0,0.0,0.0,0.0,0.0,0.0,0.0,0.0,0.0,0.0,0.0,0.0,0.0,0.0,0.0,0.0,0.0,0.0,0.0,0.0,0.0,0.0,0.0,0.0,0.0,0.0,0.0,0.0,0.0,0.0,0.0,0.0,0.0,0.0,0.0,0.0,0.0,0.0,0.0,0.0,0.0,0.0,0.0,0.0,0.0,0.0,0.0,0.0,0.0,0.0,0.0,-2.0886,-2.2056,-2.3774,-2.4183,-2.313,-2.1647,-1.9069,0.0,0.0,0.0,0.0,0.0,0.0,0.0,0.0,0.0,0.0,0.0,0.0,0.0,0.0,0.0,0.0,0.0,0.0,0.0,0.0,0.0,0.0,0.0,0.0,0.0,0.0,0.0,0.0,0.0,0.0,0.0,0.0,0.0,0.0,0.0,0.0,0.0,0.0,0.0,0.0,0.0,0.0,0.0,0.0,0.0,0.0,0.0,0.0,-1.1041,0.0,0.0,0.0,0.0,0.0,0.0,0.0,0.0,0.0,0.0,0.0,0.0,0.0,0.0,0.0,0.0,0.0,0.0,0.0,0.0,0.0,0.0,0.0,0.0,0.0,0.0,0.0,0.0,0.0,0.0,0.0,0.0,0.0,0.0,0.0,0.0,0.0,0.0,0.0,0.0,0.0,0.0,0.0,0.0,0.0,0.0,0.0,0.0,0.0,0.0,0.0,0.0,0.0,0.0,0.0,0.0,0.0,0.0,0.0,-2.0592,-2.1822,-2.3129,-2.3404,-2.2525,-2.0866,-1.854,0.0,0.0,0.0,0.0,0.0,0.0,0.0,0.0,0.0,0.0,0.0,0.0,0.0,0.0,0.0,0.0,0.0,0.0,0.0,0.0,0.0,0.0,0.0,0.0,0.0,0.0,0.0,0.0,0.0,0.0,0.0,0.0,0.0,0.0,0.0,0.0,0.0,0.0,0.0,0.0,0.0,0.0,0.0,0.0,0.0,0.0,0.0,0.0,0.0,0.0,0.0,0.0,0.0,0.0,0.0,0.0,0.0,0.0,0.0,0.0,0.0,0.0,0.0,0.0,0.0,0.0,0.0,0.0,0.0,0.0,0.0,0.0,0.0,0.0,0.0,0.0,0.0,0.0,0.0,0.0,0.0,0.0,0.0,0.0,0.0,0.0,0.0,0.0,0.0,0.0,0.0,0.0,0.0,0.0,0.0,0.0,0.0,0.0,0.0,0.0,0.0,0.0,0.0,0.0,0.0,0.0,0.0,-1.7979,-2.0007,-2.1841,-2.2564,-2.2584,-2.19,-2.0065,-1.7935,-1.5506,0.0,0.0,0.0,0.0,0.0,0.0,0.0,0.0,0.0,0.0,0.0,0.0,0.0,0.0,0.0,0.0,0.0,0.0,0.0,0.0,0.0,0.0,0.0,0.0,0.0,0.0,0.0,0.0,0.0,0.0,0.0,0.0,0.0,0.0,0.0,0.0,0.0,0.0,-0.7831,-0.9215,0.0,0.0,0.0,0.0,0.0,0.0,0.0,0.0,-1.0846,0.0,0.0,0.0,0.0,0.0,0.0,0.0,0.0,0.0,0.0,0.0,0.0,0.0,0.0,0.0,0.0,0.0,0.0,0.0,0.0,0.0,0.0,0.0,0.0,0.0,0.0,0.0,0.0,0.0,0.0,0.0,0.0,0.0,0.0,0.0,0.0,0.0,0.0,0.0,0.0,0.0,0.0,0.0,0.0,0.0,0.0,0.0,0.0,0.0,0.0,0.0,0.0,0.0,0.0,0.0,0.0,-1.7495,-1.8003,-1.9406,-2.1822,-2.2036,-2.2036,-2.1841,-1.95,-1.7334,-1.548,0.0,0.0,0.0,0.0,0.0,0.0,0.0,0.0,0.0,0.0,0.0,0.0,0.0,0.0,0.0,0.0,0.0,0.0,0.0,0.0,0.0,0.0,0.0,0.0,0.0,0.0,0.0,0.0,0.0,0.0,0.0,0.0,0.0,0.0,0.0,0.0,0.0,0.0,0.0,-0.9923,-1.0423,0.0,0.0,0.0,0.0,0.0,0.0,0.0,0.0,-1.0577,0.0,0.0,0.0,0.0,0.0,0.0,0.0,0.0,0.0,0.0,0.0,0.0,0.0,0.0,0.0,0.0,0.0,0.0,0.0,0.0,0.0,0.0,0.0,0.0,0.0,0.0,0.0,0.0,0.0,0.0,0.0,0.0,0.0,0.0,0.0,0.0,0.0,0.0,0.0,0.0,0.0,0.0,0.0,0.0,0.0,0.0,0.0,0.0,0.0,0.0,0.0,0.0,0.0,0.0,0.0,-1.654,-1.7533,-1.9054,-2.1139,-2.1217,-2.1021,-2.0533,-1.8446,-1.6497,0.0,0.0,0.0,0.0,0.0,0.0,0.0,0.0,0.0,0.0,0.0,0.0,0.0,0.0,0.0,0.0,0.0,0.0,0.0,0.0,0.0,0.0,0.0,0.0,0.0,0.0,0.0,0.0,0.0,0.0,0.0,0.0,0.0,0.0,0.0,0.0,0.0,0.0,0.0,0.0,-1.115,-1.1601,-1.2024,0.0,0.0,0.0,0.0,0.0,0.0,-1.1186,-1.0372,0.0,0.0,0.0,0.0,0.0,0.0,0.0,0.0,0.0,0.0,0.0,0.0,0.0,0.0,0.0,0.0,0.0,0.0,0.0,0.0,0.0,0.0,0.0,0.0,0.0,0.0,0.0,0.0,0.0,0.0,0.0,0.0,0.0,0.0,0.0,0.0,0.0,0.0,0.0,0.0,0.0,0.0,0.0,0.0,0.0,0.0,0.0,0.0,0.0,0.0,0.0,0.0,0.0,0.0,0.0,-1.537,-1.6947,-1.8662,-2.0496,-2.0594,-2.0183,-1.9304,-1.7608,-1.5894,0.0,0.0,0.0,0.0,0.0,0.0,0.0,0.0,0.0,0.0,0.0,0.0,0.0,0.0,0.0,0.0,0.0,0.0,0.0,0.0,0.0,0.0,0.0,0.0,0.0,0.0,0.0,0.0,0.0,0.0,0.0,0.0,0.0,0.0,0.0,0.0,0.0,0.0,0.0,0.0,0.0,-1.2755,-1.2928,-1.2947,0.0,0.0,0.0,0.0,-1.2406,-1.1822,0.0,0.0,0.0,0.0,0.0,0.0,0.0,0.0,0.0,0.0,0.0,0.0,0.0,0.0,0.0,0.0,0.0,0.0,0.0,0.0,0.0,0.0,0.0,0.0,0.0,0.0,0.0,0.0,0.0,0.0,0.0,0.0,0.0,0.0,0.0,0.0,0.0,0.0,0.0,0.0,0.0,0.0,0.0,0.0,0.0,0.0,0.0,0.0,0.0,0.0,0.0,0.0,0.0,0.0,0.0,0.0,-1.5332,-1.6366,-1.8061,-2.0457,-2.0594,-2.0183,-1.9323,-1.7611,-1.5877,0.0,0.0,0.0,0.0,0.0,0.0,0.0,0.0,0.0,0.0,0.0,0.0,0.0,0.0,0.0,0.0,0.0,0.0,0.0,0.0,0.0,0.0,0.0,0.0,0.0,0.0,0.0,0.0,0.0,0.0,0.0,0.0,0.0,0.0,0.0,0.0,0.0,0.0,0.0,0.0,0.0,-1.2896,-1.3649,-1.3767,-1.3728,0.0,0.0,-1.5019,-1.5792,-1.5763,0.0,0.0,0.0,0.0,0.0,0.0,0.0,0.0,0.0,0.0,0.0,0.0,0.0,0.0,0.0,0.0,0.0,0.0,0.0,0.0,0.0,0.0,0.0,0.0,0.0,0.0,0.0,0.0,0.0,0.0,0.0,0.0,0.0,0.0,0.0,0.0,0.0,0.0,0.0,0.0,0.0,0.0,0.0,0.0,0.0,0.0,0.0,0.0,0.0,0.0,0.0,0.0,0.0,0.0,0.0,-1.33,-1.5371,-1.6755,-1.8469,-2.0496,-2.0124,-1.9444,-1.8569,-1.6403,-1.4648,0.0,0.0,0.0,0.0,0.0,0.0,0.0,0.0,0.0,0.0,0.0,0.0,0.0,0.0,0.0,0.0,0.0,0.0,0.0,0.0,0.0,0.0,0.0,0.0,0.0,0.0,0.0,0.0,0.0,0.0,0.0,0.0,0.0,0.0,0.0,0.0,0.0,0.0,0.0,0.0,0.0,0.0,-1.4539,-1.5005,0.0,0.0,0.0,-1.5101,-1.5028,0.0,0.0,0.0,0.0,0.0,0.0,0.0,0.0,0.0,0.0,0.0,0.0,0.0,0.0,0.0,0.0,0.0,0.0,0.0,0.0,0.0,0.0,0.0,0.0,0.0,0.0,0.0,0.0,0.0,0.0,0.0,0.0,0.0,0.0,0.0,0.0,0.0,0.0,0.0,0.0,0.0,0.0,0.0,0.0,0.0,0.0,0.0,0.0,0.0,0.0,0.0,0.0,0.0,0.0,0.0,0.0,0.0,-1.537,-1.7128,-1.8824,-2.0484,-1.9741,-1.8884,-1.7988,-1.5449,0.0,0.0,0.0,0.0,0.0,0.0,0.0,0.0,0.0,0.0,0.0,0.0,0.0,0.0,0.0,0.0,0.0,0.0,0.0,0.0,0.0,0.0,0.0,0.0,0.0,0.0,0.0,-0.1585,0.0,0.0,0.0,0.0,0.0,0.0,0.0,0.0,0.0,0.0,0.0,0.0,0.0,0.0,-1.5119,-1.5382,-1.6159,-1.6581,0.0,0.0,-1.5615,-1.5229,-1.5858,-1.5644,0.0,0.0,0.0,0.0,0.0,0.0,0.0,0.0,0.0,0.0,0.0,0.0,0.0,0.0,0.0,0.0,0.0,0.0,0.0,0.0,0.0,0.0,0.0,0.0,0.0,0.0,0.0,0.0,0.0,0.0,0.0,0.0,0.0,0.0,0.0,0.0,0.0,0.0,0.0,0.0,0.0,0.0,0.0,0.0,0.0,0.0,0.0,0.0,0.0,0.0,0.0,0.0,0.0,0.0,-1.2923,-1.5344,-1.7126,-1.8807,-2.0408,-1.9705,-1.8866,-1.7986,-1.5485,-1.3705,0.0,0.0,0.0,0.0,0.0,0.0,0.0,0.0,0.0,0.0,0.0,0.0,0.0,0.0,0.0,0.0,0.0,0.0,0.0,0.0,0.0,0.0,0.0,0.0,0.0,0.0,0.0,0.0,0.0,0.0,0.0,0.0,0.0,0.0,0.0,0.0,0.0,0.0,0.0,0.0,0.0,-1.5382,-1.6197,-1.7067,-1.7853,0.0,-1.8003,-1.7757,-1.844,-1.9248,-1.8722,-1.5455,0.0,0.0,0.0,0.0,0.0,0.0,0.0,0.0,0.0,0.0,0.0,0.0,0.0,0.0,0.0,0.0,0.0,0.0,0.0,0.0,0.0,0.0,0.0,0.0,0.0,0.0,0.0,0.0,0.0,0.0,0.0,0.0,0.0,0.0,0.0,0.0,0.0,0.0,0.0,0.0,0.0,0.0,0.0,0.0,0.0,0.0,0.0,0.0,0.0,0.0,0.0,0.0,0.0,-1.2844,-1.5363,-1.7125,-1.8591,-1.9665,-1.8943,-1.8082,-1.722,-1.5187,-1.3678,0.0,0.0,0.0,0.0,0.0,0.0,0.0,0.0,0.0,0.0,0.0,0.0,0.0,0.0,0.0,0.0,0.0,0.0,0.0,0.0,0.0,0.0,0.0,0.0,0.0,0.0,0.0,0.0,-0.5252,-0.5785,-0.5073,0.0,0.0,0.0,0.0,0.0,0.0,0.0,0.0,0.0,0.0,-1.5743,-1.7669,-1.8231,0.0,0.0,-1.8637,-1.8369,-1.814,-1.792,-1.6994,-1.4618,-1.337,0.0,0.0,0.0,0.0,0.0,0.0,0.0,0.0,0.0,0.0,0.0,0.0,0.0,0.0,0.0,0.0,0.0,0.0,0.0,0.0,0.0,0.0,0.0,0.0,0.0,0.0,0.0,0.0,0.0,0.0,0.0,0.0,0.0,0.0,0.0,0.0,0.0,0.0,0.0,0.0,0.0,0.0,0.0,0.0,0.0,0.0,0.0,0.0,0.0,0.0,0.0,0.0,-1.2703,-1.4986,-1.6727,-1.8038,-1.8897,-1.8057,-1.7312,-1.6701,-1.5021,-1.3707,0.0,0.0,0.0,0.0,0.0,0.0,0.0,0.0,0.0,0.0,0.0,0.0,0.0,0.0,0.0,0.0,0.0,0.0,0.0,0.0,0.0,0.0,0.0,0.0,0.0,0.0,0.0,0.0,-0.5883,-0.5883,-0.5072,0.0,0.0,0.0,0.0,0.0,0.0,0.0,0.0,0.0,0.0,-1.6173,-1.8202,-1.8516,-1.8516,-1.8516,-1.8302,-1.8015,-1.7661,-1.7093,-1.6112,-1.4406,0.0,0.0,0.0,0.0,0.0,0.0,0.0,0.0,0.0,0.0,0.0,0.0,0.0,0.0,0.0,0.0,0.0,0.0,0.0,0.0,0.0,0.0,0.0,0.0,0.0,0.0,0.0,-1.0015,0.0,0.0,-1.0109,0.0,0.0,0.0,0.0,0.0,0.0,0.0,0.0,0.0,0.0,0.0,0.0,0.0,0.0,0.0,0.0,0.0,0.0,0.0,0.0,0.0,0.0,-1.2373,-1.4127,-1.588,-1.7165,-1.7964,-1.7185,-1.6736,-1.6639,-1.5022,-1.3697,-1.28,0.0,0.0,0.0,0.0,0.0,0.0,0.0,0.0,0.0,0.0,0.0,0.0,0.0,0.0,0.0,0.0,0.0,0.0,0.0,0.0,0.0,0.0,0.0,0.0,0.0,0.0,-0.6273,-0.5522,-0.5056,0.0,0.0,0.0,0.0,0.0,0.0,0.0,0.0,0.0,-1.2369,-1.4735,-1.6659,-1.7523,-1.7637,-1.768,-1.768,-1.7026,-1.6755,-1.7508,-1.7546,-1.7011,0.0,0.0,0.0,0.0,0.0,0.0,0.0,0.0,0.0,0.0,0.0,0.0,0.0,0.0,0.0,0.0,0.0,0.0,0.0,0.0,0.0,0.0,0.0,0.0,0.0,0.0,0.0,-1.1697,-1.1722,0.0,0.0,0.0,0.0,0.0,0.0,0.0,0.0,0.0,0.0,0.0,-1.4365,-1.4365,0.0,0.0,0.0,0.0,0.0,0.0,0.0,0.0,0.0,0.0,0.0,0.0,-1.2353,-1.4087,-1.5818,-1.6831,-1.7123,-1.6851,-1.6422,-1.5839,-1.5253,-1.4008,-1.1982,0.0,0.0,0.0,0.0,0.0,0.0,0.0,0.0,0.0,0.0,0.0,0.0,0.0,0.0,0.0,0.0,0.0,0.0,0.0,0.0,0.0,0.0,0.0,0.0,0.0,-0.6386,0.0,0.0,0.0,0.0,0.0,0.0,0.0,0.0,0.0,0.0,0.0,-1.1694,-1.381,-1.4923,-1.6032,-1.7389,-1.7607,-1.7794,0.0,0.0,0.0,0.0,0.0,0.0,0.0,0.0,0.0,0.0,0.0,0.0,0.0,0.0,-1.6258,-1.3472,-1.2963,-1.2935,-1.2895,0.0,0.0,0.0,0.0,0.0,0.0,0.0,0.0,0.0,0.0,0.0,0.0,0.0,0.0,-1.3505,-1.3308,-1.3304,0.0,0.0,0.0,0.0,0.0,0.0,0.0,0.0,-1.5214,-1.6199,-1.6952,-1.667,-1.6519,0.0,-1.5394,-1.3577,0.0,0.0,0.0,0.0,0.0,0.0,0.0,0.0,-1.2659,-1.4086,-1.5527,-1.6404,-1.6657,-1.6422,-1.5956,-1.541,-1.5099,-1.4144,-1.2451,-1.1048,-0.951,0.0,0.0,0.0,0.0,0.0,0.0,0.0,0.0,0.0,0.0,0.0,0.0,0.0,0.0,0.0,0.0,0.0,0.0,0.0,0.0,0.0,0.0,0.0,-0.6712,0.0,0.0,0.0,0.0,0.0,0.0,0.0,0.0,0.0,-1.0339,-1.1424,-1.2976,-1.5141,-1.5731,-1.6262,-1.7064,0.0,0.0,0.0,0.0,0.0,0.0,0.0,-1.6355,-1.6375,-1.6375,-1.6633,-1.7392,-1.8474,-1.9154,-1.885,0.0,0.0,-1.6544,-1.6204,-1.6372,-1.6331,-1.6787,-1.7158,-1.7117,-1.7762,-1.8336,0.0,0.0,0.0,0.0,0.0,0.0,0.0,0.0,-1.5617,-1.5504,0.0,-1.4827,0.0,0.0,0.0,0.0,-1.2792,-1.5125,0.0,0.0,-1.9781,-2.1081,-2.0312,-1.9488,-1.9107,-1.9015,-1.7446,-1.6213,-1.5335,-1.295,0.0,0.0,0.0,0.0,0.0,0.0,-1.3277,-1.4201,-1.5097,-1.5877,-1.6638,-1.5897,-1.5449,-1.5391,-1.4612,-1.4144,-1.4008,-1.1711,-1.0367,-1.025,-0.7076,0.0,0.0,0.0,0.0,0.0,0.0,0.0,0.0,0.0,0.0,0.0,0.0,0.0,0.0,0.0,0.0,0.0,0.0,0.0,0.0,-0.7556,0.0,0.0,0.0,0.0,0.0,0.0,0.0,0.0,0.0,0.0,-1.1553,-1.286,-1.4465,-1.6113,0.0,0.0,0.0,0.0,-1.7222,-1.6508,-1.6332,-1.6634,-1.743,-1.8326,-1.8885,-1.8924,0.0,0.0,-2.0264,-2.0217,-2.0074,-1.9202,-2.047,-2.123,-2.0384,-1.9483,-1.8931,-1.8931,-1.9007,-1.8983,-1.9026,-1.9821,-2.0375,-1.9172,0.0,0.0,0.0,0.0,-1.6378,-1.7316,-1.9009,-1.8656,-1.839,-1.8124,-1.7601,0.0,0.0,0.0,0.0,0.0,0.0,-1.7771,-1.8992,-2.0144,-2.1154,-2.2062,-2.1816,-2.172,-2.1647,-2.0011,-1.91,-1.8786,-1.6913,-1.4512,-1.1643,0.0,0.0,0.0,0.0,-1.444,-1.5841,-1.6787,-1.7065,-1.6696,-1.6461,-1.6033,-1.543,-1.5157,-1.473,-1.4105,-1.2801,-1.1516,-1.0328,-0.8751,0.0,0.0,0.0,0.0,0.0,0.0,0.0,0.0,0.0,0.0,0.0,0.0,0.0,0.0,0.0,0.0,0.0,0.0,0.0,-0.751,-0.8094,-0.8171,0.0,0.0,0.0,0.0,0.0,0.0,0.0,0.0,0.0,-1.4688,-1.4806,-1.4862,0.0,0.0,-1.5784,-1.6059,-1.6788,-1.7614,-1.8555,-1.865,0.0,-1.9757,-1.9732,-1.9806,-2.0375,-2.1989,-2.3092,-2.2827,-2.3297,-2.3657,-2.3348,-2.3258,-2.3294,-2.3599,-2.2514,-2.1587,-2.1549,-2.1982,-2.2421,-2.2479,-2.313,-2.3695,-2.3201,-2.0491,-1.8888,-1.8546,-1.9039,-1.8843,-1.968,-2.1158,-2.0976,-2.0733,-2.0422,-1.994,-1.8811,-1.7152,-1.6305,0.0,0.0,0.0,-1.9722,-2.139,-2.1542,-2.2359,-2.3654,-2.3367,-2.3256,-2.322,-2.1625,-2.0808,-2.0796,-1.9143,-1.7095,-1.4784,0.0,0.0,-1.3816,-1.4657,-1.5758,-1.7064,-1.766,-1.7707,-1.7182,-1.6529,-1.5931,-1.543,-1.541,-1.5136,-1.4631,-1.3444,-1.2334,-1.1321,-0.9821,-0.8128,0.0,0.0,0.0,0.0,0.0,0.0,0.0,0.0,0.0,0.0,0.0,-0.8821,-1.0168,0.0,0.0,0.0,-0.7164,-0.7748,-0.8052,-0.8507,0.0,0.0,0.0,0.0,0.0,0.0,0.0,-1.2361,-1.3469,-1.4688,-1.6197,-1.6166,-1.609,-1.6305,-1.6654,-1.6904,-1.694,0.0,-1.907,-2.0038,-2.0208,-2.0527,-2.1362,-2.1499,-2.1776,-2.258,-2.362,-2.4377,-2.4435,-2.488,-2.5191,-2.5153,-2.4784,-2.4574,-2.5096,-2.4326,-2.3638,-2.3638,-2.4058,-2.4402,-2.4421,-2.4822,-2.521,-2.639,-2.6066,-2.248,-2.0987,-2.1031,-2.1689,-2.2018,-2.2136,-2.2785,-2.2676,-2.1999,-2.1913,-2.1001,-1.9462,-1.8794,0.0,-1.9813,-2.0765,-2.203,-2.3578,-2.3661,-2.4176,-2.5034,-2.4259,-2.3976,-2.412,-2.2532,-2.176,-2.1606,-2.0078,-1.8805,-1.7901,-1.7167,-1.6331,-1.5491,-1.6195,-1.7062,-1.7993,-1.8013,-1.7957,-1.7888,-1.6334,-1.5456,-1.5408,-1.5409,-1.537,-1.5253,-1.3676,-1.2763,-1.2625,-1.0405,-0.8711,-0.7815,0.0,0.0,0.0,0.0,0.0,0.0,0.0,0.0,0.0,0.0,0.0,0.0,0.0,0.0,0.0,-0.8789,0.0,-0.8992,-0.9047,0.0,0.0,0.0,-0.9796,-1.1348,-1.2341,-1.3179,-1.3914,0.0,0.0,-1.6598,-1.7134,-1.7847,-1.8775,-1.9417,-1.9483,-1.8703,-1.9995,-2.1085,-2.1158,-2.1331,-2.1743,-2.2521,-2.3289,-2.4038,-2.4792,-2.521,-2.5153,-2.5153,-2.5172,-2.521,-2.521,-2.5153,-2.5109,-2.5191,-2.5057,-2.5115,-2.5096,-2.5153,-2.5172,-2.5153,-2.5172,-2.521,-2.7689,-2.7067,-2.6136,-2.5448,-2.5017,-2.5189,-2.5262,-2.5236,-2.4827,-2.4574,-2.4376,-2.317,-2.2108,-2.1225,-2.163,-2.195,-2.2213,-2.3201,-2.3865,-2.4268,-2.4437,-2.4645,-2.4858,-2.4669,-2.4619,-2.4645,-2.3728,-2.2958,-2.2341,-2.1451,-2.0252,-1.8847,-1.8583,-1.7763,-1.6372,-1.6508,-1.7355,-1.8792,-1.8852,-1.8567,-1.7888,-1.6862,-1.602,-1.5418,-1.5418,-1.5071,-1.4416,-1.3385,-1.2488,-1.1807,-1.0639,-0.9587,-0.8731,-0.7678,0.0,0.0,0.0,0.0,0.0,0.0,0.0,0.0,0.0,-0.9421,-1.0246,0.0,-0.8587,0.0,-0.9288,-1.0042,-1.0644,-1.1296,0.0,0.0,-1.238,-1.2765,-1.3188,-1.4561,-1.557,-1.5761,-1.6682,-1.7561,-1.8226,-1.8438,-1.9045,-2.0375,-1.9568,-1.9156,-2.007,-2.1194,-2.2151,-2.2764,-2.3394,-2.394,-2.4094,-2.4419,-2.4765,-2.5155,-2.521,-2.521,-2.521,-2.521,-2.521,-2.5172,-2.4631,-2.4511,-2.5077,-2.4689,-2.4536,-2.5038,-2.521,-2.521,-2.521,-2.521,-2.521,-2.8328,-2.793,-2.7948,-2.7731,-2.7337,-2.6611,-2.6313,-2.6311,-2.5874,-2.5714,-2.5673,-2.4492,-2.3554,-2.2878,-2.3318,-2.352,-2.3593,-2.4118,-2.4374,-2.4383,-2.451,-2.4604,-2.4678,-2.4659,-2.4737,-2.4824,-2.4075,-2.3301,-2.2522,-2.1795,-2.083,-1.9565,-1.9599,-1.8972,-1.7744,-1.7323,-1.7607,-1.8501,-1.855,-1.8545,-1.8414,-1.723,-1.619,-1.5381,-1.4995,-1.4419,-1.3553,-1.2696,-1.1998,-1.1516,-1.0737,-0.9899,-0.9042,-0.8556,-0.7776,0.0,0.0,0.0,0.0,0.0,0.0,0.0,0.0,0.0,0.0,0.0,-0.9574,-0.9774,-1.0663,-1.1407,-1.1844,-1.2634,-1.3274,-1.3679,-1.4465,-1.5096,-1.544,-1.6697,-1.7519,-1.7519,-1.8226,-1.8894,-1.9372,-1.9369,-1.9929,-2.1515,-2.0863,-2.0652,-2.1819,-2.2797,-2.3577,-2.4068,-2.4582,-2.4919,-2.4919,-2.4986,-2.5063,-2.5174,-2.521,-2.521,-2.521,-2.521,-2.521,-2.5172,-2.4803,-2.4631,-2.5077,-2.4861,-2.4669,-2.5033,-2.521,-2.521,-2.521,-2.521,-2.521,-2.86,-2.86,-2.86,-2.86,-2.8478,-2.7097,-2.6553,-2.6588,-2.649,-2.64,-2.6259,-2.5585,-2.4925,-2.425,-2.4225,-2.4199,-2.4199,-2.4201,-2.4192,-2.4192,-2.4257,-2.4347,-2.4456,-2.4456,-2.4578,-2.4736,-2.4089,-2.3347,-2.2576,-2.1844,-2.1034,-2.0156,-2.0134,-1.9738,-1.8924,-1.8169,-1.7791,-1.7794,-1.791,-1.8291,-1.8891,-1.73,-1.6015,-1.5147,-1.4338,-1.353,-1.2665,-1.1906,-1.1444,-1.1318,-1.0676,-0.9956,-0.9198,-0.9061,-0.8476,0.0,-0.7129,0.0,0.0,0.0,0.0,0.0,0.0,0.0,0.0,-1.0439,-1.0794,-1.1493,-1.2377,-1.291,-1.291,-1.373,-1.458,-1.5344,-1.6201,-1.7003,-1.7699,-1.8516,-1.9051,-1.9051,-1.9673,-2.0112,-2.0069,-2.0086,-2.0687,-2.2096,-2.2449,-2.2747,-2.3603,-2.4338,-2.484,-2.4929,-2.5095,-2.5156,-2.5162,-2.5199,-2.5185,-2.5205,-2.521,-2.521,-2.521,-2.521,-2.521,-2.521,-2.5172,-2.5172,-2.521,-2.5191,-2.5191,-2.521,-2.521,-2.521,-2.521,-2.521,-2.521,-2.86,-2.86,-2.86,-2.86,-2.8582,-2.8292,-2.8147,-2.8123,-2.7471,-2.6873,-2.6259,-2.5604,-2.5218,-2.5045,-2.4464,-2.4199,-2.4199,-2.4199,-2.4209,-2.4209,-2.4209,-2.4238,-2.4266,-2.4257,-2.4399,-2.4628,-2.4575,-2.422,-2.3517,-2.2849,-2.1746,-2.0281,-1.9572,-1.884,-1.8074,0.0,0.0,0.0,-1.8509,-1.859,-1.8015,-1.6411,-1.5128,-1.4275,-1.3464,0.0,-1.1775,-1.1583,-1.116,-1.0489,-1.0296,0.0,0.0,0.0,0.0,0.0,0.0,0.0,0.0,0.0,0.0,0.0,-1.095,-1.0769,-1.0381,-1.1472,-1.2274,-1.2399,-1.3738,-1.4632,-1.4663,-1.5998,-1.6934,-1.7145,-1.7905,-1.8497,-1.8669,-1.9372,-1.9888,-1.9883,-2.0017,-2.0112,-2.017,-2.0676,-2.1462,-2.2462,-2.3173,-2.3923,-2.4719,-2.4998,-2.515,-2.5156,-2.5174,-2.521,-2.521,-2.521,-2.521,-2.521,-2.521,-2.521,-2.521,-2.521,-2.521,-2.521,-2.521,-2.521,-2.521,-2.521,-2.521,-2.521,-2.521,-2.521,-2.521,-2.521,-2.521,-2.86,-2.86,-2.86,-2.86,0.0,-2.86,-2.86,-2.8563,-2.8165,-2.7562,-2.683,-2.6529,-2.5965,-2.5231,-2.489,-2.4527,-2.419,-2.4199,-2.4199,-2.4199,-2.4199,-2.4209,-2.4209,-2.42,-2.4266,-2.4408,-2.4578,-2.4296,-2.3594,-2.2991,-2.2072,-2.0824,-2.0046,-1.9444,-1.9056,-1.9037,-1.8862,-1.8449,-1.8877,-1.909,-1.9032,-1.7833,-1.6583,-1.5319,-1.4471,0.0,0.0,0.0,0.0,0.0,0.0,0.0,0.0,0.0,0.0,-1.1496,-1.1127,-1.1059,-1.1501,-1.1541,-1.1699,-1.2106,-1.2523,-1.2587,-1.2165,-1.2856,-1.3619,-1.4404,-1.5267,-1.5902,-1.6319,-1.7489,-1.8249,-1.8287,-1.8994,-1.9486,-1.9525,-1.9845,-2.0112,-2.0112,-2.0112,-2.0227,-2.0695,-2.1101,-2.1918,-2.3021,-2.3608,-2.4224,-2.5013,-2.521,-2.521,-2.521,-2.521,-2.521,-2.521,-2.521,-2.521,-2.521,-2.521,-2.521,-2.521,-2.521,-2.521,-2.521,-2.521,-2.521,-2.521,-2.521,-2.521,-2.521,-2.521,-2.521,-2.521,-2.521,-2.521,-2.86,-2.86,-2.86,-2.86,-2.86,-2.86,-2.86,-2.86,-2.86,0.0,0.0,-2.7538,-2.6725,-2.5415,-2.5333,-2.4872,-2.4198,-2.4208,-2.4199,-2.4199,-2.4199,-2.4199,-2.4199,-2.4199,-2.4237,-2.4248,-2.4424,-2.4236,-2.3681,-2.31,-2.2404,-2.1651,-2.0892,-2.0454,-2.0307,-2.0285,-1.9983,-1.9332,-1.9183,-1.9435,-2.0131,-1.9164,-1.8007,-1.6619,-1.577,-1.4575,-1.3074,-1.3018,-1.295,-1.2811,-1.2787,-1.2794,-1.2796,-1.2791,-1.2881,-1.3019,-1.3038,-1.309,-1.326,-1.3261,-1.3339,-1.347,-1.4295,-1.4704,-1.4492,-1.4402,-1.4992,-1.6535,-1.6769,-1.7122,-1.7771,-1.8593,-1.9104,-1.9128,-1.9697,-2.0093,-2.0093,-2.0112,-2.0112,-2.0112,-2.0265,-2.0575,-2.1268,-2.1689,-2.2319,-2.3556,-2.4047,-2.4339,-2.5013,-2.521,-2.521,-2.521,-2.521,-2.521,-2.521,-2.521,-2.521,-2.521,-2.521,-2.521,-2.5229,-2.5325,-2.5363,-2.521,-2.5306,-2.5363,-2.5249,-2.521,-2.521,-2.521,-2.521,-2.521,-2.521,-2.521,-2.521,-2.86,-2.86,-2.86,-2.86,-2.86,-2.86,-2.86,-2.86,-2.86,-2.8527,-2.8401,-2.7774,-2.701,-2.6125,-2.5549,-2.487,-2.4132,-2.417,-2.4199,-2.4199,-2.4199,-2.4199,-2.4199,-2.4199,-2.4284,-2.4452,-2.4476,-2.4599,-2.4683,-2.3989,-2.3291,-2.2555,-2.175,-2.0978,-2.0346,-2.0288,-2.025,-2.0115,-1.9432,-1.9164,-1.9264,-1.7755,-1.6851,-1.658,-1.5787,-1.4839,-1.3887,-1.3848,-1.351,-1.2832,-1.2796,-1.279,-1.2795,-1.287,-1.3119,-1.3832,-1.3911,-1.4251,-1.498,-1.5039,-1.5349,-1.6111,-1.6957,-1.7097,-1.632,-1.6171,-1.6549,-1.7529,-1.8129,-1.8574,-1.8765,-1.9429,-1.9883,-1.9902,-2.0017,-2.0112,-2.0112,-2.0112,-2.0112,-2.0131,-2.0771,-2.1211,-2.1517,-2.2601,-2.3498,-2.3938,-2.4492,-2.5057,-2.5153,-2.521,-2.521,-2.521,-2.521,-2.521,-2.521,-2.521,-2.521,-2.521,-2.521,-2.521,-2.521,-2.5726,-2.5892,-2.5344,-2.5797,-2.595,-2.5472,-2.521,-2.5363,-2.5401,-2.5382,-2.5287,-2.5306,-2.5268,-2.521,-2.86,-2.86,-2.86,-2.86,-2.86,-2.86,-2.86,-2.86,-2.86,-2.86,-2.8563,-2.8244,-2.7429,-2.632,-2.5976,-2.5192,-2.4122,-2.4141,-2.4161,-2.4208,-2.4199,-2.4199,-2.4199,-2.4199,-2.4256,-2.4348,-2.4444,-2.4591,-2.4655,-2.4022,-2.3332,-2.2603,-2.1447,-2.0666,-2.0323,-2.0294,-2.0295,-2.0289,-1.997,-1.9802,-1.9802,-1.9051,-1.8432,-1.7968,-1.7542,-1.6943,-1.6089,-1.607,-1.5881,-1.5523,-1.5549,-1.5569,-1.5564,-1.5583,-1.5775,-1.6181,-1.6212,-1.638,-1.6796,-1.6814,-1.698,-1.7379,-1.7765,-1.8024,-1.8028,-1.7547,-1.7594,-1.8368,-1.877,-1.9109,-1.951,-1.9883,-2.0112,-2.0112,-2.0112,-2.0112,-2.0112,-2.0112,-2.0112,-2.017,-2.0867,-2.156,-2.2013,-2.313,-2.411,-2.4517,-2.5019,-2.521,-2.521,-2.521,-2.521,-2.521,-2.521,-2.521,-2.521,-2.521,-2.5216,-2.5214,-2.5203,-2.5197,-2.5247,-2.5866,-2.6173,-2.6007,-2.6523,-2.6899,-2.6555,-2.6555,-2.6555,-2.6523,-2.6122,-2.5912,-2.5835,-2.5529,-2.521,-2.8587,-2.86,-2.86,-2.86,-2.86,-2.86,-2.86,-2.86,-2.86,-2.86,-2.86,-2.86,-2.7737,-2.6352,-2.6291,-2.5485,-2.422,-2.4094,-2.4141,-2.4208,-2.4199,-2.4199,-2.4199,-2.4199,-2.4199,-2.4209,-2.4375,-2.4452,-2.4427,-2.4031,-2.3366,-2.2479,-2.1182,-2.0465,-2.0296,-2.0299,-2.0294,-2.0285,-2.0328,-2.0376,-2.0379,-2.0379,-2.007,-1.9454,-1.9396,-1.899,-1.8161,-1.8084,-1.8007,-1.7816,-1.7864,-1.7909,-1.7907,-1.7911,-1.7931,-1.7986,-1.8008,-1.8002,-1.8008,-1.8196,-1.83,-1.8281,-1.8477,-1.8837,-1.9336,-1.8889,-1.8707,-1.9217,-1.9303,-1.9526,-1.9977,-2.0102,-2.0112,-2.0112,-2.0112,-2.0112,-2.0112,-2.027,-2.0399,-2.048,-2.1306,-2.2243,-2.2873,-2.3651,-2.444,-2.5,-2.521,-2.521,-2.521,-2.521,-2.5229,-2.5407,-2.5331,-2.5325,-2.5401,-2.5497,-2.5598,-2.5673,-2.5809,-2.5923,-2.6006,-2.6491,-2.6784,-2.688,-2.7396,-2.774,-2.7759,-2.7644,-2.7587,-2.7491,-2.7052,-2.6632,-2.6345,-2.5931,-2.5421,-2.8531,-2.8587,-2.86,-2.86,-2.86,-2.86,-2.86,-2.86,-2.86,-2.86,-2.8563,-2.86,-2.7695,-2.6331,-2.6261,-2.5426,-2.4061,-2.4074,-2.4123,-2.4208,-2.4199,-2.4199,-2.4199,-2.4199,-2.4199,-2.4199,-2.4228,-2.4339,-2.4459,-2.4393,-2.3766,-2.2637,-2.1663,-2.0881,-2.0377,-2.0296,-2.0273,-2.0204,-2.0275,-2.0331,-2.0379,-2.0379,-2.0341,-2.0283,-2.0263,-1.988,-1.9009,-1.8971,-1.8626,-1.7893,-1.7919,-1.7944,-1.795,-1.7999,-1.8006,-1.8041,-1.8038,-1.8008,-1.808,-1.8739,-1.9166,-1.9225,-1.9869,-2.0275,-2.034,-2.0269,-2.0231,-2.0225,-2.0141,-2.0096,-2.0175,-2.0139,-2.0112,-2.0112,-2.0112,-2.0112,-2.0246,-2.0786,-2.1292,-2.1292,-2.2581,-2.3703,-2.3747,-2.4421,-2.5033,-2.5153,-2.521,-2.5268,-2.5344,-2.5344,-2.5623,-2.6037,-2.5782,-2.565,-2.6109,-2.6294,-2.6554,-2.7179,-2.7415,-2.7275,-2.7338,-2.7848,-2.8459,-2.7759,-2.8236,-2.8554,-2.8122,-2.772,-2.7835,-2.8026,-2.7778,-2.7358,-2.6676,-2.6294,-2.5988,-2.8574,-2.86,-2.86,-2.86,-2.86,-2.86,-2.86,-2.86,-2.86,-2.8346,-2.7912,-2.7894,-2.726,-2.6204,-2.5737,-2.4929,-2.3974,-2.4006,-2.4084,-2.4151,-2.418,-2.4199,-2.4199,-2.4199,-2.4199,-2.4199,-2.4199,-2.4228,-2.4247,-2.3969,-2.3529,-2.2986,-2.1895,-2.1158,-2.0881,-2.0419,-2.0195,-2.0211,-2.0184,-2.0231,-2.0332,-2.0386,-2.0379,-2.0379,-2.0379,-2.0247,-1.9918,-1.986,-1.9686,-1.938,-1.9361,-1.941,-1.9426,-1.9473,-1.9476,-1.9475,-1.9461,-1.9492,-1.956,-1.9871,-2.0066,-2.0066,-2.0398,-2.057,-2.0519,-2.0512,-2.0492,-2.0456,-2.0337,-2.0231,-2.0211,-2.0143,-2.0112,-2.0112,-2.0112,-2.0303,-2.0829,-2.1197,-2.156,-2.2071,-2.3155,-2.3913,-2.4014,-2.465,-2.5153,-2.521,-2.5229,-2.5388,-2.582,-2.5973,-2.6349,-2.7004,-2.6952,-2.6889,-2.717,-2.7228,-2.7425,-2.7667,-2.7757,-2.7745,-2.7935,-2.8422,-2.8804,-2.8504,-2.9123,-2.9492,-2.9333,-2.9179,-2.9172,-2.9039,-2.8574,-2.8153,-2.7338,-2.6746,-2.6288,-2.8605,-2.86,-2.86,-2.86,-2.86,-2.86,-2.86,-2.86,-2.86,-2.8256,-2.7713,-2.7278,-2.6771,-2.6138,-2.5371,-2.4606,-2.3969,-2.3966,-2.4006,-2.4074,-2.4132,-2.4151,-2.4151,-2.4161,-2.417,-2.417,-2.4198,-2.4199,-2.4173,-2.381,-2.3524,-2.3262,-2.2382,-2.1792,-2.159,-2.0804,-2.0408,-2.0459,-2.0212,-2.0107,-2.0214,-2.0292,-2.0356,-2.0379,-2.0379,-2.0379,-2.0379,-2.0379,-2.0379,-2.0382,-2.0424,-2.0456,-2.0497,-2.0504,-2.051,-2.0515,-2.0516,-2.0527,-2.0595,-2.0594,-2.0594,-2.0594,-2.0594,-2.0571,-2.0525,-2.0517,-2.0504,-2.0478,-2.0391,-2.0294,-2.0239,-2.0154,-2.0121,-2.0117,-2.027,-2.0747,-2.1292,-2.1713,-2.2357,-2.2906,-2.3766,-2.4263,-2.4339,-2.4803,-2.521,-2.521,-2.5421,-2.5694,-2.6368,-2.668,-2.7132,-2.7998,-2.8138,-2.8132,-2.8126,-2.812,-2.8163,-2.8456,-2.8592,-2.8624,-2.8487,-2.9072,-2.936,-2.9443,-2.9965,-3.0105,-2.9875,-3.0015,-3.0122,-3.0058,-2.965,-2.8917,-2.8192,-2.7485,-2.709,-2.8549,-2.86,-2.86,-2.86,-2.86,-2.86,-2.86,-2.86,-2.86,-2.8563,-2.8238,-2.6916,-2.624,-2.6095,-2.528,-2.4588,-2.3951,-2.3907,-2.3955,-2.3996,-2.4034,-2.4034,-2.4034,-2.4074,-2.4122,-2.4132,-2.417,-2.4237,-2.4275,-2.4266,-2.3982,-2.3427,-2.3259,-2.2992,-2.2469,-2.1544,-2.1121,-2.1159,-2.0432,-2.0009,-2.0058,-2.0171,-2.0277,-2.0366,-2.0379,-2.0379,-2.0379,-2.0379,-2.0379,-2.0379,-2.0463,-2.0514,-2.0502,-2.0498,-2.0515,-2.05,-2.0503,-2.0527,-2.0579,-2.0594,-2.0594,-2.0594,-2.0594,-2.0593,-2.0591,-2.0538,-2.0504,-2.0497,-2.0507,-2.0453,-2.0413,-2.0389,-2.0284,-2.0265,-2.0886,-2.133,-2.1497,-2.2797,-2.367,-2.3938,-2.4536,-2.4956,-2.5077,-2.5172,-2.5306,-2.544,-2.5892,-2.6478,-2.6776,-2.726,-2.7999,-2.8725,-2.905,-2.9025,-2.8962,-2.8969,-2.9327,-2.9563,-2.9652,-2.9973,-3.0139,-3.0235,-3.0196,-3.0177,-3.0241,-3.0241,-3.0221,-3.0207,-3.02,-3.0174,-3.0168,-2.9606,-2.902,-2.8886,-2.8408,-2.8549,-2.86,-2.86,-2.86,-2.86,-2.86,-2.86,-2.86,-2.86,-2.831,-2.7713,-2.6663,-2.5914,-2.5389,-2.4592,-2.4077,-2.3845,-2.3917,-2.3966,-2.3947,-2.4016,-2.4036,-2.4024,-2.4074,-2.4112,-2.4103,-2.4161,-2.4209,-2.4247,-2.4275,-2.4218,-2.3987,-2.3587,-2.3295,-2.2996,-2.2241,-2.1865,-2.1834,-2.1004,-2.0602,-2.0692,-2.0316,-2.0148,-2.0322,-2.0382,-2.0379,-2.0379,-2.0379,-2.0379,-2.0379,-2.0465,-2.0517,-2.0502,-2.0499,-2.0511,-2.0513,-2.0501,-2.0526,-2.0585,-2.0598,-2.0594,-2.0594,-2.0594,-2.0594,-2.0593,-2.0587,-2.0539,-2.0597,-2.1043,-2.1248,-2.1188,-2.1097,-2.1039,-2.1109,-2.1699,-2.2396,-2.2925,-2.3556,-2.4091,-2.4606,-2.5033,-2.5191,-2.5338,-2.5625,-2.595,-2.6032,-2.6694,-2.7388,-2.7993,-2.8419,-2.8898,-2.9644,-2.9925,-2.9925,-2.9913,-2.9894,-3.0028,-3.0163,-3.0297,-3.0259,-3.0329,-3.0311,-3.0273,-3.0279,-3.0324,-3.0305,-3.026,-3.0266,-3.026,-3.0253,-3.0246,-3.0144,-2.987,-2.9442,-2.9015,-2.8531,-2.8574,-2.8587,-2.86,-2.86,-2.86,-2.86,-2.86,-2.86,-2.8274,-2.7695,-2.6934,-2.6149,-2.5335,-2.4538,-2.4023,-2.3824,-2.3896,-2.3907,-2.3858,-2.3966,-2.3968,-2.3947,-2.4026,-2.4074,-2.4084,-2.4161,-2.419,-2.4201,-2.4266,-2.4339,-2.4338,-2.3944,-2.3779,-2.3678,-2.2974,-2.2585,-2.248,-2.1751,-2.1342,-2.1406,-2.0989,-2.0676,-2.0657,-2.0747,-2.0664,-2.0415,-2.0379,-2.0379,-2.0389,-2.0435,-2.0493,-2.0511,-2.0503,-2.0509,-2.0507,-2.0499,-2.0526,-2.0585,-2.0598,-2.0594,-2.0594,-2.0594,-2.0594,-2.0613,-2.0845,-2.0953,-2.1114,-2.1698,-2.2194,-2.2203,-2.2274,-2.2253,-2.2111,-2.2599,-2.3245,-2.384,-2.4129,-2.4574,-2.5013,-2.5172,-2.5306,-2.5587,-2.6064,-2.646,-2.6746,-2.7555,-2.8345,-2.8854,-2.9333,-2.9645,-3.0257,-3.0321,-3.0321,-3.0257,-3.02,-3.02,-3.0334,-3.0373,-3.0398,-3.0398,-3.0367,-3.0361,-3.0386,-3.038,-3.0323,-3.0305,-3.0311,-3.0299,-3.0318,-3.0305,-3.0215,-3.0005,-2.9832,-2.9519,-2.8562,-2.8505,-2.8574,-2.86,-2.86,-2.86,-2.86,-2.86,-2.86,-2.8545,-2.8328,-2.7676,-2.6862,-2.6149,-2.5262,-2.4556,-2.4023,-2.3871,-2.3816,-2.3806,-2.3816,-2.3827,-2.3834,-2.3947,-2.4016,-2.4036,-2.4151,-2.42,-2.421,-2.4257,-2.433,-2.4384,-2.4428,-2.4408,-2.4654,-2.37,-2.3308,-2.3244,-2.2525,-2.2058,-2.2107,-2.2028,-2.1771,-2.1395,-2.1431,-2.1163,-2.0473,-2.0421,-2.0379,-2.0386,-2.0418,-2.0439,-2.0484,-2.0508,-2.0507,-2.0506,-2.0499,-2.0527,-2.0579,-2.0654,-2.0769,-2.0886,-2.075,-2.0886,-2.1042,-2.1465,-2.181,-2.192,-2.2562,-2.3098,-2.3188,-2.3698,-2.3751,-2.3056,-2.3531,-2.4005,-2.4142,-2.4686,-2.5191,-2.5229,-2.5287,-2.5568,-2.6141,-2.6612,-2.6995,-2.7663,-2.8396,-2.8964,-2.9212,-2.9749,-3.0209,-3.0367,-3.0404,-3.0404,-3.0404,-3.0385,-3.0385,-3.0404,-3.0398,-3.0404,-3.0404,-3.0373,-3.0373,-3.0398,-3.0398,-3.0361,-3.0329,-3.0336,-3.0324,-3.0331,-3.0324,-3.0324,-3.0196,-3.0081,-3.0126,-2.8536,-2.8523,-2.8574,-2.86,-2.86,-2.86,-2.86,-2.86,-2.86,-2.86,-2.8455,-2.7749,-2.7272,-2.6753,-2.5642,-2.4864,-2.4574,-2.4085,-2.3795,-2.3806,-2.3837,-2.3837,-2.3827,-2.3927,-2.4036,-2.4123,-2.4189,-2.4199,-2.42,-2.4219,-2.4248,-2.4339,-2.4403,-2.4482,-2.4549,-2.4256,-2.4143,-2.4056,-2.3299,-2.2853,-2.2857,-2.241,-2.2153,-2.2086,-2.124,-2.08,-2.123,-2.073,-2.0402,-2.0402,-2.0438,-2.0467,-2.0503,-2.0516,-2.0503,-2.0511,-2.0515,-2.0505,-2.0605,-2.1147,-2.1745,-2.2155,-2.2311,-2.233,-2.233,-2.2523,-2.2693,-2.2765,-2.3475,-2.3988,-2.4081,-2.4717,-2.4725,-2.3889,-2.4424,-2.4854,-2.4798,-2.5061,-2.5178,-2.5287,-2.5688,-2.6122,-2.658,-2.7166,-2.8103,-2.8485,-2.9263,-2.9787,-2.9922,-3.0094,-3.0355,-3.0398,-3.0404,-3.0404,-3.0404,-3.041,-3.0416,-3.0421,-3.0402,-3.0404,-3.0404,-3.0404,-3.0404,-3.0404,-3.0404,-3.0398,-3.0373,-3.0361,-3.0349,-3.0349,-3.0368,-3.0374,-3.0374,-3.0349,-3.033,-2.8497,-2.8471,-2.8562,-2.86,-2.86,-2.86,-2.86,-2.86,-2.86,-2.86,-2.8437,-2.7749,-2.7206,-2.6735,-2.557,-2.4846,-2.452,-2.4013,-2.3795,-2.3795,-2.3827,-2.3865,-2.3847,-2.3958,-2.4084,-2.418,-2.4199,-2.4199,-2.4199,-2.4201,-2.422,-2.4275,-2.4367,-2.4421,-2.4465,-2.4491,-2.45,-2.4407,-2.3971,-2.3709,-2.3638,-2.3255,-2.2958,-2.2823,-2.2323,-2.208,-2.2123,-2.1747,-2.1243,-2.0585,-2.0446,-2.0627,-2.0887,-2.0977,-2.1122,-2.1422,-2.1462,-2.1418,-2.1288,-2.1932,-2.2648,-2.3249,-2.3229,-2.3092,-2.315,-2.3326,-2.3576,-2.3687,-2.4383,-2.488,-2.4925,-2.5285,-2.5357,-2.4846,-2.5111,-2.5376,-2.5348,-2.5531,-2.5696,-2.5895,-2.6412,-2.693,-2.7574,-2.8084,-2.909,-2.9384,-2.9876,-3.0273,-3.0305,-3.031,-3.0367,-3.0379,-3.0404,-3.0404,-3.0404,-3.0416,-3.0427,-3.0419,-3.0425,-3.0402,-3.0404,-3.0404,-3.0404,-3.0404,-3.0404,-3.0404,-3.0379,-3.0379,-3.0392,-3.0404,-3.0404,-3.0398,-3.0386,-3.0367,-3.0355,-2.8458,-2.8406,-2.8536,-2.8587,-2.86,-2.86,-2.86,-2.86,-2.86,-2.86,-2.8437,-2.7894,-2.7115,-2.6283,-2.5588,-2.4809,-2.3994,-2.385,-2.3904,-2.394,-2.3969,-2.4026,-2.4117,-2.4245,-2.4343,-2.4373,-2.4273,-2.4199,-2.4199,-2.4209,-2.4201,-2.421,-2.433,-2.4394,-2.4421,-2.4474,-2.45,-2.4481,-2.4444,-2.4407,-2.4415,-2.4415,-2.4126,-2.358,-2.424,-2.4075,-2.3045,-2.304,-2.2492,-2.0892,-2.0817,-2.1182,-2.1638,-2.1825,-2.2233,-2.2819,-2.3052,-2.2762,-2.2577,-2.2871,-2.3474,-2.405,-2.3775,-2.3247,-2.3579,-2.4125,-2.4457,-2.4513,-2.5151,-2.5612,-2.5611,-2.5672,-2.5632,-2.5668,-2.5572,-2.552,-2.5479,-2.6043,-2.6381,-2.6672,-2.7351,-2.8101,-2.8696,-2.8983,-2.9474,-2.9895,-3.0189,-3.0248,-3.0286,-3.0316,-3.0322,-3.0354,-3.0385,-3.0419,-3.0431,-3.0433,-3.0455,-3.0477,-3.0487,-3.0451,-3.0425,-3.0408,-3.0404,-3.0404,-3.0396,-3.039,-3.0404,-3.0404,-3.0404,-3.0404,-3.0404,-3.0404,-3.0379,-3.0379,-3.0373,-2.8367,-2.8411,-2.8479,-2.8562,-2.86,-2.86,-2.86,-2.86,-2.86,-2.86,-2.8527,-2.8382,-2.7749,-2.7025,-2.6222,-2.5443,-2.4737,-2.4121,-2.4186,-2.4628,-2.4683,-2.4737,-2.484,-2.4933,-2.4957,-2.4924,-2.4438,-2.4199,-2.4199,-2.4209,-2.42,-2.4201,-2.4275,-2.4348,-2.4403,-2.4483,-2.4518,-2.45,-2.45,-2.45,-2.45,-2.45,-2.4462,-2.4437,-2.4714,-2.4473,-2.3616,-2.3261,-2.2981,-2.2446,-2.2339,-2.2426,-2.2634,-2.2742,-2.2913,-2.317,-2.3185,-2.33,-2.3587,-2.3867,-2.4412,-2.5144,-2.4965,-2.5024,-2.5024,-2.5199,-2.5356,-2.5394,-2.5626,-2.5699,-2.5694,-2.5737,-2.5721,-2.5699,-2.5793,-2.5892,-2.6209,-2.6455,-2.68,-2.7455,-2.822,-2.8775,-2.9109,-2.9557,-2.9979,-3.0228,-3.0299,-3.0304,-3.0339,-3.0369,-3.0398,-3.0377,-3.0402,-3.0433,-3.0465,-3.0472,-3.0496,-3.056,-3.056,-3.0535,-3.0496,-3.0439,-3.0419,-3.0404,-3.0419,-3.0406,-3.0402,-3.0385,-3.0404,-3.0414,-3.0408,-3.0414,-3.0396,-3.0385,-3.0379,-2.8313,-2.8353,-2.8471,-2.8319,-2.8128,-2.8442,-2.8419,-2.8219,-2.8473,-2.86,-2.8527,-2.8219,-2.7839,-2.7333,-2.6548,-2.5986,-2.5479,-2.5027,-2.5099,-2.5418,-2.5553,-2.5437,-2.5218,-2.5008,-2.4849,-2.4842,-2.442,-2.4236,-2.4199,-2.4199,-2.419,-2.4191,-2.4238,-2.4284,-2.4358,-2.443,-2.4474,-2.4491,-2.45,-2.45,-2.45,-2.45,-2.4532,-2.4631,-2.4756,-2.4676,-2.4462,-2.4177,-2.3742,-2.3163,-2.3,-2.3165,-2.3521,-2.3586,-2.3759,-2.4101,-2.4191,-2.4385,-2.4639,-2.4862,-2.5155,-2.5576,-2.5687,-2.5687,-2.5648,-2.5687,-2.5687,-2.5687,-2.5687,-2.5704,-2.5759,-2.5997,-2.6214,-2.6331,-2.653,-2.6732,-2.6851,-2.7426,-2.7927,-2.8545,-2.9168,-2.9679,-2.9669,-3.0141,-3.0334,-3.0441,-3.0442,-3.0438,-3.0453,-3.0462,-3.0477,-3.0462,-3.0472,-3.0506,-3.0518,-3.0535,-3.0576,-3.0617,-3.062,-3.062,-3.0568,-3.0496,-3.0456,-3.0449,-3.0444,-3.0433,-3.0422,-3.0422,-3.0449,-3.046,-3.0444,-3.0444,-3.0439,-3.0422,-3.0431,-2.8282,-2.8313,-2.8355,-2.8005,-2.7651,-2.8158,-2.8147,-2.7803,-2.8328,-2.86,-2.8473,-2.7857,-2.7622,-2.7351,-2.6765,-2.6312,-2.6149,-2.5968,-2.6186,-2.6256,-2.6252,-2.6002,-2.5436,-2.4874,-2.462,-2.453,-2.4309,-2.4199,-2.4199,-2.4199,-2.4199,-2.4209,-2.4201,-2.4247,-2.4321,-2.4367,-2.4438,-2.4491,-2.45,-2.45,-2.45,-2.45,-2.4534,-2.4596,-2.4842,-2.5069,-2.5225,-2.5248,-2.476,-2.3267,-2.324,-2.3763,-2.438,-2.4423,-2.4758,-2.5323,-2.543,-2.5491,-2.5637,-2.5564,-2.5644,-2.5694,-2.5687,-2.5687,-2.5687,-2.5687,-2.5766,-2.6001,-2.5845,-2.6019,-2.6291,-2.6761,-2.7055,-2.7249,-2.7853,-2.7941,-2.77,-2.851,-2.9444,-2.9561,-3.0215,-3.0524,-3.061,-3.0607,-3.0599,-3.0518,-3.0535,-3.0535,-3.0524,-3.0548,-3.0556,-3.0568,-3.0579,-3.0602,-3.0597,-3.0603,-3.0645,-3.0682,-3.0672,-3.0659,-3.0655,-3.0598,-3.0531,-3.0515,-3.0495,-3.0487,-3.0467,-3.0482,-3.0501,-3.0515,-3.0515,-3.0515,-3.051,-3.0482,-3.0482,-2.8291,-2.8326,-2.7723,-2.7817,-2.8194,-2.7863,-2.7912,-2.831,-2.8491,-2.8545,-2.8545,-2.8382,-2.7984,-2.7423,-2.7206,-2.6826,-2.6403,-2.6385,-2.6512,-2.7067,-2.6572,-2.6362,-2.5958,-2.535,-2.5099,-2.4915,-2.4447,-2.4208,-2.4199,-2.4199,-2.4199,-2.4199,-2.4209,-2.4238,-2.4294,-2.4358,-2.443,-2.4482,-2.45,-2.45,-2.45,-2.4508,-2.4586,-2.4732,-2.5069,-2.5282,-2.5427,-2.5488,-2.5318,-2.5035,-2.4967,-2.5098,-2.5193,-2.524,-2.5381,-2.5576,-2.5701,-2.5704,-2.5696,-2.5701,-2.5703,-2.5693,-2.5766,-2.5687,-2.5687,-2.5805,-2.6097,-2.6508,-2.6743,-2.6977,-2.7483,-2.7835,-2.7991,-2.8186,-2.8771,-2.9239,-2.9113,-2.9297,-2.9762,-3.0238,-3.048,-3.0616,-3.0613,-3.0603,-3.06,-3.0613,-3.0616,-3.0613,-3.0623,-3.0633,-3.0643,-3.0658,-3.0658,-3.067,-3.0667,-3.0672,-3.0711,-3.073,-3.0726,-3.0724,-3.0706,-3.0681,-3.061,-3.0582,-3.0568,-3.0556,-3.0524,-3.0552,-3.0591,-3.0591,-3.0591,-3.0587,-3.0579,-3.0552,-3.0522,-2.8264,-2.8264,-2.7536,-2.7504,-2.7808,-2.7206,-2.7296,-2.793,-2.8038,-2.8256,-2.8545,-2.86,-2.8346,-2.7984,-2.7948,-2.7695,-2.7423,-2.7345,-2.755,-2.7665,-2.6979,-2.6417,-2.6129,-2.5403,-2.4842,-2.4787,-2.4428,-2.4208,-2.4199,-2.4236,-2.4199,-2.4199,-2.4219,-2.4238,-2.4312,-2.4358,-2.4438,-2.4482,-2.45,-2.45,-2.45,-2.45,-2.4888,-2.5444,-2.5989,-2.6467,-2.6698,-2.6691,-2.6691,-2.668,-2.6637,-2.629,-2.5709,-2.5618,-2.5644,-2.5673,-2.5699,-2.5687,-2.5694,-2.5701,-2.5703,-2.5749,-2.604,-2.6254,-2.6469,-2.6644,-2.7093,-2.7483,-2.764,-2.7836,-2.8283,-2.8771,-2.885,-2.9064,-2.965,-3.0138,-3.0155,-3.0144,-3.023,-3.0636,-3.0702,-3.0711,-3.0704,-3.0669,-3.0677,-3.0709,-3.0711,-3.0711,-3.0715,-3.072,-3.0715,-3.0717,-3.0733,-3.0737,-3.0751,-3.0758,-3.0762,-3.077,-3.0768,-3.0768,-3.0764,-3.0726,-3.0699,-3.0661,-3.0636,-3.0593,-3.0587,-3.0633,-3.0664,-3.0645,-3.0645,-3.0645,-3.0633,-3.0623,-3.0598,-2.8143,-2.8224,-2.7379,-2.7131,-2.7205,-2.6705,-2.6856,-2.7369,-2.7532,-2.8093,-2.8491,-2.86,-2.8545,-2.8563,-2.8527,-2.8582,-2.8527,-2.8473,-2.8382,-2.7978,-2.6961,-2.6344,-2.5885,-2.4964,-2.4447,-2.4373,-2.4475,-2.4493,-2.4667,-2.4575,-2.4869,-2.464,-2.444,-2.4579,-2.4552,-2.4394,-2.4438,-2.4491,-2.4723,-2.4797,-2.4871,-2.4936,-2.5547,-2.6324,-2.7054,-2.7551,-2.7699,-2.7759,-2.7875,-2.7991,-2.7991,-2.7257,-2.6408,-2.597,-2.5876,-2.5981,-2.6143,-2.6235,-2.6164,-2.615,-2.6269,-2.6139,-2.6742,-2.7152,-2.7367,-2.7717,-2.8127,-2.8459,-2.8635,-2.881,-2.877,-2.9338,-2.9729,-2.9885,-3.0431,-3.0742,-3.08,-3.08,-3.0739,-3.0759,-3.077,-3.0764,-3.0768,-3.0767,-3.0776,-3.08,-3.08,-3.08,-3.08,-3.0799,-3.0771,-3.0767,-3.076,-3.0758,-3.0768,-3.0771,-3.0796,-3.0796,-3.0798,-3.0799,-3.0778,-3.0737,-3.0713,-3.0717,-3.0697,-3.067,-3.0667,-3.0699,-3.0715,-3.072,-3.072,-3.0717,-3.0704,-3.0678,-3.0667,-2.7665,-2.8272,-2.6817,-2.6651,-2.7308,-2.7224,-2.7242,-2.7514,-2.8057,-2.8455,-2.8527,-2.86,-2.86,-2.8563,-2.86,-2.86,-2.86,-2.8582,-2.8323,-2.778,-2.6886,-2.6315,-2.5604,-2.5073,-2.4744,-2.5062,-2.5303,-2.5607,-2.5952,-2.6209,-2.5823,-2.5962,-2.5553,-2.5307,-2.5124,-2.4783,-2.468,-2.489,-2.5242,-2.5511,-2.5623,-2.6178,-2.6685,-2.7324,-2.7879,-2.8107,-2.8124,-2.8068,-2.7991,-2.7991,-2.7991,-2.7919,-2.776,-2.7695,-2.7362,-2.695,-2.7227,-2.7264,-2.6926,-2.7379,-2.7754,-2.7901,-2.7991,-2.8069,-2.8127,-2.8323,-2.885,-2.9357,-2.9884,-3.0293,-3.039,-3.039,-3.0527,-3.0626,-3.0645,-3.08,-3.08,-3.08,-3.08,-3.08,-3.08,-3.08,-3.08,-3.08,-3.08,-3.08,-3.08,-3.08,-3.08,-3.08,-3.0798,-3.0798,-3.0778,-3.0777,-3.0799,-3.0778,-3.0799,-3.0799,-3.0799,-3.0799,-3.0774,-3.0734,-3.07,-3.0732,-3.0758,-3.0753,-3.0757,-3.0765,-3.0765,-3.0764,-3.0768,-3.0792,-3.076,-3.0726,-3.0735,-2.792,-2.8267,-2.7117,-2.7174,-2.7773,-2.7097,-2.726,-2.7966,-2.8002,-2.7984,-2.8111,-2.8364,-2.8346,-2.8183,-2.8473,-2.86,-2.86,-2.86,-2.8445,-2.8049,-2.7486,-2.6817,-2.616,-2.5801,-2.5959,-2.6321,-2.6626,-2.6598,-2.6539,-2.6098,-2.6355,-2.6476,-2.6223,-2.6127,-2.6094,-2.5874,-2.5662,-2.581,-2.6188,-2.6474,-2.6592,-2.7441,-2.8053,-2.8351,-2.8876,-2.9236,-2.9312,-2.9345,-2.936,-2.9379,-2.936,-2.9354,-2.9341,-2.9237,-2.8815,-2.7949,-2.8021,-2.812,-2.7765,-2.8102,-2.8223,-2.8327,-2.8674,-2.8947,-2.9103,-2.9377,-2.9689,-3.0118,-3.0411,-3.08,-3.0722,-3.08,-3.08,-3.08,-3.08,-3.08,-3.08,-3.08,-3.08,-3.08,-3.08,-3.08,-3.08,-3.08,-3.08,-3.08,-3.08,-3.08,-3.08,-3.08,-3.08,-3.08,-3.08,-3.08,-3.08,-3.08,-3.08,-3.08,-3.08,-3.08,-3.0778,-3.0744,-3.0746,-3.0773,-3.0798,-3.0794,-3.0796,-3.0774,-3.0798,-3.08,-3.0799,-3.0798,-3.0799,-3.08,-3.08,-2.8027,-2.8105,-2.7459,-2.7552,-2.7899,-2.7152,-2.7188,-2.7894,-2.7604,-2.7441,-2.7495,-2.8002,-2.8075,-2.7912,-2.8268,-2.8625,-2.8657,-2.87,-2.8717,-2.8551,-2.8149,-2.7595,-2.7184,-2.7157,-2.7148,-2.7314,-2.7298,-2.7635,-2.739,-2.6828,-2.6686,-2.7008,-2.7124,-2.6956,-2.6933,-2.6708,-2.6914,-2.6991,-2.7314,-2.7474,-2.7954,-2.8663,-2.9225,-2.9288,-3.0062,-3.0443,-3.0361,-3.0366,-3.0385,-3.0424,-3.0462,-3.052,-3.0583,-3.06,-2.9997,-2.8971,-2.8715,-2.8666,-2.8583,-2.8844,-2.9062,-2.9126,-2.9513,-2.9747,-2.9923,-3.0235,-3.0683,-3.08,-3.08,-3.08,-3.08,-3.08,-3.08,-3.08,-3.08,-3.08,-3.08,-3.08,-3.08,-3.08,-3.08,-3.08,-3.08,-3.08,-3.08,-3.08,-3.08,-3.08,-3.08,-3.08,-3.08,-3.08,-3.08,-3.08,-3.08,-3.08,-3.08,-3.08,-3.08,-3.08,-3.08,-3.0778,-3.08,-3.08,-3.0773,-3.077,-3.0776,-3.08,-3.08,-3.08,-3.08,-3.08,-3.08,-3.08,-3.08,-2.7217,-2.7338,-2.7256,-2.6946,-2.6808,-2.7731,-2.7514,-2.6681,-2.7152,-2.7405,-2.7206,-2.755,-2.7912,-2.8328,-2.8473,-2.8718,-2.8863,-2.8897,-2.8776,-2.855,-2.8351,-2.7942,-2.7279,-2.7173,-2.7748,-2.8043,-2.7586,-2.793,-2.8314,-2.8378,-2.8411,-2.8422,-2.8014,-2.7859,-2.7826,-2.749,-2.6897,-2.7121,-2.7837,-2.8659,-2.9363,-2.9754,-2.9914,-3.0074,-3.0309,-3.0535,-3.0593,-3.0617,-3.0617,-3.0617,-3.0617,-3.0617,-3.0602,-3.06,-3.0607,-3.0441,-3.033,-3.0109,-2.96,-2.984,-3.0195,-3.0164,-3.047,-3.0625,-3.0605,-3.0606,-3.08,-3.08,-3.08,-3.08,-3.08,-3.08,-3.08,-3.08,-3.08,-3.08,-3.08,-3.08,-3.08,-3.08,-3.08,-3.08,-3.08,-3.08,-3.08,-3.08,-3.08,-3.08,-3.08,-3.08,-3.08,-3.08,-3.08,-3.08,-3.08,-3.08,-3.08,-3.08,-3.08,-3.08,-3.08,-3.08,-3.08,-3.078,-3.0771,-3.077,-3.0778,-3.08,-3.08,-3.08,-3.08,-3.08,-3.08,-3.08,-3.08,-2.7741,-2.789,-2.7885,-2.7763,-2.7592,-2.7857,-2.7532,-2.6971,-2.6735,-2.6475,-2.6301,-2.7079,-2.7839,-2.8437,-2.86,-2.8662,-2.8798,-2.8957,-2.8997,-2.8931,-2.8923,-2.8697,-2.8434,-2.8594,-2.9011,-2.86,-2.8711,-2.9002,-2.9345,-2.8839,-2.8496,-2.8993,-2.8791,-2.8717,-2.8758,-2.852,-2.853,-2.8739,-2.9153,-2.9631,-3.0065,-3.0254,-3.0297,-3.0377,-3.0449,-3.0515,-3.0588,-3.0617,-3.0617,-3.0617,-3.0617,-3.0617,-3.0617,-3.0601,-3.0617,-3.0667,-3.0669,-3.0509,-3.0342,-3.062,-3.0742,-3.0791,-3.08,-3.0761,-3.08,-3.08,-3.08,-3.08,-3.08,-3.08,-3.08,-3.08,-3.08,-3.08,-3.08,-3.08,-3.08,-3.08,-3.08,-3.08,-3.08,-3.08,-3.08,-3.08,-3.08,-3.08,-3.08,-3.08,-3.08,-3.08,-3.08,-3.08,-3.08,-3.08,-3.08,-3.08,-3.08,-3.08,-3.08,-3.08,-3.08,-3.08,-3.08,-3.08,-3.0778,-3.0778,-3.08,-3.08,-3.08,-3.08,-3.08,-3.08,-3.08,-3.08,-3.08,-2.8291,-2.8411,-2.8411,-2.8381,-2.8279,-2.7839,-2.7441,-2.7001,-2.6493,-2.5769,-2.5606,-2.6656,-2.7749,-2.8293,-2.8542,-2.8767,-2.8827,-2.9034,-2.9316,-2.9551,-2.9655,-2.9535,-2.9413,-2.9782,-2.9751,-2.9223,-2.9493,-2.975,-2.948,-2.9064,-2.8804,-2.9228,-2.9229,-2.9321,-2.9505,-2.9484,-2.9497,-2.9706,-2.987,-3.0112,-3.0329,-3.0383,-3.0422,-3.0455,-3.0486,-3.0525,-3.0593,-3.0617,-3.0617,-3.0617,-3.0617,-3.0617,-3.0617,-3.0607,-3.0632,-3.068,-3.0711,-3.0706,-3.0667,-3.0759,-3.0801,-3.0793,-3.08,-3.08,-3.08,-3.08,-3.08,-3.08,-3.08,-3.08,-3.08,-3.08,-3.08,-3.08,-3.08,-3.08,-3.08,-3.08,-3.08,-3.08,-3.08,-3.08,-3.08,-3.08,-3.08,-3.08,-3.08,-3.08,-3.08,-3.08,-3.08,-3.08,-3.08,-3.08,-3.08,-3.08,-3.08,-3.08,-3.08,-3.08,-3.08,-3.08,-3.08,-3.08,-3.08,-3.08,-3.08,-3.08,-3.08,-3.08,-3.08,-3.08,-3.08,-3.08,-3.08,-2.8327,-2.8411,-2.8411,-2.8075,-2.7586,-2.8256,-2.7622,-2.6391,-2.6204,-2.566,-2.5262,-2.6554,-2.7333,-2.7683,-2.8364,-2.8879,-2.9193,-2.9504,-2.9707,-2.9897,-3.0045,-2.9999,-3.0018,-3.0051,-3.0128,-2.9992,-3.0015,-2.9937,-2.9861,-2.9626,-2.9484,-2.9644,-2.9579,-2.9678,-2.9773,-2.9867,-2.9927,-3.0092,-3.0148,-3.0228,-3.0342,-3.04,-3.0433,-3.0479,-3.0505,-3.0545,-3.0593,-3.0617,-3.0617,-3.0617,-3.0617,-3.0617,-3.0617,-3.0617,-3.0628,-3.068,-3.0694,-3.0722,-3.0769,-3.0799,-3.0801,-3.0792,-3.08,-3.08,-3.08,-3.08,-3.08,-3.08,-3.08,-3.08,-3.08,-3.08,-3.08,-3.08,-3.08,-3.08,-3.08,-3.08,-3.08,-3.08,-3.08,-3.08,-3.08,-3.08,-3.08,-3.08,-3.08,-3.08,-3.08,-3.08,-3.08,-3.08,-3.08,-3.08,-3.08,-3.08,-3.08,-3.08,-3.08,-3.08,-3.08,-3.08,-3.08,-3.08,-3.08,-3.08,-3.08,-3.08,-3.08,-3.08,-3.08,-3.08,-3.08,-3.08,-3.08,-2.834,-2.8411,-2.8445,-2.833,-2.8075,-2.7405,-2.6783,-2.6084,-2.5153,-2.49,-2.5038,-2.6131,-2.6675,-2.6974,-2.773,-2.829,-2.8508,-2.9373,-2.9686,-2.9878,-2.9981,-3.0116,-3.019,-3.0204,-3.0204,-3.019,-3.0113,-3.0087,-3.0082,-2.9958,-3.003,-3.0015,-2.9872,-2.988,-2.9969,-3.0107,-3.0208,-3.0241,-3.0286,-3.0343,-3.0367,-3.04,-3.0433,-3.0485,-3.0486,-3.053,-3.0593,-3.0617,-3.0617,-3.0617,-3.0617,-3.0617,-3.0617,-3.0617,-3.0651,-3.069,-3.0706,-3.0732,-3.0774,-3.08,-3.0799,-3.0789,-3.08,-3.0801,-3.0801,-3.08,-3.08,-3.08,-3.08,-3.08,-3.08,-3.08,-3.08,-3.08,-3.08,-3.08,-3.08,-3.08,-3.08,-3.08,-3.08,-3.08,-3.08,-3.08,-3.08,-3.08,-3.08,-3.08,-3.08,-3.08,-3.08,-3.08,-3.08,-3.08,-3.08,-3.08,-3.08,-3.08,-3.08,-3.08,-3.08,-3.08,-3.08,-3.08,-3.08,-3.08,-3.08,-3.08,-3.08,-3.08,-3.08,-3.08,-3.08,-3.08,-3.08,-2.8164,-2.8414,-2.851,-2.8417,-2.8111,-2.7025,-2.6283,-2.5679,-2.4701,-2.4319,-2.4787,-2.5488,-2.5932,-2.6319,-2.7342,-2.797,-2.8413,-2.9213,-2.9683,-2.9929,-3.0038,-3.015,-3.0197,-3.0204,-3.0204,-3.0211,-3.0218,-3.0187,-3.0174,-3.0215,-3.0235,-3.0189,-3.0102,-3.0102,-3.0169,-3.0311,-3.0404,-3.0404,-3.0404,-3.039,-3.0402,-3.0417,-3.0444,-3.0495,-3.052,-3.0535,-3.0593,-3.0617,-3.0617,-3.0617,-3.0617,-3.0617,-3.0617,-3.0612,-3.0645,-3.0681,-3.0708,-3.0721,-3.0776,-3.082,-3.0834,-3.0845,-3.0843,-3.0823,-3.0823,-3.0801,-3.08,-3.08,-3.08,-3.08,-3.0801,-3.08,-3.08,-3.08,-3.08,-3.08,-3.08,-3.08,-3.08,-3.08,-3.08,-3.08,-3.08,-3.08,-3.0839,-3.082,-3.08,-3.08,-3.08,-3.08,-3.08,-3.08,-3.08,-3.08,-3.08,-3.08,-3.08,-3.08,-3.08,-3.08,-3.08,-3.08,-3.08,-3.08,-3.08,-3.08,-3.08,-3.08,-3.08,-3.08,-3.08,-3.08,-3.08,-3.08,-3.08,-2.7689,-2.8456,-2.8538,-2.8111,-2.7459,-2.7369,-2.6493,-2.5353,-2.4972,-2.4608,-2.4322,-2.4863,-2.5291,-2.5873,-2.7128,-2.7895,-2.838,-2.9391,-3.0046,-3.0068,-3.0121,-3.0178,-3.0204,-3.0204,-3.0211,-3.0218,-3.0213,-3.0207,-3.0221,-3.026,-3.0298,-3.0329,-3.0279,-3.0305,-3.0392,-3.0398,-3.0404,-3.0404,-3.041,-3.0408,-3.0417,-3.0469,-3.049,-3.051,-3.0554,-3.0593,-3.0593,-3.0617,-3.0617,-3.0617,-3.0617,-3.0617,-3.0617,-3.0607,-3.0641,-3.0689,-3.0698,-3.0744,-3.08,-3.0854,-3.0889,-3.0889,-3.0888,-3.0888,-3.0887,-3.0845,-3.0803,-3.0823,-3.0823,-3.0822,-3.0801,-3.0801,-3.0801,-3.0801,-3.0801,-3.08,-3.08,-3.08,-3.08,-3.08,-3.08,-3.08,-3.08,-3.08,-3.0859,-3.0859,-3.08,-3.08,-3.086,-3.08,-3.08,-3.08,-3.08,-3.08,-3.08,-3.08,-3.08,-3.08,-3.08,-3.08,-3.08,-3.08,-3.08,-3.08,-3.08,-3.08,-3.08,-3.08,-3.08,-3.08,-3.08,-3.08,-3.08,-3.08,-3.08,-2.6915,-2.7693,-2.7779,-2.7333,-2.6675,-2.659,-2.6258,-2.574,-2.5237,-2.4655,-2.4333,-2.485,-2.498,-2.5458,-2.6577,-2.7591,-2.7926,-2.9428,-3.0083,-3.0113,-3.0164,-3.0197,-3.0204,-3.0211,-3.0218,-3.0213,-3.0214,-3.0228,-3.0254,-3.0304,-3.0336,-3.0373,-3.0379,-3.0404,-3.039,-3.0402,-3.04,-3.0419,-3.0436,-3.0458,-3.0449,-3.0471,-3.0491,-3.0501,-3.0564,-3.0617,-3.0617,-3.0617,-3.0617,-3.0617,-3.0617,-3.0617,-3.0602,-3.0616,-3.0642,-3.0703,-3.0732,-3.0793,-3.0839,-3.0892,-3.0914,-3.0913,-3.0912,-3.0911,-3.0908,-3.089,-3.0869,-3.0867,-3.0868,-3.0869,-3.0852,-3.0867,-3.0866,-3.0864,-3.0844,-3.0801,-3.08,-3.08,-3.08,-3.08,-3.08,-3.086,-3.0899,-3.133,-3.1447,-3.1428,-3.1448,-3.1154,-3.1095,-3.0899,-3.082,-3.08,-3.08,-3.08,-3.0821,-3.1058,-3.1059,-3.102,-3.092,-3.08,-3.08,-3.0801,-3.08,-3.08,-3.08,-3.08,-3.0801,-3.0822,-3.0801,-3.08,-3.0801,-3.0801,-3.08,-3.08,-3.08,-2.6543,-2.7284,-2.7067,-2.6693,-2.6294,-2.6493,-2.6383,-2.5804,-2.5055,-2.4516,-2.4441,-2.482,-2.4902,-2.5184,-2.6274,-2.7245,-2.7505,-2.9205,-3.0098,-3.0109,-3.0171,-3.0204,-3.0211,-3.0218,-3.0213,-3.0214,-3.0228,-3.0248,-3.0279,-3.0316,-3.0348,-3.0379,-3.0404,-3.039,-3.0402,-3.0406,-3.0392,-3.0417,-3.0439,-3.0485,-3.0476,-3.0486,-3.052,-3.053,-3.0569,-3.0617,-3.0617,-3.0617,-3.0617,-3.0617,-3.0617,-3.0617,-3.0612,-3.0619,-3.0637,-3.0689,-3.0781,-3.0839,-3.0877,-3.0895,-3.0916,-3.0916,-3.0916,-3.0914,-3.0912,-3.0913,-3.0912,-3.0912,-3.0933,-3.0914,-3.0894,-3.0911,-3.0929,-3.0908,-3.0945,-3.0902,-3.0979,-3.0981,-3.0979,-3.096,-3.1,-3.1038,-3.1292,-3.1761,-3.2192,-3.2153,-3.2115,-3.1841,-3.1586,-3.1371,-3.1351,-3.1451,-3.1451,-3.1551,-3.1571,-3.1571,-3.1493,-3.1276,-3.1119,-3.0961,-3.0822,-3.0823,-3.0803,-3.08,-3.0801,-3.0822,-3.0844,-3.0844,-3.0844,-3.0823,-3.0822,-3.0801,-3.0801,-3.0801,-3.0801,-2.6507,-2.714,-2.6493,-2.6168,-2.6258,-2.6789,-2.6438,-2.5269,-2.4491,-2.4367,-2.4762,-2.4662,-2.4936,-2.5456,-2.6688,-2.7426,-2.7884,-2.9405,-2.9904,-3.0116,-3.0171,-3.0204,-3.0218,-3.0213,-3.0226,-3.0241,-3.0254,-3.0273,-3.031,-3.0348,-3.0379,-3.0404,-3.039,-3.0402,-3.0406,-3.0422,-3.0409,-3.0425,-3.0465,-3.0505,-3.052,-3.0501,-3.0554,-3.0564,-3.0593,-3.0617,-3.0617,-3.0617,-3.0617,-3.0617,-3.0617,-3.0617,-3.0617,-3.0602,-3.0644,-3.0717,-3.0837,-3.0879,-3.0916,-3.0955,-3.1132,-3.1211,-3.123,-3.1053,-3.0994,-3.1052,-3.1012,-3.1032,-3.1071,-3.0973,-3.0914,-3.0933,-3.0971,-3.1009,-3.1085,-3.1142,-3.1259,-3.1277,-3.1276,-3.1297,-3.1356,-3.1552,-3.2118,-3.2586,-3.2958,-3.3193,-3.3272,-3.3449,-3.3097,-3.2333,-3.2373,-3.265,-3.2631,-3.2554,-3.2495,-3.2337,-3.2259,-3.2141,-3.1475,-3.1221,-3.1063,-3.0905,-3.0847,-3.0826,-3.0823,-3.0844,-3.0848,-3.0889,-3.0908,-3.0887,-3.0847,-3.0844,-3.0844,-3.0843,-3.0843,-2.4946,-2.5642,-2.5443,-2.5353,-2.5393,-2.5743,-2.5649,-2.5224,-2.4474,-2.4597,-2.5552,-2.5533,-2.5933,-2.6852,-2.7865,-2.8289,-2.8839,-2.9465,-2.9971,-3.0164,-3.0204,-3.0204,-3.0218,-3.0219,-3.0246,-3.026,-3.0286,-3.0316,-3.0354,-3.0404,-3.0404,-3.0404,-3.0402,-3.04,-3.0428,-3.0449,-3.0485,-3.0539,-3.0598,-3.055,-3.0579,-3.0564,-3.0588,-3.0593,-3.0617,-3.0636,-3.0694,-3.0733,-3.0733,-3.0714,-3.0636,-3.0617,-3.0617,-3.0615,-3.0632,-3.0758,-3.0857,-3.0916,-3.1014,-3.1464,-3.1797,-3.1934,-3.2226,-3.2187,-3.1874,-3.1483,-3.1366,-3.1503,-3.1445,-3.1406,-3.1387,-3.1366,-3.1521,-3.1695,-3.1792,-3.1908,-3.2045,-3.22,-3.2199,-3.222,-3.226,-3.2552,-3.3099,-3.3334,-3.3705,-3.4095,-3.4408,-3.4625,-3.4429,-3.3608,-3.3413,-3.3708,-3.3533,-3.3376,-3.3278,-3.3141,-3.3082,-3.2906,-3.2163,-3.1537,-3.142,-3.1224,-3.0969,-3.0851,-3.087,-3.0871,-3.0873,-3.0892,-3.0912,-3.0913,-3.0892,-3.0889,-3.0887,-3.0866,-3.0866,-2.4552,-2.4936,-2.4628,-2.4726,-2.5079,-2.4999,-2.529,-2.5745,-2.5153,-2.5346,-2.6065,-2.6431,-2.696,-2.7521,-2.8325,-2.881,-2.892,-2.9684,-3.0164,-3.0197,-3.0225,-3.0206,-3.0213,-3.0234,-3.0267,-3.0299,-3.0323,-3.0348,-3.0379,-3.0404,-3.0385,-3.0389,-3.0386,-3.0409,-3.0449,-3.0514,-3.0747,-3.0801,-3.082,-3.0675,-3.0656,-3.0675,-3.0617,-3.0675,-3.0675,-3.0791,-3.1081,-3.1159,-3.1357,-3.141,-3.1391,-3.1081,-3.0993,-3.0882,-3.07,-3.0795,-3.0857,-3.1152,-3.1464,-3.1855,-3.2285,-3.2695,-3.3144,-3.3242,-3.3027,-3.2676,-3.2539,-3.248,-3.2187,-3.1973,-3.1934,-3.1953,-3.2265,-3.2577,-3.2693,-3.2829,-3.3043,-3.3277,-3.3336,-3.3356,-3.3532,-3.3766,-3.4039,-3.4216,-3.4509,-3.4978,-3.5232,-3.535,-3.5135,-3.451,-3.449,-3.4784,-3.4433,-3.4081,-3.4043,-3.3984,-3.3769,-3.3379,-3.2459,-3.195,-3.1794,-3.1403,-3.0991,-3.0894,-3.0914,-3.0895,-3.0895,-3.0895,-3.0915,-3.0915,-3.0915,-3.0913,-3.0892,-3.0892,-3.0911,-2.4882,-2.4809,-2.4124,-2.4379,-2.509,-2.4773,-2.5497,-2.6896,-2.6376,-2.6288,-2.67,-2.7298,-2.7737,-2.8256,-2.8881,-2.9143,-2.9374,-2.9911,-3.0199,-3.0218,-3.0226,-3.024,-3.026,-3.0267,-3.0286,-3.031,-3.0348,-3.0379,-3.0398,-3.039,-3.0389,-3.0398,-3.0409,-3.0449,-3.0481,-3.0747,-3.1057,-3.14,-3.1347,-3.1217,-3.1043,-3.0868,-3.0714,-3.0907,-3.1004,-3.1139,-3.1802,-3.2251,-3.2629,-3.2663,-3.2488,-3.1979,-3.1763,-3.153,-3.1256,-3.1227,-3.1463,-3.1641,-3.2109,-3.2539,-3.2949,-3.3281,-3.3574,-3.4121,-3.416,-3.3418,-3.3105,-3.3281,-3.3066,-3.2793,-3.2695,-3.2734,-3.2968,-3.33,-3.3534,-3.3808,-3.414,-3.4295,-3.4315,-3.4374,-3.4549,-3.4784,-3.4862,-3.5038,-3.5155,-3.5741,-3.5878,-3.5918,-3.5703,-3.5176,-3.5273,-3.5566,-3.5254,-3.4922,-3.5098,-3.4961,-3.4473,-3.3867,-3.2969,-3.2402,-3.2265,-3.1658,-3.0953,-3.0916,-3.0917,-3.0917,-3.0917,-3.0918,-3.0918,-3.0917,-3.0916,-3.0916,-3.0918,-3.0918,-3.0914,-2.4085,-2.4088,-2.4042,-2.4265,-2.4689,-2.529,-2.589,-2.6604,-2.7699,-2.807,-2.8229,-2.8477,-2.8886,-2.9358,-2.9584,-2.9784,-2.9919,-3.0002,-3.0202,-3.0272,-3.0273,-3.0273,-3.0279,-3.0286,-3.031,-3.0316,-3.0348,-3.039,-3.039,-3.0389,-3.0406,-3.0442,-3.0521,-3.064,-3.0805,-3.1173,-3.169,-3.2126,-3.2198,-3.2314,-3.2488,-3.1985,-3.1715,-3.2029,-3.2247,-3.2198,-3.2764,-3.3374,-3.3328,-3.3184,-3.309,-3.2956,-3.2925,-3.2762,-3.2745,-3.2778,-3.2598,-3.2598,-3.2812,-3.332,-3.3887,-3.4297,-3.4707,-3.5254,-3.5137,-3.4062,-3.3652,-3.3945,-3.4004,-3.3711,-3.3555,-3.3613,-3.3711,-3.4082,-3.4394,-3.4785,-3.5176,-3.5195,-3.5234,-3.5351,-3.5508,-3.5586,-3.5644,-3.5762,-3.5937,-3.5996,-3.5976,-3.5996,-3.5976,-3.5684,-3.5625,-3.582,-3.5859,-3.5762,-3.5898,-3.5723,-3.5137,-3.4629,-3.3867,-3.3301,-3.2715,-3.1758,-3.0918,-3.0918,-3.0918,-3.0918,-3.0918,-3.0918,-3.0918,-3.0918,-3.0918,-3.0918,-3.0918,-3.0918,-3.0918,-2.3795,-2.3837,-2.4117,-2.4293,-2.4581,-2.5592,-2.6363,-2.7018,-2.8284,-2.9033,-2.9364,-2.9458,-2.9715,-3.0111,-3.0192,-3.0213,-3.0214,-3.0234,-3.0266,-3.0305,-3.0305,-3.0292,-3.0311,-3.0323,-3.0342,-3.0348,-3.0371,-3.0389,-3.0471,-3.048,-3.0521,-3.0918,-3.107,-3.1259,-3.1554,-3.2154,-3.257,-3.2977,-3.3146,-3.3494,-3.3822,-3.3242,-3.2643,-3.2924,-3.2977,-3.3088,-3.3798,-3.4416,-3.4575,-3.4293,-3.4127,-3.3572,-3.3405,-3.3233,-3.3307,-3.3315,-3.3281,-3.3398,-3.3633,-3.4101,-3.4824,-3.5176,-3.543,-3.582,-3.584,-3.4922,-3.4883,-3.5137,-3.5117,-3.4883,-3.4883,-3.4922,-3.4961,-3.5176,-3.5273,-3.5469,-3.5644,-3.5684,-3.5684,-3.5723,-3.582,-3.582,-3.5859,-3.5879,-3.6016,-3.6016,-3.6016,-3.6016,-3.6016,-3.6016,-3.6016,-3.6016,-3.6016,-3.6016,-3.5976,-3.5859,-3.5586,-3.5117,-3.4609,-3.3672,-3.2734,-3.168,-3.0918,-3.1016,-3.1016,-3.0918,-3.0918,-3.0918,-3.0918,-3.0918,-3.0918,-3.0918,-3.0918,-3.0918,-3.0918,-2.3795,-2.3858,-2.4238,-2.45,-2.4754,-2.594,-2.6937,-2.7756,-2.867,-2.9441,-2.9994,-3.0052,-3.0138,-3.0185,-3.0213,-3.0207,-3.0234,-3.0267,-3.0299,-3.0337,-3.0336,-3.0323,-3.0336,-3.0367,-3.0379,-3.0377,-3.04,-3.0565,-3.075,-3.0841,-3.1176,-3.18,-3.212,-3.2338,-3.2908,-3.33,-3.3518,-3.3828,-3.4098,-3.4447,-3.4408,-3.4214,-3.3713,-3.3464,-3.3544,-3.395,-3.473,-3.5305,-3.5751,-3.5541,-3.5082,-3.4637,-3.4258,-3.4131,-3.4057,-3.4082,-3.4141,-3.4297,-3.4492,-3.4805,-3.5351,-3.5742,-3.5937,-3.5996,-3.5996,-3.5957,-3.5918,-3.5898,-3.5879,-3.5879,-3.5859,-3.5859,-3.5898,-3.5918,-3.5918,-3.5937,-3.5976,-3.6016,-3.6016,-3.6016,-3.6016,-3.6016,-3.6016,-3.6016,-3.6016,-3.6016,-3.6016,-3.6016,-3.6016,-3.6016,-3.6016,-3.6016,-3.6016,-3.6016,-3.6016,-3.5937,-3.5781,-3.543,-3.4824,-3.3809,-3.2891,-3.2266,-3.1699,-3.125,-3.123,-3.123,-3.1016,-3.0918,-3.0918,-3.0937,-3.0918,-3.0918,-3.0918,-3.0918,-3.0918,-2.3795,-2.3855,-2.4284,-2.483,-2.5578,-2.6805,-2.783,-2.8677,-2.9472,-3.0009,-3.0133,-3.0178,-3.0185,-3.0211,-3.0219,-3.0227,-3.0267,-3.0318,-3.0349,-3.0386,-3.0367,-3.0373,-3.0379,-3.0396,-3.0402,-3.0439,-3.0557,-3.0857,-3.1226,-3.1471,-3.1969,-3.2791,-3.2845,-3.3005,-3.3179,-3.3673,-3.4253,-3.4549,-3.4935,-3.5278,-3.5123,-3.4951,-3.4822,-3.4885,-3.5288,-3.5392,-3.5634,-3.5823,-3.5901,-3.5843,-3.5742,-3.5508,-3.5332,-3.5176,-3.5156,-3.5059,-3.5098,-3.5215,-3.543,-3.5488,-3.5879,-3.5898,-3.6016,-3.6016,-3.5996,-3.5996,-3.5976,-3.5976,-3.5957,-3.5957,-3.5957,-3.5957,-3.5976,-3.5976,-3.5976,-3.5976,-3.5996,-3.6016,-3.6016,-3.6016,-3.6016,-3.6016,-3.6016,-3.6016,-3.6016,-3.6016,-3.6016,-3.6016,-3.6016,-3.6016,-3.6016,-3.6016,-3.6016,-3.6016,-3.6016,-3.6016,-3.5859,-3.5547,-3.5117,-3.4219,-3.3594,-3.3301,-3.2773,-3.2129,-3.1816,-3.1777,-3.1504,-3.1191,-3.0976,-3.0976,-3.0937,-3.0918,-3.0918,-3.0918,-3.0918]},{"header":{"parameterUnit":"m.s-1","parameterCategory":1,"la1":31.0,"la2":29.5877,"lo1":-88.7671,"lo2":-86.6584,"dy":0.0162,"dx":0.0185,"nx":115,"ny":88,"refTime":"2025-02-25T06:00:00:Z","depth":0,"parameterNumber":3,"parameterNumberName":"V-component_of_WINDS"},"data":[0.0,0.0,0.0,0.0,0.0,0.0,0.0,0.0,0.0,0.0,0.0,0.0,0.0,0.0,0.0,0.0,0.0,0.0,0.0,0.0,0.0,0.0,0.0,0.0,0.0,0.0,0.0,0.0,0.0,0.0,0.0,0.0,0.0,0.0,0.0,0.0,0.0,0.0,0.0,0.0,0.0,0.0,0.0,0.0,0.0,0.0,0.0,0.0,0.0,0.0,0.0,0.0,0.0,0.0,0.0,0.0,0.0,0.0,0.0,0.0,0.0,0.0,0.0,0.0,0.0,0.0,0.0,0.0,0.0,0.0,0.0,0.0,0.0,0.0,0.0,0.0,0.0,0.0,0.0,0.0,0.0,0.0,0.0,0.0,0.0,0.0,0.0,0.0,0.0,0.0,0.0,0.0,0.0,0.0,0.0,0.0,0.0,0.0,0.0,0.0,0.0,0.0,0.0,0.0,0.0,0.0,0.0,0.0,0.0,0.0,0.0,0.0,0.0,0.0,0.0,0.0,0.0,0.0,0.0,0.0,0.0,0.0,0.0,0.0,0.0,0.0,0.0,0.0,0.0,0.0,0.0,0.0,0.0,0.0,0.0,0.0,0.0,0.0,0.0,0.0,0.0,0.0,0.0,0.0,0.0,0.0,0.0,0.0,0.0,0.0,0.0,0.0,0.0,0.0,0.0,0.0,0.0,0.0,0.0,0.0,0.0,0.0,0.0,0.0,0.0,0.0,0.0,0.0,0.0,0.0,0.0,0.0,0.0,0.0,0.0,0.0,0.0,0.0,0.0,0.0,0.0,0.0,0.0,0.0,0.0,0.0,0.0,0.0,0.0,0.0,0.0,0.0,0.0,0.0,0.0,0.0,0.0,0.0,0.0,0.0,0.0,0.0,0.0,0.0,0.0,0.0,0.0,0.0,0.0,0.0,0.0,0.0,0.0,0.0,0.0,0.0,0.0,0.0,0.0,0.0,0.0,0.0,0.0,0.0,0.0,0.0,0.0,0.0,0.0,0.0,0.0,0.0,0.0,0.0,0.0,0.0,0.0,0.0,0.0,0.0,0.0,0.0,0.0,0.0,0.0,0.0,0.0,0.0,0.0,0.0,0.0,0.0,0.0,0.0,0.0,0.0,0.0,0.0,0.0,0.0,0.0,0.0,0.0,0.0,0.0,0.0,0.0,0.0,0.0,0.0,0.0,0.0,0.0,0.0,0.0,0.0,0.0,0.0,0.0,0.0,0.0,0.0,0.0,0.0,0.0,0.0,0.0,0.0,0.0,0.0,0.0,0.0,0.0,0.0,0.0,0.0,0.0,0.0,0.0,0.0,0.0,0.0,0.0,0.0,0.0,0.0,0.0,0.0,0.0,0.0,0.0,0.0,0.0,0.0,0.0,0.0,0.0,0.0,0.0,0.0,0.0,0.0,0.0,0.0,0.0,0.0,0.0,0.0,0.0,0.0,0.0,0.0,0.0,0.0,0.0,0.0,0.0,0.0,0.0,0.0,0.0,0.0,0.0,0.0,0.0,0.0,0.0,0.0,0.0,0.0,0.0,0.0,0.0,0.0,0.0,0.0,0.0,0.0,0.0,0.0,0.0,0.0,0.0,0.0,0.0,0.0,0.0,0.0,0.0,0.0,0.0,0.0,0.0,0.0,0.0,0.0,0.0,0.0,0.0,0.0,0.0,0.0,0.0,0.0,0.0,0.0,0.0,0.0,0.0,0.0,0.0,0.0,0.0,0.0,0.0,0.0,0.0,0.0,0.0,0.0,0.0,0.0,0.0,0.0,0.0,0.0,0.0,0.0,0.0,0.0,0.0,0.0,0.0,0.0,0.0,0.0,0.0,0.0,0.0,0.0,0.0,0.0,0.0,0.0,0.0,0.0,0.0,0.0,0.0,0.0,0.0,0.0,0.0,0.0,0.0,0.0,0.0,0.0,0.0,0.0,0.0,0.0,0.0,0.0,0.0,0.0,0.0,0.0,0.0,0.0,0.0,0.0,0.0,0.0,0.0,0.0,0.0,0.0,0.0,0.0,0.0,0.0,0.0,0.0,0.0,0.0,0.0,0.0,0.0,0.0,0.0,0.0,0.0,0.0,0.0,0.0,0.0,0.0,0.0,0.0,0.0,0.0,0.0,0.0,0.0,0.0,0.0,0.0,0.0,0.0,0.0,0.0,0.0,0.0,0.0,0.0,0.0,0.0,0.0,0.0,0.0,0.0,0.0,0.0,0.0,0.0,0.0,0.0,0.0,0.0,0.0,0.0,0.0,0.0,0.0,0.0,0.0,0.0,0.0,0.0,0.0,0.0,0.0,0.0,0.0,0.0,0.0,0.0,0.0,0.0,0.0,0.0,0.0,0.0,0.0,0.0,0.0,0.0,0.0,0.0,0.0,0.0,0.0,0.0,0.0,0.0,0.0,0.0,0.0,0.0,0.0,0.0,0.0,0.0,0.0,0.0,0.0,0.0,0.0,0.0,0.0,0.0,0.0,0.0,0.0,0.0,0.0,0.0,0.0,0.0,0.0,0.0,0.0,0.0,0.0,0.0,0.0,0.0,0.0,0.0,0.0,0.0,0.0,0.0,0.0,0.0,0.0,0.0,0.0,0.0,0.0,0.0,0.0,0.0,0.0,0.0,0.0,0.0,0.0,0.0,0.0,0.0,0.0,0.0,0.0,0.0,0.0,0.0,0.0,0.0,0.0,0.0,0.0,0.0,0.0,0.0,0.0,0.0,0.0,0.0,0.0,0.0,0.0,0.0,0.0,0.0,0.0,0.0,0.0,0.0,0.0,0.0,0.0,0.0,0.0,0.0,0.0,0.0,0.0,0.0,0.0,0.0,0.0,0.0,0.0,0.0,0.0,0.0,0.0,0.0,0.0,0.0,0.0,0.0,0.0,0.0,0.0,0.0,0.0,0.0,0.0,0.0,0.0,0.0,0.0,0.0,0.0,0.0,0.0,0.0,0.0,0.0,0.0,0.0,0.0,0.0,0.0,0.0,0.0,0.0,0.0,0.0,0.0,0.0,0.0,0.0,0.0,0.0,0.0,0.0,0.0,0.0,0.0,0.0,0.0,0.0,0.0,0.0,0.0,0.0,0.0,0.0,0.0,0.0,0.0,0.0,0.0,0.0,0.0,0.0,0.0,0.0,0.0,0.0,0.0,0.0,0.0,0.0,0.0,0.0,0.0,0.0,0.0,0.0,0.0,0.0,0.0,0.0,0.0,0.0,0.0,0.0,0.0,0.0,0.0,0.0,0.0,0.0,0.0,0.0,0.0,0.0,0.0,0.0,0.0,0.0,0.0,0.0,0.0,0.0,0.0,0.0,0.0,0.0,0.0,0.0,0.0,0.0,0.0,0.0,0.0,0.0,0.0,0.0,0.0,0.0,0.0,0.0,0.0,0.0,0.0,0.0,0.0,0.0,0.0,0.0,0.0,0.0,0.0,0.0,0.0,0.0,0.0,0.0,0.0,0.0,0.0,0.0,0.0,0.0,0.0,0.0,0.0,0.0,0.0,0.0,0.0,0.0,0.0,0.0,0.0,0.0,0.0,0.0,0.0,0.0,0.0,0.0,0.0,0.0,0.0,0.0,0.0,0.0,0.0,0.0,0.0,0.0,0.0,0.0,0.0,0.0,0.0,0.0,0.0,0.0,0.0,0.0,0.0,0.0,0.0,0.0,0.0,0.0,0.0,0.0,0.0,0.0,0.0,0.0,0.0,0.0,0.0,0.0,0.0,0.0,0.0,0.0,0.0,0.0,0.0,0.0,0.0,0.0,0.0,0.0,0.0,0.0,0.0,0.0,0.0,0.0,0.0,0.0,0.0,0.0,0.0,0.0,0.0,0.0,0.0,0.0,0.0,0.0,0.0,0.0,0.0,0.0,0.0,0.0,0.0,0.0,0.0,0.0,0.0,0.0,0.0,0.0,0.0,0.0,0.0,0.0,0.0,0.0,0.0,0.0,0.0,0.0,0.0,0.0,0.0,0.0,0.0,0.0,0.0,0.0,0.0,0.0,0.0,0.0,0.0,0.0,0.0,0.0,0.0,0.0,0.0,0.0,0.0,0.0,0.0,0.0,0.0,0.0,0.0,0.0,0.0,0.0,0.0,0.0,0.0,0.0,0.0,0.0,0.0,0.0,0.0,0.0,0.0,0.0,0.0,0.0,0.0,0.0,0.0,0.0,0.0,0.0,0.0,0.0,0.0,0.0,0.0,0.0,0.0,0.0,0.0,0.0,0.0,0.0,0.0,0.0,0.0,0.0,0.0,0.0,-0.0495,0.0,0.0,0.0,0.0,0.0,0.0,0.0,0.0,0.0,0.0,0.0,0.0,0.0,0.0,0.0,0.0,0.0,0.0,0.0,0.0,0.0,0.0,0.0,0.0,0.0,0.0,0.0,0.0,0.0,0.0,0.0,0.0,0.0,0.0,0.0,0.0,0.0,0.0,0.0,0.0,0.0,0.0,0.0,0.0,0.0,0.0,0.0,0.0,0.0,0.0,0.0,0.0,0.0,0.0,0.0,0.0,0.0,0.0,0.0,0.0,0.0,0.0,0.0,0.0,0.0,0.0,0.0,0.0,0.0,0.0,0.0,0.0,0.0,0.0,0.0,0.0,0.0,0.0,0.0,0.0,0.0,0.0,0.0,0.0,0.0,0.0,0.0,0.0,0.0,0.0,0.0,0.0,0.0,0.0,0.0,0.0,0.0,0.0,0.0,0.0,0.0,0.0,0.0,0.0,0.0,0.0,0.0,0.0,0.0,0.0,-0.0202,-0.0303,-0.037,-0.0442,-0.0495,0.0,0.0,0.0,0.0,0.0,0.0,0.0,0.0,0.0,0.0,0.0,0.0,0.0,0.0,0.0,0.0,0.0,0.0,0.0,0.0,0.0,0.0,0.0,0.0,0.0,0.0,0.0,0.0,0.0,0.0,0.0,0.0,0.0,0.0,0.0,0.0,0.0,0.0,0.0,0.0,0.0,0.0,0.0,0.0,0.0,0.0,0.0,0.0,0.0,0.0,0.0,0.0,0.0,0.0,0.0,0.0,0.0,0.0,0.0,0.0,0.0,0.0,0.0,0.0,0.0,0.0,0.0,0.0,0.0,0.0,0.0,0.0,0.0,0.0,0.0,0.0,0.0,0.0,0.0,0.0,0.0,0.0,0.0,0.0,0.0,0.0,0.0,0.0,0.0,0.0,0.0,0.0,0.0,0.0,0.0,0.0,0.0,0.0,0.0,0.0,0.0,0.0,0.0,0.0,0.0,0.0,0.0,0.0,0.0,0.0,0.0,0.0,-0.0411,-0.0487,-0.0515,0.0,0.0,0.0,0.0,0.0,0.0,0.0,0.0,0.0,0.0,0.0,0.0,0.0,0.0,0.0,0.0,0.0,0.0,0.0,0.0,0.0,0.0,0.0,0.0,0.0,0.0,0.0,0.0,0.0,0.0,0.0,0.0,0.0,0.0,0.0,0.0,0.0,0.0,0.0,0.0,0.0,0.0,0.0,0.0,0.0,0.0,0.0,0.0,0.0,0.0,0.0,0.0,0.0,0.0,0.0,0.0,0.0,0.0,0.0,0.0,0.0,0.0,0.0,0.0,0.0,0.0,0.0,0.0,0.0,0.0,0.0,0.0,0.0,0.0,0.0,0.0,0.0,0.0,0.0,0.0,0.0,0.0,0.0,0.0,0.0,0.0,0.0,0.0,0.0,0.0,0.0,0.0,0.0,0.0,0.0,0.0,0.0,0.0,0.0,0.0,0.0,0.0,0.0,0.0,0.0,0.0,0.0,0.0,0.0,0.0,-0.0172,-0.0307,-0.0362,0.0,-0.0577,0.0,0.0,0.0,0.0,0.0,0.0,0.0,0.0,0.0,0.0,0.0,0.0,0.0,0.0,0.0,0.0,0.0,0.0,0.0,0.0,0.0,0.0,0.0,0.0,0.0,0.0,0.0,0.0,0.0,0.0,0.0,0.0,0.0,0.0,0.0,0.0,0.0,0.0,0.0,0.0,0.0,0.0,0.0,0.0,0.0,0.0,0.0,0.0,0.0,0.0,0.0,0.0,0.0,0.0,0.0,0.0,0.0,0.0,0.0,0.0,0.0,0.0,0.0,0.0,0.0,0.0,0.0,0.0,0.0,0.0,0.0,0.0,0.0,0.0,0.0,0.0,0.0,0.0,0.0,0.0,0.0,0.0,0.0,0.0,0.0,0.0,0.0,0.0,0.0,0.0,0.0,0.0,0.0,0.0,0.0,0.0,0.0,0.0,0.0,0.0,0.0,0.0,0.0,0.0,0.0,0.0,0.0,0.0,0.0,0.0,-0.0232,-0.031,-0.0437,-0.0521,0.0,0.0,0.0,0.0,0.0,0.0,0.0,0.0,0.0,0.0,0.0,0.0,0.0,0.0,0.0,0.0,0.0,0.0,0.0,0.0,0.0,0.0,0.0,0.0,0.0,0.0,0.0,0.0,0.0,0.0,0.0,0.0,0.0,0.0,0.0,0.0,0.0,0.0,0.0,0.0,0.0,0.0,0.0,0.0,0.0,0.0,0.0,0.0,0.0,0.0,0.0,0.0,0.0,0.0,0.0,0.0,0.0,0.0,0.0,0.0,0.0,0.0,0.0,0.0,0.0,0.0,0.0,0.0,0.0,0.0,0.0,0.0,0.0,0.0,0.0,0.0,0.0,0.0,0.0,0.0,0.0,0.0,0.0,0.0,0.0,0.0,0.0,0.0,0.0,0.0,0.0,0.0,0.0,0.0,0.0,0.0,0.0,0.0,0.0,0.0,0.0,0.0,0.0,0.0,0.0,0.0,0.0,0.0,0.0,0.0,-0.0198,-0.033,-0.0372,-0.054,-0.0578,-0.0489,0.0,0.0,0.0,0.0,0.0,0.0,0.0,0.0,0.0,0.0,0.0,0.0,0.0,0.0,0.0,0.0,0.0,0.0,0.0,0.0,0.0,0.0,0.0,0.0,0.0,0.0,0.0,0.0,0.0,0.0,0.0,0.0,0.0,0.0,0.0,0.0,0.0,0.0,0.0,0.0,0.0,0.0,0.0,0.0,0.0,0.0,0.0,0.0,0.0,0.0,0.0,0.0,0.0,0.0,0.0,0.0,0.0,0.0,0.0,0.0,0.0,0.0,0.0,0.0,0.0,0.0,0.0,0.0,0.0,0.0,0.0,0.0,0.0,0.0,0.0,0.0,0.0,0.0,0.0,0.0,0.0,0.0,0.0,0.0,0.0,0.0,0.0,0.0,0.0,0.0,0.0,0.0,0.0,0.0,0.0,0.0,0.0,0.0,0.0,0.0,0.0,0.0,0.0,0.0,0.0,0.0,0.0,0.0,0.0,-0.0205,-0.0391,-0.0567,-0.0587,-0.0561,0.0,0.0,0.0,0.0,0.0,0.0,0.0,0.0,0.0,0.0,0.0,0.0,0.0,0.0,0.0,0.0,0.0,0.0,0.0,0.0,0.0,0.0,0.0,0.0,0.0,0.0,0.0,0.0,0.0,0.0,0.0,0.0,0.0,0.0,0.0,0.0,0.0,0.0,0.0,0.0,0.0,0.0,0.0,0.0,0.0,0.0,0.0,0.0,0.0,0.0,0.0,0.0,0.0,0.0,0.0,0.0,0.0,0.0,0.0,0.0,0.0,0.0,0.0,0.0,0.0,0.0,0.0,0.0,0.0,0.0,0.0,0.0,0.0,0.0,0.0,0.0,0.0,0.0,0.0,0.0,0.0,0.0,0.0,0.0,0.0,0.0,0.0,0.0,0.0,0.0,0.0,0.0,0.0,0.0,0.0,0.0,0.0,0.0,0.0,0.0,0.0,0.0,0.0,0.0,0.0,0.0,0.0,0.0,0.0,0.0,-0.0199,-0.038,-0.0531,-0.0545,-0.0525,0.0,0.0,0.0,0.0,0.0,0.0,0.0,0.0,0.0,0.0,0.0,0.0,0.0,0.0,0.0,0.0,0.0,0.0,0.0,0.0,0.0,0.0,0.0,0.0,0.0,0.0,0.0,0.0,0.0,0.0,0.0,0.0,0.0,0.0,0.0,0.0,0.0,0.0,0.0,0.0,0.0,0.0,0.0,0.0,0.0,0.0,0.0,0.0,0.0,0.0,0.0,0.0,0.0,0.0,0.0,0.0,0.0,0.0,0.0,0.0,0.0,0.0,0.0,0.0,0.0,0.0,0.0,0.0,0.0,0.0,0.0,0.0,0.0,0.0,0.0,0.0,0.0,0.0,0.0,0.0,0.0,0.0,0.0,0.0,0.0,0.0,0.0,0.0,0.0,0.0,0.0,0.0,0.0,0.0,0.0,0.0,0.0,0.0,0.0,0.0,0.0,0.0,0.0,0.0,0.0,0.0,0.0,0.0,0.0,-0.0121,0.0,-0.037,-0.0521,-0.053,-0.0518,0.0,0.0,0.0,0.0,0.0,0.0,0.0,0.0,0.0,0.0,0.0,0.0,0.0,0.0,0.0,0.0,0.0,0.0,0.0,0.0,0.0,0.0,0.0,0.0,0.0,0.0,0.0,0.0,0.0,0.0,0.0,0.0,0.0,0.0,0.0,0.0,0.0,0.0,0.0,0.0,0.0,0.0,0.0,0.0,0.0,0.0,0.0,0.0,0.0,0.0,0.0,0.0,0.0,0.0,0.0,0.0,0.0,0.0,0.0,0.0,0.0,0.0,0.0,0.0,0.0,0.0,0.0,0.0,0.0,0.0,0.0,0.0,0.0,0.0,0.0,0.0,0.0,0.0,0.0,0.0,0.0,0.0,0.0,0.0,0.0,0.0,0.0,0.0,0.0,0.0,0.0,0.0,0.0,0.0,0.0,0.0,0.0,0.0,0.0,0.0,0.0,0.0,0.0,0.0,0.0,0.0,0.0,0.0,-0.0139,-0.038,-0.0339,-0.0381,-0.0587,-0.0581,-0.0542,0.0,0.0,0.0,0.0,0.0,0.0,0.0,0.0,0.0,0.0,0.0,0.0,0.0,0.0,0.0,0.0,0.0,0.0,0.0,0.0,0.0,0.0,0.0,0.0,0.0,0.0,0.0,0.0,0.0,0.0,0.0,0.0,0.0,0.0,0.0,0.0,0.0,0.0,0.0,0.0,0.0,0.0,0.0,0.0,0.0,0.0,0.0,0.0,0.0,0.0,0.0,0.0,0.0,0.0,0.0,0.0,0.0,0.0,0.0,0.0,0.0,0.0,0.0,0.0,0.0,0.0,0.0,0.0,0.0,0.0,0.0,0.0,0.0,0.0,0.0,0.0,0.0,0.0,0.0,0.0,0.0,0.0,0.0,0.0,0.0,0.0,0.0,0.0,0.0,0.0,0.0,0.0,0.0,0.0,0.0,0.0,0.0,0.0,0.0,0.0,0.0,0.0,0.0,0.0,0.0,0.0,0.0,0.0,0.0,-0.0207,-0.0314,-0.0421,-0.0516,-0.0484,-0.0463,0.0,0.0,0.0,0.0,0.0,0.0,0.0,0.0,0.0,0.0,0.0,0.0,0.0,0.0,0.0,0.0,0.0,0.0,0.0,0.0,0.0,0.0,0.0,0.0,0.0,0.0,0.0,0.0,0.0,0.0,0.0,0.0,0.0,0.0,0.0,0.0,0.0,0.0,0.0,0.0,0.0,0.0,0.0,0.0,0.0,0.0,0.0,0.0,0.0,0.0,0.0,0.0,0.0,0.0,0.0,0.0,0.0,0.0,0.0,0.0,0.0,0.0,0.0,0.0,0.0,0.0,0.0,0.0,0.0,0.0,0.0,0.0,0.0,0.0,0.0,0.0,0.0,0.0,0.0,0.0,0.0,0.0,0.0,0.0,0.0,0.0,0.0,0.0,0.0,0.0,0.0,0.0,0.0,0.0,0.0,0.0,0.0,0.0,0.0,0.0,0.0,0.0,0.0,0.0,0.0,0.0,0.0,0.0,0.0,-0.0239,-0.0393,-0.0503,-0.0551,-0.0487,-0.0475,-0.0457,0.0,0.0,0.0,0.0,0.0,0.0,0.0,0.0,0.0,0.0,0.0,0.0,0.0,0.0,0.0,0.0,0.0,0.0,0.0,0.0,0.0,0.0,0.0,0.0,0.0,0.0,0.0,0.0,0.0,0.0,0.0,0.0,0.0,0.0,0.0,0.0,0.0,0.0,0.0,0.0,0.0,0.0,0.0,0.0,0.0,0.0,0.0,0.0,0.0,0.0,0.0,0.0,0.0,0.0,0.0,0.0,0.0,0.0,0.0,0.0,0.0,0.0,0.0,0.0,0.0,0.0,0.0,0.0,0.0,0.0,0.0,0.0,0.0,0.0,0.0,0.0,0.0,0.0,0.0,0.0,0.0,0.0,0.0,0.0,0.0,0.0,0.0,0.0,0.0,0.0,0.0,0.0,0.0,0.0,0.0,0.0,0.0,0.0,0.0,0.0,0.0,0.0,0.0,0.0,0.0,0.0,0.0,0.0,-0.0527,-0.0576,-0.0613,-0.0598,-0.0608,-0.0541,0.0,0.0,0.0,0.0,0.0,0.0,0.0,0.0,0.0,0.0,0.0,0.0,0.0,0.0,0.0,0.0,0.0,0.0,0.0,0.0,0.0,0.0,0.0,0.0,0.0,0.0,0.0,0.0,0.0,0.0,0.0,0.0,0.0,0.0,0.0,0.0,0.0,0.0,0.0,0.0,0.0,0.0,0.0,0.0,0.0,0.0,0.0,0.0,0.0,0.0,0.0,0.0,0.0,0.0,0.0,0.0,0.0,0.0,0.0,0.0,0.0,0.0,0.0,0.0,0.0,0.0,0.0,0.0,0.0,0.0,0.0,0.0,0.0,0.0,0.0,0.0,0.0,0.0,0.0,0.0,0.0,0.0,0.0,0.0,0.0,0.0,0.0,0.0,0.0,0.0,0.0,0.0,0.0,0.0,0.0,0.0,0.0,0.0,0.0,0.0,0.0,0.0,0.0,0.0,0.0,0.0,0.0,0.0,0.0,-0.0641,-0.0763,-0.0786,-0.0676,-0.0631,-0.0548,0.0,0.0,0.0,0.0,0.0,0.0,0.0,0.0,0.0,0.0,0.0,0.0,0.0,0.0,0.0,0.0,0.0,0.0,0.0,0.0,0.0,0.0,0.0,0.0,0.0,0.0,0.0,0.0,0.0,0.0,0.0,0.0,0.0,0.0,0.0,0.0,0.0,0.0,0.0,0.0,0.0,0.0,0.0,0.0,0.0,0.0,0.0,0.0,0.0,0.0,0.0,0.0,0.0,0.0,0.0,0.0,0.0,0.0,0.0,0.0,0.0,0.0,0.0,0.0,0.0,0.0,0.0,0.0,0.0,0.0,0.0,0.0,0.0,0.0,0.0,0.0,0.0,0.0,0.0,0.0,0.0,0.0,0.0,0.0,0.0,0.0,0.0,0.0,0.0,0.0,0.0,0.0,0.0,0.0,0.0,0.0,0.0,0.0,0.0,0.0,0.0,0.0,0.0,0.0,0.0,0.0,0.0,0.0,-0.064,-0.0732,-0.0857,-0.086,-0.0734,-0.0693,-0.0634,0.0,0.0,0.0,0.0,0.0,0.0,0.0,0.0,0.0,0.0,0.0,0.0,0.0,0.0,0.0,0.0,0.0,0.0,0.0,0.0,0.0,0.0,0.0,0.0,0.0,0.0,0.0,0.0,0.0,0.0,0.0,0.0,0.0,0.0,0.0,0.0,0.0,0.0,0.0,0.0,0.0,0.0,0.0,0.0,0.0,0.0,0.0,0.0,0.0,0.0,0.0,0.0,0.0,0.0,0.0,0.0,0.0,0.0,0.0,0.0,0.0,0.0,0.0,0.0,0.0,0.0,0.0,0.0,0.0,0.0,0.0,0.0,0.0,0.0,0.0,0.0,0.0,0.0,0.0,0.0,0.0,0.0,0.0,0.0,0.0,0.0,0.0,0.0,0.0,0.0,0.0,0.0,0.0,0.0,0.0,0.0,0.0,0.0,0.0,0.0,0.0,0.0,0.0,0.0,0.0,0.0,0.0,0.0,-0.0742,-0.08,-0.0861,-0.0865,-0.0784,-0.0801,-0.0762,0.0,0.0,0.0,0.0,0.0,0.0,0.0,0.0,0.0,0.0,0.0,0.0,0.0,0.0,0.0,0.0,0.0,0.0,0.0,0.0,0.0,0.0,0.0,0.0,0.0,0.0,0.0,0.0,0.0,0.0,0.0,0.0,0.0,0.0,0.0,0.0,0.0,0.0,0.0,0.0,0.0,0.0,0.0,0.0,0.0,0.0,0.0,0.0,0.0,0.0,0.0,0.0,0.0,0.0,0.0,0.0,0.0,0.0,0.0,0.0,0.0,0.0,0.0,0.0,0.0,0.0,0.0,0.0,0.0,0.0,0.0,0.0,0.0,0.0,0.0,0.0,0.0,0.0,0.0,0.0,0.0,0.0,0.0,0.0,0.0,0.0,0.0,0.0,0.0,0.0,0.0,0.0,0.0,0.0,0.0,0.0,0.0,0.0,0.0,0.0,0.0,0.0,0.0,0.0,0.0,0.0,0.0,0.0,-0.0729,-0.0794,-0.0856,-0.0871,-0.0808,-0.0756,-0.0708,0.0,0.0,0.0,0.0,0.0,0.0,0.0,0.0,0.0,0.0,0.0,0.0,0.0,0.0,0.0,0.0,0.0,0.0,0.0,0.0,0.0,0.0,0.0,0.0,0.0,0.0,0.0,0.0,0.0,0.0,0.0,0.0,0.0,0.0,0.0,0.0,0.0,0.0,0.0,0.0,0.0,0.0,0.0,0.0,0.0,0.0,0.0,0.0,-0.1947,0.0,0.0,0.0,0.0,0.0,0.0,0.0,0.0,0.0,0.0,0.0,0.0,0.0,0.0,0.0,0.0,0.0,0.0,0.0,0.0,0.0,0.0,0.0,0.0,0.0,0.0,0.0,0.0,0.0,0.0,0.0,0.0,0.0,0.0,0.0,0.0,0.0,0.0,0.0,0.0,0.0,0.0,0.0,0.0,0.0,0.0,0.0,0.0,0.0,0.0,0.0,0.0,0.0,0.0,0.0,0.0,0.0,0.0,0.0,-0.0742,-0.0786,-0.0833,-0.0817,-0.0787,-0.0729,-0.0728,0.0,0.0,0.0,0.0,0.0,0.0,0.0,0.0,0.0,0.0,0.0,0.0,0.0,0.0,0.0,0.0,0.0,0.0,0.0,0.0,0.0,0.0,0.0,0.0,0.0,0.0,0.0,0.0,0.0,0.0,0.0,0.0,0.0,0.0,0.0,0.0,0.0,0.0,0.0,0.0,0.0,0.0,0.0,0.0,0.0,0.0,0.0,0.0,0.0,0.0,0.0,0.0,0.0,0.0,0.0,0.0,0.0,0.0,0.0,0.0,0.0,0.0,0.0,0.0,0.0,0.0,0.0,0.0,0.0,0.0,0.0,0.0,0.0,0.0,0.0,0.0,0.0,0.0,0.0,0.0,0.0,0.0,0.0,0.0,0.0,0.0,0.0,0.0,0.0,0.0,0.0,0.0,0.0,0.0,0.0,0.0,0.0,0.0,0.0,0.0,0.0,0.0,0.0,0.0,0.0,0.0,0.0,-0.0589,-0.0699,-0.0787,-0.0788,-0.0789,-0.0789,-0.0723,-0.0724,-0.0813,0.0,0.0,0.0,0.0,0.0,0.0,0.0,0.0,0.0,0.0,0.0,0.0,0.0,0.0,0.0,0.0,0.0,0.0,0.0,0.0,0.0,0.0,0.0,0.0,0.0,0.0,0.0,0.0,0.0,0.0,0.0,0.0,0.0,0.0,0.0,0.0,0.0,0.0,-0.1363,-0.1615,0.0,0.0,0.0,0.0,0.0,0.0,0.0,0.0,-0.1925,0.0,0.0,0.0,0.0,0.0,0.0,0.0,0.0,0.0,0.0,0.0,0.0,0.0,0.0,0.0,0.0,0.0,0.0,0.0,0.0,0.0,0.0,0.0,0.0,0.0,0.0,0.0,0.0,0.0,0.0,0.0,0.0,0.0,0.0,0.0,0.0,0.0,0.0,0.0,0.0,0.0,0.0,0.0,0.0,0.0,0.0,0.0,0.0,0.0,0.0,0.0,0.0,0.0,0.0,0.0,0.0,-0.042,-0.0432,-0.0572,-0.0786,-0.0794,-0.0794,-0.0787,-0.0681,-0.0567,-0.049,0.0,0.0,0.0,0.0,0.0,0.0,0.0,0.0,0.0,0.0,0.0,0.0,0.0,0.0,0.0,0.0,0.0,0.0,0.0,0.0,0.0,0.0,0.0,0.0,0.0,0.0,0.0,0.0,0.0,0.0,0.0,0.0,0.0,0.0,0.0,0.0,0.0,0.0,0.0,-0.1761,-0.185,0.0,0.0,0.0,0.0,0.0,0.0,0.0,0.0,-0.1984,0.0,0.0,0.0,0.0,0.0,0.0,0.0,0.0,0.0,0.0,0.0,0.0,0.0,0.0,0.0,0.0,0.0,0.0,0.0,0.0,0.0,0.0,0.0,0.0,0.0,0.0,0.0,0.0,0.0,0.0,0.0,0.0,0.0,0.0,0.0,0.0,0.0,0.0,0.0,0.0,0.0,0.0,0.0,0.0,0.0,0.0,0.0,0.0,0.0,0.0,0.0,0.0,0.0,0.0,0.0,-0.0325,-0.0459,-0.0582,-0.0738,-0.0764,-0.0757,-0.0762,-0.0644,-0.0486,0.0,0.0,0.0,0.0,0.0,0.0,0.0,0.0,0.0,0.0,0.0,0.0,0.0,0.0,0.0,0.0,0.0,0.0,0.0,0.0,0.0,0.0,0.0,0.0,0.0,0.0,0.0,0.0,0.0,0.0,0.0,0.0,0.0,0.0,0.0,0.0,0.0,0.0,0.0,0.0,-0.2004,-0.2032,-0.2107,0.0,0.0,0.0,0.0,0.0,0.0,-0.2023,-0.1911,0.0,0.0,0.0,0.0,0.0,0.0,0.0,0.0,0.0,0.0,0.0,0.0,0.0,0.0,0.0,0.0,0.0,0.0,0.0,0.0,0.0,0.0,0.0,0.0,0.0,0.0,0.0,0.0,0.0,0.0,0.0,0.0,0.0,0.0,0.0,0.0,0.0,0.0,0.0,0.0,0.0,0.0,0.0,0.0,0.0,0.0,0.0,0.0,0.0,0.0,0.0,0.0,0.0,0.0,0.0,-0.0218,-0.0444,-0.0591,-0.0693,-0.0697,-0.0705,-0.0695,-0.0576,-0.0364,0.0,0.0,0.0,0.0,0.0,0.0,0.0,0.0,0.0,0.0,0.0,0.0,0.0,0.0,0.0,0.0,0.0,0.0,0.0,0.0,0.0,0.0,0.0,0.0,0.0,0.0,0.0,0.0,0.0,0.0,0.0,0.0,0.0,0.0,0.0,0.0,0.0,0.0,0.0,0.0,0.0,-0.2235,-0.2265,-0.2268,0.0,0.0,0.0,0.0,-0.2188,-0.2125,0.0,0.0,0.0,0.0,0.0,0.0,0.0,0.0,0.0,0.0,0.0,0.0,0.0,0.0,0.0,0.0,0.0,0.0,0.0,0.0,0.0,0.0,0.0,0.0,0.0,0.0,0.0,0.0,0.0,0.0,0.0,0.0,0.0,0.0,0.0,0.0,0.0,0.0,0.0,0.0,0.0,0.0,0.0,0.0,0.0,0.0,0.0,0.0,0.0,0.0,0.0,0.0,0.0,0.0,0.0,0.0,-0.0033,-0.0232,-0.0453,-0.0692,-0.0697,-0.0705,-0.0696,-0.0461,-0.0225,0.0,0.0,0.0,0.0,0.0,0.0,0.0,0.0,0.0,0.0,0.0,0.0,0.0,0.0,0.0,0.0,0.0,0.0,0.0,0.0,0.0,0.0,0.0,0.0,0.0,0.0,0.0,0.0,0.0,0.0,0.0,0.0,0.0,0.0,0.0,0.0,0.0,0.0,0.0,0.0,0.0,-0.2332,-0.2453,-0.2458,-0.2452,0.0,0.0,-0.2665,-0.2784,-0.2939,0.0,0.0,0.0,0.0,0.0,0.0,0.0,0.0,0.0,0.0,0.0,0.0,0.0,0.0,0.0,0.0,0.0,0.0,0.0,0.0,0.0,0.0,0.0,0.0,0.0,0.0,0.0,0.0,0.0,0.0,0.0,0.0,0.0,0.0,0.0,0.0,0.0,0.0,0.0,0.0,0.0,0.0,0.0,0.0,0.0,0.0,0.0,0.0,0.0,0.0,0.0,0.0,0.0,0.0,0.0,0.016,-0.0017,-0.0311,-0.0544,-0.0693,-0.0703,-0.0594,-0.0425,-0.0304,-0.0064,0.0,0.0,0.0,0.0,0.0,0.0,0.0,0.0,0.0,0.0,0.0,0.0,0.0,0.0,0.0,0.0,0.0,0.0,0.0,0.0,0.0,0.0,0.0,0.0,0.0,0.0,0.0,0.0,0.0,0.0,0.0,0.0,0.0,0.0,0.0,0.0,0.0,0.0,0.0,0.0,0.0,0.0,-0.2793,-0.2849,0.0,0.0,0.0,-0.2867,-0.2836,0.0,0.0,0.0,0.0,0.0,0.0,0.0,0.0,0.0,0.0,0.0,0.0,0.0,0.0,0.0,0.0,0.0,0.0,0.0,0.0,0.0,0.0,0.0,0.0,0.0,0.0,0.0,0.0,0.0,0.0,0.0,0.0,0.0,0.0,0.0,0.0,0.0,0.0,0.0,0.0,0.0,0.0,0.0,0.0,0.0,0.0,0.0,0.0,0.0,0.0,0.0,0.0,0.0,0.0,0.0,0.0,0.0,0.0134,-0.0206,-0.039,-0.0425,-0.0452,-0.0309,-0.0078,-0.0051,0.0,0.0,0.0,0.0,0.0,0.0,0.0,0.0,0.0,0.0,0.0,0.0,0.0,0.0,0.0,0.0,0.0,0.0,0.0,0.0,0.0,0.0,0.0,0.0,0.0,0.0,0.0,-0.0341,0.0,0.0,0.0,0.0,0.0,0.0,0.0,0.0,0.0,0.0,0.0,0.0,0.0,0.0,-0.3179,-0.306,-0.3159,-0.3242,0.0,0.0,-0.3088,-0.3029,-0.3172,-0.3147,0.0,0.0,0.0,0.0,0.0,0.0,0.0,0.0,0.0,0.0,0.0,0.0,0.0,0.0,0.0,0.0,0.0,0.0,0.0,0.0,0.0,0.0,0.0,0.0,0.0,0.0,0.0,0.0,0.0,0.0,0.0,0.0,0.0,0.0,0.0,0.0,0.0,0.0,0.0,0.0,0.0,0.0,0.0,0.0,0.0,0.0,0.0,0.0,0.0,0.0,0.0,0.0,0.0,0.0,0.0409,0.0469,0.0318,0.0246,0.0312,0.0279,0.0247,0.0255,0.0338,0.0404,0.0,0.0,0.0,0.0,0.0,0.0,0.0,0.0,0.0,0.0,0.0,0.0,0.0,0.0,0.0,0.0,0.0,0.0,0.0,0.0,0.0,0.0,0.0,0.0,0.0,0.0,0.0,0.0,0.0,0.0,0.0,0.0,0.0,0.0,0.0,0.0,0.0,0.0,0.0,0.0,0.0,-0.306,-0.3167,-0.3298,-0.345,0.0,-0.3499,-0.3432,-0.3605,-0.385,-0.3788,-0.3092,0.0,0.0,0.0,0.0,0.0,0.0,0.0,0.0,0.0,0.0,0.0,0.0,0.0,0.0,0.0,0.0,0.0,0.0,0.0,0.0,0.0,0.0,0.0,0.0,0.0,0.0,0.0,0.0,0.0,0.0,0.0,0.0,0.0,0.0,0.0,0.0,0.0,0.0,0.0,0.0,0.0,0.0,0.0,0.0,0.0,0.0,0.0,0.0,0.0,0.0,0.0,0.0,0.0,0.0435,0.0486,0.0374,0.0304,0.0343,0.031,0.0355,0.047,0.0514,0.0597,0.0,0.0,0.0,0.0,0.0,0.0,0.0,0.0,0.0,0.0,0.0,0.0,0.0,0.0,0.0,0.0,0.0,0.0,0.0,0.0,0.0,0.0,0.0,0.0,0.0,0.0,0.0,0.0,-0.1122,-0.1249,-0.1119,0.0,0.0,0.0,0.0,0.0,0.0,0.0,0.0,0.0,0.0,-0.3436,-0.3675,-0.3751,0.0,0.0,-0.3813,-0.3758,-0.3711,-0.3809,-0.3748,-0.3274,-0.3041,0.0,0.0,0.0,0.0,0.0,0.0,0.0,0.0,0.0,0.0,0.0,0.0,0.0,0.0,0.0,0.0,0.0,0.0,0.0,0.0,0.0,0.0,0.0,0.0,0.0,0.0,0.0,0.0,0.0,0.0,0.0,0.0,0.0,0.0,0.0,0.0,0.0,0.0,0.0,0.0,0.0,0.0,0.0,0.0,0.0,0.0,0.0,0.0,0.0,0.0,0.0,0.0,0.0555,0.0654,0.0602,0.0571,0.0598,0.0571,0.0642,0.0766,0.0738,0.0793,0.0,0.0,0.0,0.0,0.0,0.0,0.0,0.0,0.0,0.0,0.0,0.0,0.0,0.0,0.0,0.0,0.0,0.0,0.0,0.0,0.0,0.0,0.0,0.0,0.0,0.0,0.0,0.0,-0.1257,-0.1257,-0.1124,0.0,0.0,0.0,0.0,0.0,0.0,0.0,0.0,0.0,0.0,-0.366,-0.389,-0.3915,-0.3915,-0.3915,-0.389,-0.3829,-0.3714,-0.375,-0.3664,-0.3326,0.0,0.0,0.0,0.0,0.0,0.0,0.0,0.0,0.0,0.0,0.0,0.0,0.0,0.0,0.0,0.0,0.0,0.0,0.0,0.0,0.0,0.0,0.0,0.0,0.0,0.0,0.0,0.2106,0.0,0.0,0.1828,0.0,0.0,0.0,0.0,0.0,0.0,0.0,0.0,0.0,0.0,0.0,0.0,0.0,0.0,0.0,0.0,0.0,0.0,0.0,0.0,0.0,0.0,0.0852,0.0972,0.1093,0.12,0.1256,0.1202,0.117,0.1164,0.105,0.0958,0.0909,0.0,0.0,0.0,0.0,0.0,0.0,0.0,0.0,0.0,0.0,0.0,0.0,0.0,0.0,0.0,0.0,0.0,0.0,0.0,0.0,0.0,0.0,0.0,0.0,0.0,0.0,-0.1298,-0.1168,-0.1109,0.0,0.0,0.0,0.0,0.0,0.0,0.0,0.0,0.0,-0.2771,-0.3199,-0.3541,-0.3705,-0.3729,-0.3718,-0.3718,-0.36,-0.3561,-0.3681,-0.369,-0.3577,0.0,0.0,0.0,0.0,0.0,0.0,0.0,0.0,0.0,0.0,0.0,0.0,0.0,0.0,0.0,0.0,0.0,0.0,0.0,0.0,0.0,0.0,0.0,0.0,0.0,0.0,0.0,0.2553,0.2438,0.0,0.0,0.0,0.0,0.0,0.0,0.0,0.0,0.0,0.0,0.0,0.2436,0.2436,0.0,0.0,0.0,0.0,0.0,0.0,0.0,0.0,0.0,0.0,0.0,0.0,0.0864,0.0985,0.1141,0.1214,0.1235,0.1215,0.1184,0.1125,0.11,0.0995,0.0838,0.0,0.0,0.0,0.0,0.0,0.0,0.0,0.0,0.0,0.0,0.0,0.0,0.0,0.0,0.0,0.0,0.0,0.0,0.0,0.0,0.0,0.0,0.0,0.0,0.0,-0.1234,0.0,0.0,0.0,0.0,0.0,0.0,0.0,0.0,0.0,0.0,0.0,-0.2566,-0.33,-0.3343,-0.3389,-0.3676,-0.3682,-0.3742,0.0,0.0,0.0,0.0,0.0,0.0,0.0,0.0,0.0,0.0,0.0,0.0,0.0,0.0,-0.3456,-0.2848,-0.28,-0.2927,-0.3096,0.0,0.0,0.0,0.0,0.0,0.0,0.0,0.0,0.0,0.0,0.0,0.0,0.0,0.0,0.3555,0.338,0.3317,0.0,0.0,0.0,0.0,0.0,0.0,0.0,0.0,0.2683,0.2838,0.2951,0.2864,0.282,0.0,0.2438,0.2044,0.0,0.0,0.0,0.0,0.0,0.0,0.0,0.0,0.0955,0.1,0.1103,0.1165,0.1183,0.1184,0.1133,0.1094,0.1072,0.1005,0.0857,0.076,0.0634,0.0,0.0,0.0,0.0,0.0,0.0,0.0,0.0,0.0,0.0,0.0,0.0,0.0,0.0,0.0,0.0,0.0,0.0,0.0,0.0,0.0,0.0,0.0,-0.1297,0.0,0.0,0.0,0.0,0.0,0.0,0.0,0.0,0.0,-0.2614,-0.2611,-0.2832,-0.353,-0.3488,-0.3438,-0.3608,0.0,0.0,0.0,0.0,0.0,0.0,0.0,-0.3738,-0.3743,-0.3743,-0.384,-0.4276,-0.4371,-0.4378,-0.4395,0.0,0.0,-0.3517,-0.3518,-0.3667,-0.3845,-0.3953,-0.408,-0.4248,-0.4326,-0.436,0.0,0.0,0.0,0.0,0.0,0.0,0.0,0.0,0.5397,0.5244,0.0,0.4675,0.0,0.0,0.0,0.0,0.2939,0.3423,0.0,0.0,0.3555,0.3717,0.3581,0.3414,0.3326,0.3289,0.2841,0.2513,0.2309,0.1878,0.0,0.0,0.0,0.0,0.0,0.0,0.1074,0.1024,0.1089,0.1145,0.1182,0.1129,0.1097,0.1093,0.1038,0.1005,0.0995,0.0806,0.0702,0.0694,0.0448,0.0,0.0,0.0,0.0,0.0,0.0,0.0,0.0,0.0,0.0,0.0,0.0,0.0,0.0,0.0,0.0,0.0,0.0,0.0,0.0,-0.146,0.0,0.0,0.0,0.0,0.0,0.0,0.0,0.0,0.0,0.0,-0.2482,-0.2719,-0.3058,-0.348,0.0,0.0,0.0,0.0,-0.4314,-0.4269,-0.4167,-0.4167,-0.4447,-0.4231,-0.4057,-0.4066,0.0,0.0,-0.4608,-0.4459,-0.4381,-0.4433,-0.4491,-0.4488,-0.4333,-0.4342,-0.4392,-0.4392,-0.441,-0.4426,-0.4414,-0.444,-0.4377,0.7168,0.0,0.0,0.0,0.0,0.5941,0.5983,0.6154,0.6039,0.5909,0.5715,0.5423,0.0,0.0,0.0,0.0,0.0,0.0,0.4287,0.421,0.3847,0.3754,0.389,0.3822,0.3805,0.3768,0.3371,0.3132,0.2996,0.2584,0.2136,0.1636,0.0,0.0,0.0,0.0,0.1232,0.1351,0.1284,0.1231,0.1186,0.1187,0.1156,0.1096,0.1077,0.103,0.1002,0.0895,0.0793,0.07,0.0574,0.0,0.0,0.0,0.0,0.0,0.0,0.0,0.0,0.0,0.0,0.0,0.0,0.0,0.0,0.0,0.0,0.0,0.0,0.0,-0.1383,-0.1656,-0.1765,0.0,0.0,0.0,0.0,0.0,0.0,0.0,0.0,0.0,-0.3139,-0.3147,-0.3346,0.0,0.0,-0.3862,-0.4284,-0.4656,-0.4968,-0.5299,-0.5392,0.0,-0.5712,-0.5218,-0.4847,-0.4986,-0.495,-0.4935,-0.4956,-0.5005,-0.5001,-0.5043,-0.4997,-0.4925,-0.4989,-0.4837,-0.4687,-0.4679,-0.4798,-0.4894,-0.4906,-0.4943,-0.501,0.8993,0.7712,0.7203,0.7003,0.7024,0.7045,0.709,0.7182,0.7171,0.7038,0.6858,0.6575,0.6317,0.6095,0.5854,0.0,0.0,0.0,0.5331,0.5358,0.48,0.4524,0.4518,0.4463,0.431,0.4068,0.3667,0.3459,0.341,0.2989,0.2555,0.216,0.0,0.0,0.1742,0.1621,0.1604,0.1699,0.1623,0.153,0.1484,0.1319,0.1201,0.1096,0.1094,0.1092,0.1039,0.094,0.0849,0.0779,0.0665,0.0524,0.0,0.0,0.0,0.0,0.0,0.0,0.0,0.0,0.0,0.0,0.0,-0.0347,-0.0399,0.0,0.0,0.0,-0.1087,-0.1384,-0.1565,-0.1779,0.0,0.0,0.0,0.0,0.0,0.0,0.0,-0.2627,-0.2863,-0.3139,-0.3461,-0.3602,-0.3844,-0.435,-0.4326,-0.4451,-0.4978,0.0,-0.5558,-0.5864,-0.5771,-0.5717,-0.5924,-0.5485,-0.5178,-0.5343,-0.5263,-0.5182,-0.5194,-0.526,-0.5297,-0.5289,-0.524,-0.5195,-0.5277,-0.5143,-0.4997,-0.4997,-0.5086,-0.5159,-0.5163,-0.5248,-0.5301,1.0595,1.03,0.8799,0.8056,0.7942,0.8299,0.8369,0.8276,0.8547,0.8506,0.8198,0.7922,0.7514,0.706,0.684,0.0,0.6461,0.6497,0.6499,0.6483,0.6174,0.5804,0.5378,0.5267,0.4905,0.4362,0.3922,0.369,0.3664,0.3203,0.2873,0.2715,0.247,0.2241,0.2039,0.2078,0.2076,0.201,0.2013,0.1986,0.19,0.1537,0.1267,0.1128,0.1111,0.1108,0.11,0.0971,0.0878,0.0883,0.0716,0.0581,0.0512,0.0,0.0,0.0,0.0,0.0,0.0,0.0,0.0,0.0,0.0,0.0,0.0,0.0,0.0,0.0,-0.1314,0.0,-0.1748,-0.1871,0.0,0.0,0.0,-0.2105,-0.2412,-0.2623,-0.2816,-0.2926,0.0,0.0,-0.3547,-0.4015,-0.447,-0.4703,-0.4954,-0.5243,-0.5629,-0.5804,-0.5971,-0.6142,-0.5666,-0.5396,-0.5746,-0.5484,-0.5274,-0.5298,-0.5301,-0.5289,-0.5289,-0.5293,-0.5301,-0.5301,-0.5289,-0.5308,-0.5297,-0.5269,-0.5281,-0.5277,-0.5289,-0.5293,-0.5289,-0.5293,-0.5301,1.1187,1.0901,1.0493,1.0056,0.9603,0.9701,0.9729,0.9687,0.9499,0.9341,0.9144,0.8634,0.8129,0.7699,0.7899,0.7935,0.7893,0.7538,0.7382,0.7333,0.6748,0.6345,0.614,0.6093,0.5967,0.569,0.5043,0.4619,0.4418,0.3758,0.323,0.2859,0.2777,0.2576,0.2228,0.21,0.2092,0.2245,0.2065,0.1972,0.19,0.1754,0.1543,0.1247,0.1247,0.1186,0.104,0.0936,0.0887,0.0826,0.0732,0.0649,0.0582,0.052,0.0,0.0,0.0,0.0,0.0,0.0,0.0,0.0,0.0,-0.0483,-0.0403,0.0,-0.0884,0.0,-0.1534,-0.1975,-0.2153,-0.2375,0.0,0.0,-0.2631,-0.2699,-0.2773,-0.3078,-0.331,-0.335,-0.3527,-0.3713,-0.3874,-0.4003,-0.4331,-0.4986,-0.5152,-0.547,-0.6232,-0.6228,-0.6221,-0.642,-0.6488,-0.6639,-0.6597,-0.6287,-0.5774,-0.5375,-0.5301,-0.5301,-0.5301,-0.5301,-0.5301,-0.5293,-0.5207,-0.521,-0.5273,-0.522,-0.5187,-0.5265,-0.5301,-0.5301,-0.5301,-0.5301,-0.5301,1.1481,1.132,1.1327,1.1134,1.0803,1.0516,1.0365,1.0265,1.0094,0.9967,0.9855,0.9279,0.8777,0.8412,0.8516,0.859,0.8558,0.8246,0.8096,0.807,0.761,0.723,0.6902,0.6897,0.6686,0.6276,0.5808,0.5433,0.507,0.436,0.379,0.3428,0.3104,0.2814,0.2573,0.2338,0.2279,0.2374,0.2298,0.2174,0.2118,0.1982,0.1791,0.1447,0.1378,0.1246,0.1052,0.0985,0.0892,0.0793,0.0727,0.0671,0.0612,0.0551,0.0518,0.0,0.0,0.0,0.0,0.0,0.0,0.0,0.0,0.0,0.0,0.0,-0.1197,-0.1461,-0.1952,-0.2321,-0.2423,-0.2657,-0.2837,-0.2908,-0.3058,-0.3192,-0.3264,-0.3549,-0.3724,-0.3724,-0.3874,-0.4016,-0.4118,-0.4316,-0.467,-0.5339,-0.5371,-0.563,-0.6386,-0.6376,-0.6262,-0.6393,-0.6357,-0.63,-0.63,-0.6028,-0.57,-0.538,-0.5301,-0.5301,-0.5301,-0.5301,-0.5301,-0.5293,-0.5244,-0.5207,-0.5273,-0.5256,-0.5216,-0.5292,-0.5301,-0.5301,-0.5301,-0.5301,-0.5301,1.1591,1.1591,1.1591,1.1591,1.1578,1.0982,1.0661,1.0574,1.0502,1.0466,1.0344,0.9757,0.935,0.9037,0.8877,0.8778,0.8778,0.8659,0.8626,0.8626,0.8501,0.8176,0.7652,0.7652,0.7251,0.6541,0.6314,0.5984,0.5524,0.4793,0.4279,0.3987,0.3347,0.2972,0.287,0.2634,0.252,0.2501,0.2517,0.2469,0.2403,0.222,0.1949,0.1625,0.1475,0.1318,0.1122,0.1055,0.0963,0.0816,0.0758,0.0696,0.0613,0.0614,0.0583,0.0,0.0522,0.0,0.0,0.0,0.0,0.0,0.0,0.0,0.0,-0.1017,-0.1505,-0.2078,-0.2448,-0.2671,-0.2671,-0.2856,-0.3082,-0.3244,-0.3444,-0.3614,-0.3722,-0.3915,-0.4028,-0.4028,-0.4204,-0.4298,-0.4312,-0.4683,-0.511,-0.5432,-0.5467,-0.5645,-0.6242,-0.6209,-0.605,-0.61,-0.565,-0.5462,-0.5434,-0.5356,-0.5325,-0.5329,-0.5301,-0.5301,-0.5301,-0.5301,-0.5301,-0.5301,-0.5293,-0.5293,-0.5301,-0.5297,-0.5297,-0.5301,-0.5301,-0.5301,-0.5301,-0.5301,-0.5301,1.1591,1.1591,1.1591,1.1591,1.1584,1.1467,1.1408,1.1363,1.1099,1.0755,1.0344,0.9764,0.946,0.9364,0.8965,0.8778,0.8778,0.8778,0.8752,0.8752,0.8752,0.8613,0.8415,0.8382,0.7957,0.7149,0.6614,0.5955,0.5187,0.4467,0.3883,0.353,0.3275,0.3026,0.2742,0.0,0.0,0.0,0.2601,0.2592,0.2472,0.2233,0.1958,0.169,0.1564,0.0,0.1199,0.1154,0.1062,0.0895,0.0867,0.0,0.0,0.0,0.0,0.0,0.0,0.0,0.0,0.0,0.0,0.0,-0.0766,-0.0824,-0.0783,-0.1282,-0.178,-0.2228,-0.2717,-0.3027,-0.3067,-0.3364,-0.3561,-0.3605,-0.3785,-0.3911,-0.3947,-0.4118,-0.4227,-0.4249,-0.4278,-0.4298,-0.431,-0.4465,-0.4709,-0.498,-0.5111,-0.5249,-0.5537,-0.5542,-0.5489,-0.5462,-0.538,-0.5301,-0.5301,-0.5301,-0.5301,-0.5301,-0.5301,-0.5301,-0.5301,-0.5301,-0.5301,-0.5301,-0.5301,-0.5301,-0.5301,-0.5301,-0.5301,-0.5301,-0.5301,-0.5301,-0.5301,-0.5301,-0.5301,1.1591,1.1591,1.1591,1.1591,0.0,1.1591,1.1591,1.1577,1.1415,1.1136,1.0704,1.035,0.9967,0.9591,0.9275,0.9018,0.8804,0.8778,0.8778,0.8778,0.8778,0.8752,0.8692,0.8718,0.8415,0.7931,0.7251,0.6596,0.5965,0.4939,0.4265,0.393,0.3512,0.321,0.3039,0.2909,0.2756,0.2613,0.2653,0.2683,0.2675,0.2506,0.2275,0.2,0.1857,0.0,0.0,0.0,0.0,0.0,0.0,0.0,0.0,0.0,0.0,0.0791,0.0754,0.058,0.0238,0.0214,-0.0077,-0.074,-0.0944,-0.1115,-0.1225,-0.1707,-0.2157,-0.2556,-0.3037,-0.3344,-0.345,-0.3677,-0.3858,-0.3866,-0.4016,-0.4142,-0.415,-0.4241,-0.4298,-0.4298,-0.4298,-0.4322,-0.4375,-0.4437,-0.4634,-0.4893,-0.5045,-0.5149,-0.5288,-0.5301,-0.5301,-0.5301,-0.5301,-0.5301,-0.5301,-0.5301,-0.5301,-0.5301,-0.5301,-0.5301,-0.5301,-0.5301,-0.5301,-0.5301,-0.5301,-0.5301,-0.5301,-0.5301,-0.5301,-0.5301,-0.5301,-0.5301,-0.5301,-0.5301,-0.5301,1.1591,1.1591,1.1591,1.1591,1.1591,1.1591,1.1591,1.1591,1.1591,0.0,0.0,1.0986,1.0493,0.982,0.9598,0.9268,0.8837,0.8811,0.8778,0.8778,0.8778,0.8778,0.8778,0.8778,0.8672,0.8408,0.7818,0.7236,0.6623,0.5519,0.4788,0.438,0.3778,0.3446,0.3376,0.3145,0.292,0.2781,0.2717,0.2753,0.2852,0.2715,0.2531,0.2299,0.2164,0.1967,0.1692,0.1671,0.159,0.1431,0.1288,0.1218,0.119,0.1021,0.0872,0.0853,0.0855,0.0643,0.0188,0.0145,-0.016,-0.0839,-0.1078,-0.1351,-0.1683,-0.2072,-0.2475,-0.2841,-0.3297,-0.362,-0.3757,-0.3931,-0.4061,-0.4044,-0.4187,-0.4294,-0.4294,-0.4298,-0.4298,-0.4298,-0.4331,-0.4373,-0.4496,-0.4585,-0.4719,-0.5007,-0.5139,-0.5173,-0.5288,-0.5301,-0.5301,-0.5301,-0.5301,-0.5301,-0.5301,-0.5301,-0.5301,-0.5301,-0.5301,-0.5301,-0.5305,-0.5325,-0.5333,-0.5301,-0.5321,-0.5333,-0.5309,-0.5301,-0.5301,-0.5301,-0.5301,-0.5301,-0.5301,-0.5301,-0.5301,1.1591,1.1591,1.1591,1.1591,1.1591,1.1591,1.1591,1.1591,1.1591,1.1562,1.1511,1.1081,1.0674,1.0258,0.9743,0.9329,0.8962,0.8857,0.8778,0.8778,0.8778,0.8778,0.8778,0.8778,0.848,0.7857,0.7717,0.6967,0.5784,0.5401,0.4844,0.4129,0.386,0.3628,0.3382,0.3123,0.2981,0.2961,0.2774,0.2715,0.2707,0.2495,0.2331,0.2293,0.2184,0.2053,0.1952,0.1946,0.1824,0.159,0.1387,0.126,0.1204,0.1013,0.0817,0.0649,0.0638,0.0451,-0.0016,-0.0066,-0.0301,-0.0844,-0.1093,-0.1327,-0.1679,-0.2111,-0.251,-0.2816,-0.3462,-0.3927,-0.3967,-0.413,-0.4249,-0.4253,-0.4278,-0.4298,-0.4298,-0.4298,-0.4298,-0.4302,-0.4391,-0.4484,-0.4549,-0.4804,-0.4995,-0.5088,-0.5206,-0.5269,-0.5289,-0.5301,-0.5301,-0.5301,-0.5301,-0.5301,-0.5301,-0.5301,-0.5301,-0.5301,-0.5301,-0.5301,-0.5301,-0.541,-0.5474,-0.5329,-0.5454,-0.5486,-0.5385,-0.5301,-0.5333,-0.5341,-0.5337,-0.5317,-0.5321,-0.5313,-0.5301,1.1591,1.1591,1.1591,1.1591,1.1591,1.1591,1.1591,1.1591,1.1591,1.1591,1.1577,1.1376,1.0943,1.0401,1.0102,0.9639,0.8989,0.8936,0.8883,0.8811,0.8778,0.8778,0.8778,0.8778,0.8619,0.8295,0.7883,0.7343,0.6693,0.6101,0.5387,0.4599,0.3999,0.3597,0.3401,0.3214,0.3078,0.2987,0.2873,0.2805,0.2805,0.2677,0.259,0.2525,0.2465,0.2381,0.2279,0.2276,0.2214,0.2095,0.1892,0.1722,0.1584,0.1381,0.119,0.099,0.0779,0.0483,0.0147,-0.0293,-0.063,-0.0892,-0.0989,-0.1241,-0.1676,-0.196,-0.2375,-0.2889,-0.3436,-0.3844,-0.4125,-0.4249,-0.4298,-0.4298,-0.4298,-0.4298,-0.4298,-0.4298,-0.4298,-0.431,-0.4412,-0.4534,-0.4654,-0.4943,-0.5125,-0.5183,-0.5261,-0.5301,-0.5301,-0.5301,-0.5301,-0.5301,-0.5301,-0.5301,-0.5301,-0.5301,-0.5274,-0.5187,-0.5242,-0.527,-0.5223,-0.541,-0.5563,-0.5498,-0.5607,-0.5718,-0.5644,-0.5644,-0.5644,-0.5607,-0.5523,-0.5478,-0.5462,-0.5397,-0.5301,1.1622,1.1591,1.1591,1.1591,1.1591,1.1591,1.1591,1.1591,1.1591,1.1591,1.1591,1.1591,1.1171,1.048,1.0422,0.991,0.9116,0.9008,0.8936,0.8811,0.8778,0.8778,0.8778,0.8778,0.8778,0.8752,0.8215,0.7857,0.7614,0.6891,0.5988,0.5086,0.4237,0.3724,0.3442,0.3306,0.3214,0.3145,0.2993,0.2932,0.2909,0.2909,0.2865,0.2756,0.2748,0.269,0.2552,0.2542,0.2531,0.2484,0.2273,0.206,0.1902,0.1665,0.1431,0.1218,0.0826,0.0452,0.0098,-0.0496,-0.0859,-0.0858,-0.0847,-0.107,-0.1501,-0.1694,-0.2131,-0.2893,-0.3339,-0.3751,-0.4087,-0.425,-0.4298,-0.4298,-0.4298,-0.4298,-0.4298,-0.4308,-0.4359,-0.4353,-0.4505,-0.4702,-0.4836,-0.5027,-0.5167,-0.5257,-0.5301,-0.5301,-0.5301,-0.5301,-0.5305,-0.5314,-0.5298,-0.5325,-0.5341,-0.5361,-0.5354,-0.5282,-0.5398,-0.5422,-0.5409,-0.557,-0.5693,-0.5713,-0.5823,-0.5896,-0.59,-0.5876,-0.5864,-0.5843,-0.575,-0.5661,-0.56,-0.5482,-0.5345,1.1709,1.1622,1.1591,1.1591,1.1591,1.1591,1.1591,1.1591,1.1591,1.1591,1.1577,1.1591,1.1224,1.0638,1.0444,0.9952,0.9206,0.9061,0.8929,0.8811,0.8778,0.8778,0.8778,0.8778,0.8778,0.8778,0.8699,0.8321,0.7771,0.7458,0.6535,0.5096,0.4704,0.4248,0.3662,0.3442,0.3461,0.3631,0.3211,0.297,0.2909,0.2909,0.2904,0.2896,0.2893,0.2816,0.2693,0.2687,0.2618,0.2495,0.2141,0.1926,0.1867,0.1555,0.122,0.0965,0.0571,0.0098,-0.0454,-0.0634,-0.0732,-0.0713,-0.0737,-0.0863,-0.1133,-0.1328,-0.1814,-0.2595,-0.3303,-0.3679,-0.3785,-0.4074,-0.4298,-0.4298,-0.4298,-0.4298,-0.4326,-0.4418,-0.4477,-0.4477,-0.48,-0.5065,-0.5048,-0.5163,-0.5292,-0.5289,-0.5301,-0.5313,-0.5329,-0.5329,-0.533,-0.5356,-0.5333,-0.5394,-0.549,-0.5559,-0.5554,-0.5715,-0.5827,-0.5735,-0.5717,-0.5856,-0.6082,-0.5805,-0.6002,-0.6102,-0.5977,-0.5892,-0.5917,-0.5957,-0.5904,-0.5815,-0.564,-0.5559,-0.5494,1.1654,1.1591,1.1591,1.1591,1.1591,1.1591,1.1591,1.1591,1.1591,1.1489,1.1313,1.1305,1.1048,1.0587,1.0333,0.9883,0.9323,0.9185,0.9035,0.891,0.8831,0.8778,0.8778,0.8778,0.8778,0.8778,0.8778,0.8639,0.829,0.7701,0.6942,0.6052,0.5181,0.4545,0.4248,0.3969,0.3788,0.37,0.3741,0.359,0.322,0.3001,0.2909,0.2909,0.2909,0.2868,0.2821,0.2813,0.2789,0.2724,0.242,0.2169,0.202,0.1746,0.1469,0.1191,0.068,0.0064,-0.0619,-0.0672,-0.0701,-0.0701,-0.0712,-0.0808,-0.1075,-0.1187,-0.15,-0.2127,-0.2926,-0.3476,-0.37,-0.4052,-0.4298,-0.4298,-0.4298,-0.4339,-0.4404,-0.4457,-0.4534,-0.4666,-0.4922,-0.511,-0.5104,-0.5212,-0.5289,-0.5301,-0.5305,-0.531,-0.5341,-0.5373,-0.5391,-0.5402,-0.5361,-0.5379,-0.5466,-0.5478,-0.5486,-0.5472,-0.5521,-0.5582,-0.5525,-0.5782,-0.5959,-0.5767,-0.6058,-0.6201,-0.6101,-0.6169,-0.6201,-0.6172,-0.6106,-0.6016,-0.5811,-0.5685,-0.5588,1.163,1.1591,1.1591,1.1591,1.1591,1.1591,1.1591,1.1591,1.1591,1.1452,1.1232,1.1056,1.085,1.0594,1.025,0.9848,0.9442,0.929,0.9185,0.9061,0.8962,0.891,0.891,0.8883,0.8857,0.8857,0.8837,0.8778,0.862,0.7996,0.7361,0.6808,0.5814,0.5106,0.4762,0.4517,0.4315,0.4069,0.4296,0.4228,0.3792,0.335,0.3065,0.2909,0.2909,0.2909,0.2909,0.2909,0.2909,0.2887,0.2576,0.2308,0.2109,0.1839,0.1524,0.1142,0.0672,0.009,-0.0652,-0.0697,-0.0697,-0.0697,-0.0697,-0.0786,-0.0941,-0.1098,-0.1321,-0.1679,-0.2526,-0.3214,-0.3546,-0.3895,-0.4162,-0.4276,-0.4308,-0.441,-0.4477,-0.4566,-0.4727,-0.4869,-0.5052,-0.5157,-0.5173,-0.5244,-0.5301,-0.5301,-0.5345,-0.5374,-0.5395,-0.5428,-0.5458,-0.541,-0.5406,-0.5436,-0.5467,-0.5498,-0.5379,-0.5403,-0.5525,-0.5564,-0.5344,-0.5717,-0.5873,-0.5857,-0.6131,-0.6228,-0.618,-0.6277,-0.6334,-0.6355,-0.6302,-0.618,-0.6024,-0.5873,-0.5758,1.1716,1.1591,1.1591,1.1591,1.1591,1.1591,1.1591,1.1591,1.1591,1.1577,1.1445,1.0909,1.0602,1.0543,1.0214,0.9841,0.9435,0.9387,0.9316,0.9211,0.9166,0.9166,0.9166,0.9061,0.8989,0.8962,0.8857,0.8672,0.8448,0.8355,0.785,0.6939,0.6752,0.6107,0.5213,0.5222,0.5144,0.4812,0.4835,0.4757,0.4631,0.4012,0.3439,0.2998,0.2909,0.2909,0.2909,0.2909,0.2909,0.2909,0.2422,0.2134,0.2064,0.1681,0.1142,0.0582,0.0425,0.009,-0.0539,-0.0674,-0.0697,-0.0697,-0.0697,-0.0719,-0.0764,-0.1076,-0.1321,-0.1433,-0.2201,-0.2806,-0.321,-0.3595,-0.3943,-0.4238,-0.4416,-0.4485,-0.4545,-0.482,-0.5031,-0.5088,-0.5187,-0.5276,-0.5273,-0.5293,-0.5321,-0.5349,-0.5474,-0.5538,-0.5448,-0.5515,-0.5506,-0.5454,-0.5417,-0.5445,-0.5564,-0.5533,-0.5634,-0.5646,-0.5596,-0.5792,-0.5858,-0.5877,-0.587,-0.5866,-0.5947,-0.605,-0.6148,-0.6214,-0.6247,-0.6276,-0.6309,-0.6226,-0.6069,-0.614,-0.6038,1.1716,1.1591,1.1591,1.1591,1.1591,1.1591,1.1591,1.1591,1.1591,1.1474,1.1232,1.0806,1.047,1.0258,0.9936,0.9697,0.9543,0.9361,0.929,0.9283,0.9159,0.9106,0.9192,0.9061,0.9015,0.8982,0.8883,0.8692,0.8527,0.8448,0.8192,0.7707,0.7155,0.6625,0.6242,0.6116,0.5935,0.5672,0.5751,0.5593,0.5087,0.4644,0.403,0.3287,0.3023,0.2909,0.2909,0.2909,0.2909,0.2909,0.24,0.2111,0.2064,0.1658,0.121,0.0761,0.0514,0.0202,-0.0225,-0.0539,-0.0697,-0.0697,-0.0697,-0.0697,-0.0719,-0.0876,-0.1054,-0.1395,-0.1725,-0.2257,-0.2907,-0.3507,-0.3947,-0.4103,-0.4439,-0.4735,-0.4873,-0.5007,-0.5121,-0.523,-0.5292,-0.5297,-0.5357,-0.5418,-0.5486,-0.5474,-0.5552,-0.5572,-0.5536,-0.5492,-0.5486,-0.5427,-0.5411,-0.5411,-0.5477,-0.5473,-0.5498,-0.5522,-0.5547,-0.554,-0.5587,-0.5686,-0.5679,-0.5646,-0.5723,-0.5822,-0.5951,-0.602,-0.6053,-0.6086,-0.6119,-0.6133,-0.6009,-0.6057,-0.6002,1.1709,1.1654,1.1622,1.1591,1.1591,1.1591,1.1591,1.1591,1.1591,1.1459,1.1224,1.0916,1.0565,1.0236,0.9914,0.9676,0.9595,0.9413,0.9387,0.9458,0.929,0.923,0.9283,0.9133,0.9061,0.9035,0.8883,0.8745,0.86,0.8474,0.8321,0.8143,0.7521,0.7128,0.6986,0.6887,0.669,0.642,0.6546,0.6347,0.5761,0.5428,0.4821,0.3969,0.3588,0.325,0.2937,0.2909,0.2909,0.2843,0.2486,0.2154,0.1975,0.1614,0.1254,0.0918,0.0604,0.0202,-0.018,-0.0539,-0.0697,-0.0697,-0.0697,-0.0697,-0.0697,-0.0773,-0.0984,-0.1268,-0.1612,-0.2015,-0.2505,-0.318,-0.3699,-0.3949,-0.4316,-0.4676,-0.4986,-0.5129,-0.5195,-0.5288,-0.5293,-0.5321,-0.5409,-0.551,-0.5624,-0.5685,-0.5731,-0.5767,-0.5609,-0.5602,-0.5528,-0.5437,-0.5415,-0.5415,-0.5437,-0.5427,-0.5427,-0.5451,-0.5458,-0.5428,-0.5428,-0.5491,-0.5524,-0.5495,-0.5528,-0.562,-0.5719,-0.5789,-0.5855,-0.5859,-0.5925,-0.5976,-0.5934,-0.59,-0.5872,1.1685,1.1771,1.1654,1.1591,1.1591,1.1591,1.1591,1.1591,1.1591,1.1569,1.1481,1.1217,1.0887,1.0565,1.0207,0.9921,0.9676,0.9584,0.9562,0.9588,0.9562,0.9536,0.9569,0.9283,0.9159,0.9106,0.891,0.8718,0.8633,0.8501,0.8348,0.8189,0.7996,0.7608,0.7128,0.7387,0.7265,0.694,0.7021,0.7008,0.6785,0.6368,0.5681,0.4743,0.4482,0.3922,0.2946,0.2893,0.2909,0.2865,0.262,0.2284,0.1837,0.1547,0.1277,0.094,0.0604,0.0067,-0.0516,-0.0654,-0.0703,-0.0707,-0.0702,-0.0707,-0.0735,-0.0914,-0.1071,-0.1197,-0.1578,-0.1995,-0.208,-0.2491,-0.3048,-0.3755,-0.3991,-0.4341,-0.4775,-0.5135,-0.5297,-0.5305,-0.5317,-0.5405,-0.5527,-0.5657,-0.5738,-0.588,-0.6003,-0.5959,-0.5711,-0.5715,-0.5701,-0.5491,-0.5395,-0.5395,-0.5395,-0.5392,-0.5392,-0.5395,-0.5428,-0.5395,-0.5395,-0.5458,-0.5458,-0.5428,-0.5428,-0.5524,-0.5587,-0.5657,-0.5723,-0.5793,-0.5826,-0.5826,-0.5767,-0.5745,-0.5822,1.1747,1.1778,1.1654,1.1591,1.1591,1.1591,1.1591,1.1591,1.1591,1.1591,1.1533,1.1246,1.1019,1.0843,1.036,1.0046,0.9929,0.9731,0.9614,0.9588,0.951,0.951,0.9536,0.9335,0.9106,0.8929,0.8864,0.8778,0.8718,0.8606,0.8468,0.8321,0.8195,0.7955,0.7681,0.7764,0.767,0.7556,0.7486,0.7343,0.707,0.6798,0.6066,0.4871,0.4345,0.3738,0.3031,0.2937,0.289,0.289,0.2464,0.2016,0.1614,0.1435,0.1344,0.121,0.0716,0.0336,0.0045,-0.0461,-0.0736,-0.0749,-0.0779,-0.078,-0.078,-0.086,-0.0991,-0.1118,-0.1384,-0.1625,-0.1948,-0.1837,-0.2218,-0.3039,-0.3732,-0.4131,-0.4456,-0.4957,-0.5266,-0.5317,-0.5402,-0.5523,-0.562,-0.5774,-0.5973,-0.6055,-0.6053,-0.5925,-0.585,-0.5679,-0.5557,-0.5428,-0.5395,-0.5395,-0.5395,-0.5362,-0.5329,-0.5296,-0.5292,-0.5395,-0.5395,-0.5395,-0.5395,-0.5395,-0.5395,-0.5428,-0.5458,-0.5524,-0.5591,-0.5591,-0.5594,-0.5561,-0.5561,-0.5591,-0.569,1.184,1.1903,1.1685,1.1591,1.1591,1.1591,1.1591,1.1591,1.1591,1.1591,1.1525,1.1246,1.1026,1.0836,1.0331,1.0038,0.9907,0.9702,0.9614,0.9614,0.9536,0.9491,0.9484,0.9256,0.9035,0.8831,0.8778,0.8778,0.8778,0.8659,0.8547,0.8448,0.8301,0.8141,0.8008,0.7928,0.7901,0.7871,0.776,0.7618,0.7453,0.7304,0.6665,0.5585,0.4796,0.4117,0.3529,0.3274,0.308,0.2847,0.2397,0.1986,0.1713,0.1559,0.1454,0.1357,0.0984,0.0561,0.0232,-0.0239,-0.0618,-0.0761,-0.0786,-0.0781,-0.0808,-0.0815,-0.0926,-0.106,-0.1225,-0.144,-0.1661,-0.1546,-0.1634,-0.2174,-0.2861,-0.3566,-0.4015,-0.479,-0.517,-0.5268,-0.5374,-0.5571,-0.5735,-0.5873,-0.6117,-0.6145,-0.6078,-0.5885,-0.5822,-0.5583,-0.5491,-0.5425,-0.5395,-0.5395,-0.5395,-0.5329,-0.5263,-0.5193,-0.516,-0.5292,-0.5395,-0.5395,-0.5395,-0.5395,-0.5395,-0.5395,-0.5425,-0.5425,-0.5462,-0.5395,-0.5395,-0.5428,-0.5495,-0.5491,-0.5557,1.1934,1.2058,1.1747,1.1622,1.1591,1.1591,1.1591,1.1591,1.1591,1.1591,1.1525,1.1305,1.099,1.0652,1.0338,1.0024,0.9694,0.9636,0.9658,0.9672,0.9654,0.9616,0.9439,0.9216,0.9011,0.8871,0.8805,0.8778,0.8778,0.8692,0.86,0.8573,0.8348,0.8221,0.8141,0.7981,0.7901,0.7895,0.7883,0.7871,0.7845,0.7845,0.7463,0.6622,0.5791,0.5008,0.4271,0.3727,0.3311,0.2913,0.2418,0.2133,0.2084,0.1742,0.153,0.1546,0.1259,0.072,0.0172,-0.01,-0.0359,-0.0761,-0.0804,-0.0812,-0.0823,-0.0869,-0.0881,-0.0936,-0.1126,-0.1286,-0.1314,-0.1261,-0.1287,-0.1345,-0.1928,-0.271,-0.3808,-0.4592,-0.4919,-0.5064,-0.5255,-0.5494,-0.5806,-0.5864,-0.5997,-0.6082,-0.6108,-0.5914,-0.5716,-0.555,-0.5517,-0.5455,-0.5392,-0.5193,-0.5126,-0.499,-0.4858,-0.4453,-0.4522,-0.4755,-0.516,-0.5259,-0.5395,-0.5395,-0.5326,-0.5359,-0.5395,-0.5395,-0.5395,-0.5395,-0.5395,-0.5395,-0.5425,-0.5425,-0.5458,1.2151,1.2096,1.1833,1.1685,1.1591,1.1591,1.1591,1.1591,1.1591,1.1591,1.1562,1.1503,1.1246,1.0953,1.0594,1.028,0.9994,0.9746,0.9741,0.995,0.9972,0.9838,0.9628,0.9384,0.9207,0.9072,0.8865,0.8778,0.8778,0.8752,0.8718,0.86,0.8448,0.8295,0.8195,0.8014,0.7907,0.7901,0.7901,0.7901,0.7901,0.7901,0.7566,0.6892,0.6392,0.5566,0.451,0.371,0.3204,0.293,0.252,0.2258,0.213,0.179,0.1602,0.1569,0.1317,0.0966,0.0566,0.0104,-0.0346,-0.0796,-0.0872,-0.0874,-0.0874,-0.088,-0.0885,-0.0915,-0.0979,-0.1094,-0.1206,-0.1124,-0.1039,-0.1094,-0.1549,-0.2322,-0.3218,-0.4013,-0.4455,-0.4564,-0.5071,-0.5398,-0.5526,-0.5678,-0.5759,-0.5807,-0.5752,-0.5617,-0.5315,-0.5253,-0.5087,-0.5322,-0.5292,-0.499,-0.4791,-0.4622,-0.432,-0.3685,-0.3685,-0.3885,-0.4456,-0.4957,-0.5193,-0.5395,-0.5193,-0.5156,-0.5292,-0.5392,-0.5395,-0.5226,-0.5259,-0.5226,-0.5326,-0.5392,-0.5425,1.2274,1.2182,1.1903,1.1658,1.1507,1.1564,1.1518,1.1437,1.154,1.1591,1.1562,1.1437,1.1283,1.1078,1.0726,1.0499,1.0294,1.0111,1.0141,1.0237,1.0162,0.9924,0.968,0.935,0.9106,0.9011,0.8858,0.8791,0.8778,0.8778,0.8745,0.8685,0.8553,0.8421,0.8268,0.8115,0.7981,0.7928,0.7901,0.7901,0.7901,0.7901,0.7735,0.7208,0.6691,0.564,0.4341,0.3667,0.3258,0.3024,0.2748,0.2511,0.2291,0.2012,0.1818,0.1685,0.1506,0.1198,0.0672,0.0244,-0.0247,-0.0726,-0.0897,-0.0897,-0.0896,-0.0897,-0.0897,-0.0897,-0.0897,-0.0982,-0.1068,-0.0993,-0.0915,-0.0948,-0.1303,-0.1869,-0.2556,-0.3246,-0.3646,-0.3885,-0.4229,-0.4634,-0.4699,-0.4841,-0.4872,-0.4821,-0.4686,-0.4583,-0.4483,-0.4553,-0.4589,-0.4688,-0.4622,-0.4253,-0.4018,-0.3885,-0.3551,-0.2982,-0.2948,-0.3151,-0.3618,-0.432,-0.4722,-0.4891,-0.4924,-0.499,-0.5057,-0.5057,-0.4891,-0.4824,-0.4924,-0.4924,-0.4957,-0.5057,-0.5126,1.2297,1.2274,1.1927,1.16,1.1383,1.1484,1.1408,1.1269,1.1481,1.1591,1.154,1.1291,1.1195,1.1085,1.0814,1.0631,1.0565,1.0492,1.058,1.0508,1.0308,0.9981,0.9764,0.9207,0.8992,0.8898,0.8818,0.8778,0.8778,0.8778,0.8778,0.8752,0.8659,0.8527,0.8374,0.8242,0.8088,0.7928,0.7901,0.7901,0.7901,0.7901,0.7794,0.7461,0.6367,0.5214,0.4165,0.3633,0.3452,0.327,0.3034,0.2786,0.2536,0.2298,0.2057,0.1854,0.1722,0.1364,0.0615,0.0363,0.0,-0.0701,-0.0897,-0.0897,-0.0897,-0.0897,-0.0872,-0.088,-0.0874,-0.0909,-0.0947,-0.0935,-0.0915,-0.0952,-0.1003,-0.125,-0.1725,-0.2432,-0.2932,-0.2944,-0.3076,-0.3309,-0.342,-0.3453,-0.352,-0.4018,-0.3885,-0.3885,-0.3816,-0.3785,-0.3718,-0.3618,-0.3518,-0.3318,-0.3182,-0.3115,-0.2681,-0.2213,-0.2347,-0.2514,-0.2783,-0.3351,-0.3918,-0.4187,-0.4184,-0.4386,-0.4655,-0.4556,-0.4287,-0.4187,-0.4187,-0.4187,-0.422,-0.442,-0.4556,1.2375,1.2097,1.1768,1.1594,1.1499,1.1328,1.1313,1.1474,1.1547,1.1569,1.1569,1.1503,1.1342,1.1114,1.1026,1.0872,1.0667,1.066,1.0711,1.0901,1.04,1.0186,0.9932,0.9384,0.9104,0.9038,0.8898,0.8811,0.8778,0.8778,0.8778,0.8778,0.8692,0.8553,0.8395,0.8268,0.8115,0.7955,0.7901,0.7901,0.7901,0.7875,0.7693,0.7209,0.5932,0.4743,0.3885,0.361,0.3558,0.3463,0.3232,0.2971,0.2648,0.2375,0.2109,0.1873,0.1769,0.1403,0.0617,0.0336,0.0028,-0.0729,-0.0872,-0.0897,-0.0897,-0.0901,-0.0911,-0.0897,-0.0875,-0.0913,-0.096,-0.0972,-0.0977,-0.0984,-0.1005,-0.1053,-0.1271,-0.1856,-0.2212,-0.238,-0.2767,-0.3184,-0.3218,-0.3115,-0.3149,-0.3218,-0.3184,-0.3218,-0.3117,-0.3017,-0.2917,-0.275,-0.275,-0.2616,-0.2414,-0.2347,-0.208,-0.1779,-0.1846,-0.1879,-0.2147,-0.2482,-0.3049,-0.3316,-0.3449,-0.3718,-0.412,-0.3751,-0.3418,-0.3418,-0.3418,-0.3451,-0.3518,-0.3751,-0.3984,1.2436,1.2143,1.1759,1.1533,1.1412,1.1026,1.1063,1.132,1.1364,1.1452,1.1569,1.1591,1.1489,1.1342,1.1327,1.1224,1.1114,1.1048,1.1166,1.1142,1.0593,1.0207,1.003,0.9466,0.9011,0.8991,0.8891,0.8811,0.8778,0.8791,0.8778,0.8778,0.8666,0.8553,0.8401,0.8268,0.8088,0.7955,0.7901,0.7901,0.7901,0.7901,0.7372,0.661,0.5583,0.4667,0.3841,0.3751,0.3751,0.369,0.3566,0.3199,0.2787,0.2523,0.2244,0.188,0.1797,0.1346,0.0673,0.0336,0.0028,-0.0815,-0.0881,-0.0888,-0.0895,-0.093,-0.0946,-0.096,-0.0935,-0.0942,-0.0988,-0.1005,-0.1007,-0.1015,-0.1035,-0.1052,-0.1119,-0.1382,-0.1617,-0.1706,-0.1911,-0.208,-0.2181,-0.238,-0.228,-0.2114,-0.208,-0.208,-0.2013,-0.1946,-0.2013,-0.198,-0.2048,-0.1981,-0.1746,-0.1612,-0.1545,-0.1377,-0.1411,-0.1411,-0.1511,-0.1846,-0.2248,-0.248,-0.2781,-0.3215,-0.3451,-0.3017,-0.2683,-0.2681,-0.2681,-0.2681,-0.2815,-0.3117,-0.3351,1.242,1.2235,1.1728,1.1412,1.1234,1.0857,1.085,1.1092,1.1158,1.1386,1.1547,1.1591,1.1569,1.1577,1.1562,1.1584,1.1562,1.154,1.1503,1.1304,1.0586,1.0179,0.9904,0.9302,0.8898,0.8871,0.8878,0.8884,0.8978,0.8945,0.9051,0.8938,0.8745,0.8644,0.8484,0.8281,0.8088,0.7928,0.7973,0.7997,0.8021,0.8012,0.7416,0.6229,0.5351,0.4703,0.4016,0.387,0.3887,0.3903,0.3903,0.3498,0.3038,0.273,0.2492,0.1959,0.1885,0.1346,0.0628,0.0342,0.0029,-0.0827,-0.0905,-0.0919,-0.0926,-0.0968,-0.0982,-0.0994,-0.1,-0.1006,-0.1036,-0.1024,-0.1006,-0.1011,-0.1063,-0.1107,-0.1109,-0.1109,-0.1174,-0.1175,-0.1377,-0.1511,-0.1411,-0.1444,-0.1243,-0.1109,-0.1109,-0.1109,-0.1109,-0.1143,-0.1344,-0.1444,-0.1578,-0.1612,-0.1411,-0.1344,-0.121,-0.121,-0.1176,-0.1143,-0.1176,-0.1644,-0.2047,-0.198,-0.2281,-0.2616,-0.2649,-0.2248,-0.2013,-0.1946,-0.1946,-0.198,-0.2181,-0.2515,-0.2649,1.2101,1.2074,1.1452,1.1142,1.1137,1.1034,1.1041,1.1151,1.1371,1.1533,1.1562,1.1591,1.1591,1.1577,1.1591,1.1591,1.1591,1.1584,1.1443,1.1118,1.0455,1.0036,0.9541,0.9002,0.8823,0.9091,0.9116,0.9194,0.9446,0.9539,0.9399,0.9417,0.9112,0.8869,0.8682,0.8413,0.8168,0.8027,0.808,0.8136,0.8171,0.8035,0.7557,0.6151,0.5198,0.4452,0.4078,0.3914,0.3903,0.3903,0.3903,0.3707,0.3409,0.3125,0.2755,0.2328,0.2053,0.1488,0.0617,0.0448,-0.003,-0.07,-0.0977,-0.098,-0.0982,-0.0989,-0.1007,-0.1025,-0.1044,-0.1091,-0.1094,-0.1094,-0.1099,-0.1069,-0.107,-0.1109,-0.1109,-0.1109,-0.1109,-0.1109,-0.1109,-0.1109,-0.1109,-0.1109,-0.1109,-0.1109,-0.1109,-0.1109,-0.1109,-0.1109,-0.1176,-0.1176,-0.1176,-0.1209,-0.1143,-0.1176,-0.1143,-0.1143,-0.1143,-0.1143,-0.1276,-0.1712,-0.1945,-0.1745,-0.1612,-0.1713,-0.1646,-0.1478,-0.1478,-0.1511,-0.1411,-0.1311,-0.1578,-0.1846,-0.1678,1.2249,1.2035,1.1545,1.136,1.1291,1.0982,1.1048,1.1335,1.1349,1.1342,1.1393,1.1496,1.1489,1.1423,1.154,1.1591,1.1591,1.1591,1.1241,1.0697,1.014,0.9463,0.8912,0.8383,0.8341,0.8552,0.8877,0.9321,0.9659,0.9499,0.9593,0.9604,0.9383,0.9188,0.8985,0.8783,0.8493,0.8355,0.8132,0.7999,0.7877,0.761,0.6638,0.5929,0.5059,0.4435,0.4185,0.4092,0.4126,0.4129,0.4126,0.4027,0.383,0.3558,0.3124,0.2568,0.2175,0.1566,0.0666,0.046,0.0031,-0.0835,-0.1001,-0.1011,-0.1016,-0.1026,-0.1037,-0.1052,-0.1062,-0.1109,-0.1106,-0.1109,-0.1109,-0.1109,-0.1109,-0.1109,-0.1109,-0.1109,-0.1109,-0.1109,-0.1109,-0.1109,-0.1109,-0.1109,-0.1109,-0.1109,-0.1109,-0.1109,-0.1109,-0.1109,-0.1109,-0.1109,-0.1109,-0.1109,-0.1109,-0.1109,-0.1109,-0.1109,-0.1109,-0.1109,-0.1176,-0.151,-0.1477,-0.131,-0.1176,-0.1277,-0.121,-0.1276,-0.1176,-0.1109,-0.1143,-0.1176,-0.1143,-0.1109,-0.1109,1.2296,1.1966,1.1691,1.1518,1.1343,1.1004,1.1019,1.1305,1.1188,1.1122,1.1144,1.1349,1.1379,1.1313,1.1421,1.1529,1.1397,1.1341,1.0808,1.0006,0.9555,0.8866,0.8149,0.7755,0.7785,0.8123,0.864,0.9246,0.9599,0.9665,0.9713,0.9797,0.9705,0.9479,0.9307,0.9001,0.8875,0.8575,0.8123,0.7781,0.736,0.6519,0.5747,0.5527,0.4963,0.455,0.4301,0.4268,0.427,0.4276,0.4281,0.4289,0.4264,0.3995,0.3451,0.2758,0.2323,0.1596,0.078,0.0472,0.0032,-0.0922,-0.1031,-0.1039,-0.1045,-0.1056,-0.1105,-0.1109,-0.1109,-0.1109,-0.1109,-0.1109,-0.1109,-0.1109,-0.1109,-0.1109,-0.1109,-0.1109,-0.1109,-0.1109,-0.1109,-0.1109,-0.1109,-0.1109,-0.1109,-0.1109,-0.1109,-0.1109,-0.1109,-0.1109,-0.1109,-0.1109,-0.1109,-0.1109,-0.1109,-0.1109,-0.1109,-0.1109,-0.1109,-0.1109,-0.1109,-0.1176,-0.1109,-0.1109,-0.131,-0.1377,-0.1243,-0.1109,-0.1109,-0.1109,-0.1109,-0.1109,-0.1109,-0.1109,-0.1109,1.1905,1.1675,1.1569,1.1196,1.0865,1.1239,1.1151,1.0814,1.1004,1.1107,1.1026,1.1166,1.1313,1.1481,1.154,1.124,1.0863,1.0661,1.019,0.9277,0.8871,0.8409,0.7822,0.7696,0.7598,0.7777,0.8303,0.8974,0.9371,0.991,1.0341,1.031,0.9886,0.9559,0.9412,0.8999,0.8739,0.8616,0.8213,0.7746,0.7287,0.6562,0.6086,0.5676,0.514,0.4597,0.4334,0.4303,0.4303,0.4303,0.4303,0.4303,0.4267,0.3995,0.3623,0.3166,0.2687,0.2006,0.0743,0.0456,0.0033,-0.0823,-0.1064,-0.1103,-0.1102,-0.1069,-0.1109,-0.1109,-0.1109,-0.1109,-0.1109,-0.1109,-0.1109,-0.1109,-0.1109,-0.1109,-0.1109,-0.1109,-0.1109,-0.1109,-0.1109,-0.1109,-0.1109,-0.1109,-0.1109,-0.1109,-0.1109,-0.1109,-0.1109,-0.1109,-0.1109,-0.1109,-0.1109,-0.1109,-0.1109,-0.1109,-0.1109,-0.1109,-0.1109,-0.1109,-0.1109,-0.1109,-0.1109,-0.1142,-0.1344,-0.1377,-0.1176,-0.1109,-0.1109,-0.1109,-0.1109,-0.1109,-0.1109,-0.1109,-0.1109,1.217,1.1874,1.1836,1.1571,1.1218,1.1291,1.1158,1.0931,1.0836,1.0697,1.066,1.0975,1.1283,1.1525,1.1591,1.1435,1.109,1.0611,0.9914,0.8914,0.8396,0.7756,0.7057,0.6898,0.6999,0.7197,0.7626,0.7975,0.8692,0.9649,1.0336,1.0338,1.009,0.9643,0.9205,0.8856,0.8417,0.797,0.7404,0.6841,0.6322,0.5881,0.5547,0.5322,0.4891,0.4595,0.4367,0.4303,0.4303,0.4303,0.4303,0.4303,0.4303,0.4131,0.3861,0.3257,0.3054,0.2167,0.0761,0.0534,-0.0101,-0.0773,-0.1109,-0.1108,-0.1109,-0.1109,-0.1109,-0.1109,-0.1109,-0.1109,-0.1109,-0.1109,-0.1109,-0.1109,-0.1109,-0.1109,-0.1109,-0.1109,-0.1109,-0.1109,-0.1109,-0.1109,-0.1109,-0.1109,-0.1109,-0.1109,-0.1109,-0.1109,-0.1109,-0.1109,-0.1109,-0.1109,-0.1109,-0.1109,-0.1109,-0.1109,-0.1109,-0.1109,-0.1109,-0.1109,-0.1109,-0.1109,-0.1109,-0.1109,-0.1176,-0.1176,-0.1109,-0.1109,-0.1109,-0.1109,-0.1109,-0.1109,-0.1109,-0.1109,-0.1109,1.2375,1.2096,1.2096,1.1865,1.1497,1.1283,1.1122,1.0909,1.0704,1.0411,1.0346,1.077,1.1246,1.1359,1.1315,1.1115,1.0958,1.0281,0.9384,0.8544,0.7877,0.7159,0.6655,0.6432,0.6392,0.6245,0.7251,0.759,0.8003,0.8747,0.9568,0.9779,0.9462,0.9175,0.8635,0.8281,0.7938,0.72,0.6759,0.6195,0.5587,0.5289,0.5057,0.4858,0.4658,0.4528,0.4334,0.4303,0.4303,0.4303,0.4303,0.4303,0.4303,0.4233,0.3897,0.3326,0.3025,0.2147,0.1004,0.0403,-0.0101,-0.0706,-0.1109,-0.1109,-0.1109,-0.1109,-0.1109,-0.1109,-0.1109,-0.1109,-0.1109,-0.1109,-0.1109,-0.1109,-0.1109,-0.1109,-0.1109,-0.1109,-0.1109,-0.1109,-0.1109,-0.1109,-0.1109,-0.1109,-0.1109,-0.1109,-0.1109,-0.1109,-0.1109,-0.1109,-0.1109,-0.1109,-0.1109,-0.1109,-0.1109,-0.1109,-0.1109,-0.1109,-0.1109,-0.1109,-0.1109,-0.1109,-0.1109,-0.1109,-0.1109,-0.1109,-0.1109,-0.1109,-0.1109,-0.1109,-0.1109,-0.1109,-0.1109,-0.1109,-0.1109,1.2243,1.2096,1.2096,1.1737,1.118,1.1452,1.1195,1.0696,1.0587,1.0368,1.0207,1.0762,1.1078,1.1044,1.0746,1.0368,0.9697,0.8775,0.8134,0.7489,0.6868,0.6719,0.6449,0.6388,0.6404,0.6478,0.6999,0.7326,0.7549,0.7834,0.8281,0.8361,0.8447,0.8091,0.7735,0.7447,0.7116,0.6568,0.6305,0.6013,0.5521,0.519,0.499,0.4827,0.4661,0.4531,0.4334,0.4303,0.4303,0.4303,0.4303,0.4303,0.4303,0.4303,0.393,0.3326,0.2787,0.1913,0.0873,0.0336,-0.0101,-0.0739,-0.1109,-0.1109,-0.1109,-0.1109,-0.1109,-0.1109,-0.1109,-0.1109,-0.1109,-0.1109,-0.1109,-0.1109,-0.1109,-0.1109,-0.1109,-0.1109,-0.1109,-0.1109,-0.1109,-0.1109,-0.1109,-0.1109,-0.1109,-0.1109,-0.1109,-0.1109,-0.1109,-0.1109,-0.1109,-0.1109,-0.1109,-0.1109,-0.1109,-0.1109,-0.1109,-0.1109,-0.1109,-0.1109,-0.1109,-0.1109,-0.1109,-0.1109,-0.1109,-0.1109,-0.1109,-0.1109,-0.1109,-0.1109,-0.1109,-0.1109,-0.1109,-0.1109,-0.1109,1.2212,1.2096,1.1965,1.1735,1.1379,1.1107,1.0821,1.0572,1.0163,1.006,1.0084,1.0558,1.0777,1.0659,1.0437,1.0157,0.9712,0.8666,0.7989,0.7484,0.706,0.6642,0.6486,0.642,0.642,0.6486,0.6745,0.6773,0.6704,0.6985,0.6761,0.6826,0.7344,0.7312,0.7022,0.6502,0.6112,0.5947,0.5818,0.5624,0.5491,0.519,0.499,0.4794,0.4658,0.4495,0.4334,0.4303,0.4303,0.4303,0.4303,0.4303,0.4303,0.4303,0.3899,0.3226,0.2653,0.1745,0.0671,0.0168,-0.0336,-0.084,-0.1109,-0.1076,-0.1076,-0.1109,-0.1109,-0.1109,-0.1109,-0.1109,-0.1109,-0.1109,-0.1109,-0.1109,-0.1109,-0.1109,-0.1109,-0.1109,-0.1109,-0.1109,-0.1109,-0.1109,-0.1109,-0.1109,-0.1109,-0.1109,-0.1109,-0.1109,-0.1109,-0.1109,-0.1109,-0.1109,-0.1109,-0.1109,-0.1109,-0.1109,-0.1109,-0.1109,-0.1109,-0.1109,-0.1109,-0.1109,-0.1109,-0.1109,-0.1109,-0.1109,-0.1109,-0.1109,-0.1109,-0.1109,-0.1109,-0.1109,-0.1109,-0.1109,-0.1109,1.2028,1.1988,1.1809,1.1626,1.1393,1.0953,1.0652,1.0375,0.998,0.9672,0.9764,1.0169,1.0215,0.9971,0.9851,0.9597,0.9129,0.8308,0.7849,0.7358,0.69,0.6581,0.6453,0.642,0.642,0.6387,0.6354,0.6313,0.6276,0.6079,0.598,0.6108,0.6433,0.6433,0.6207,0.5686,0.5395,0.5395,0.5395,0.5359,0.5292,0.509,0.4924,0.4728,0.4561,0.4461,0.4334,0.4303,0.4303,0.4303,0.4303,0.4303,0.4303,0.42,0.3797,0.3123,0.2383,0.1576,0.0537,-0.0168,-0.0605,-0.0942,-0.101,-0.1009,-0.1009,-0.1076,-0.1109,-0.1109,-0.1109,-0.1109,-0.1076,-0.1109,-0.1109,-0.1109,-0.1109,-0.1109,-0.1109,-0.1109,-0.1109,-0.1109,-0.1109,-0.1109,-0.1109,-0.1109,-0.1111,-0.111,-0.1109,-0.1109,-0.1109,-0.1109,-0.1109,-0.1109,-0.1109,-0.1109,-0.1109,-0.1109,-0.1109,-0.1109,-0.1109,-0.1109,-0.1109,-0.1109,-0.1109,-0.1109,-0.1109,-0.1109,-0.1109,-0.1109,-0.1109,-0.1109,-0.1109,-0.1109,-0.1109,-0.1109,-0.1109,1.1647,1.1787,1.1639,1.1393,1.1129,1.1092,1.0704,1.0243,1.0089,0.9631,0.9124,0.9731,0.9487,0.8846,0.8913,0.8762,0.8306,0.7498,0.704,0.6942,0.6712,0.6449,0.642,0.642,0.6387,0.6354,0.6284,0.6214,0.6148,0.5848,0.565,0.5587,0.5749,0.5719,0.5462,0.5428,0.5395,0.5395,0.5362,0.5259,0.509,0.4894,0.4761,0.4628,0.4464,0.4334,0.4334,0.4303,0.4303,0.4303,0.4303,0.4303,0.4303,0.4233,0.3661,0.2618,0.1978,0.104,-0.0134,-0.0572,-0.0741,-0.0775,-0.0809,-0.0809,-0.0843,-0.0942,-0.1042,-0.1009,-0.1009,-0.1043,-0.1076,-0.1076,-0.1076,-0.1076,-0.1076,-0.1109,-0.1109,-0.1109,-0.1109,-0.1109,-0.1109,-0.1109,-0.1109,-0.1109,-0.1111,-0.1111,-0.1109,-0.1109,-0.1078,-0.1109,-0.1109,-0.1109,-0.1109,-0.1109,-0.1109,-0.1109,-0.1109,-0.1109,-0.1109,-0.1109,-0.1109,-0.1109,-0.1109,-0.1109,-0.1109,-0.1109,-0.1109,-0.1109,-0.1109,-0.1109,-0.1109,-0.1109,-0.1109,-0.1109,-0.1109,1.1321,1.1435,1.1329,1.1078,1.0777,1.0777,1.0609,1.0432,1.0164,0.9619,0.9037,0.9384,0.903,0.8364,0.8062,0.801,0.7614,0.7269,0.6876,0.6745,0.6515,0.6453,0.642,0.6387,0.6354,0.6284,0.6181,0.6013,0.5778,0.5617,0.5554,0.5458,0.5425,0.5395,0.5359,0.5292,0.519,0.5193,0.5093,0.496,0.4891,0.4758,0.4625,0.4558,0.4398,0.4303,0.4303,0.4303,0.4303,0.4303,0.4303,0.4303,0.4267,0.4167,0.3491,0.245,0.1745,0.0706,-0.0202,-0.0607,-0.0506,-0.0573,-0.0607,-0.0641,-0.0776,-0.0708,-0.0775,-0.0842,-0.0808,-0.0775,-0.0673,-0.0842,-0.0876,-0.0943,-0.0976,-0.1076,-0.1109,-0.1109,-0.1109,-0.1109,-0.1109,-0.1078,-0.1079,-0.106,-0.1064,-0.1029,-0.1029,-0.1054,-0.1052,-0.1079,-0.111,-0.1109,-0.1109,-0.1109,-0.1076,-0.1017,-0.0983,-0.0982,-0.1046,-0.1109,-0.1109,-0.1076,-0.1109,-0.1109,-0.1109,-0.1109,-0.1076,-0.1043,-0.1076,-0.1109,-0.1076,-0.1076,-0.1109,-0.1109,-0.1109,1.1097,1.1197,1.1005,1.0785,1.0624,1.0704,1.0559,1.0165,0.9775,0.9105,0.8446,0.8607,0.8242,0.7609,0.7503,0.7364,0.7145,0.6944,0.6811,0.6675,0.6482,0.642,0.6387,0.6354,0.6284,0.6181,0.6013,0.5811,0.5646,0.555,0.5488,0.5425,0.5395,0.5359,0.5292,0.5156,0.512,0.509,0.4957,0.4794,0.4725,0.4658,0.4561,0.4495,0.4364,0.4303,0.4303,0.4303,0.4303,0.4303,0.4303,0.4303,0.42,0.3997,0.3355,0.2382,0.1109,0.0235,-0.0337,-0.0472,-0.0371,-0.0304,-0.0371,-0.0472,-0.0607,-0.0573,-0.0607,-0.0607,-0.054,-0.0506,-0.0506,-0.0674,-0.0709,-0.0776,-0.0878,-0.0978,-0.1014,-0.098,-0.1014,-0.1014,-0.0981,-0.1016,-0.1024,-0.1005,-0.0984,-0.0982,-0.0946,-0.0973,-0.1,-0.0993,-0.0992,-0.0927,-0.0927,-0.0861,-0.0827,-0.0827,-0.0825,-0.0887,-0.0917,-0.098,-0.1043,-0.1009,-0.1042,-0.1109,-0.1076,-0.1043,-0.0976,-0.0976,-0.0976,-0.1009,-0.1043,-0.1076,-0.1076,-0.1076,-0.1076,1.0878,1.1034,1.0704,1.0572,1.0609,1.0755,1.0314,0.9322,0.9005,0.8242,0.7247,0.7776,0.7416,0.6643,0.7026,0.7061,0.6759,0.6687,0.6698,0.6642,0.6482,0.642,0.6354,0.6284,0.6218,0.605,0.5881,0.5679,0.5583,0.5488,0.5425,0.5395,0.5359,0.5292,0.5156,0.5057,0.502,0.4921,0.4791,0.4661,0.4561,0.4558,0.4464,0.4398,0.4334,0.4303,0.4303,0.4303,0.4303,0.4303,0.4303,0.4303,0.4303,0.4267,0.3288,0.198,0.0437,-0.0135,-0.0337,-0.0304,-0.0204,-0.0136,-0.0204,-0.0271,-0.0338,-0.0406,-0.044,-0.044,-0.0407,-0.0439,-0.0472,-0.0506,-0.0574,-0.0643,-0.0746,-0.0782,-0.0819,-0.0853,-0.0887,-0.0854,-0.0821,-0.0792,-0.0841,-0.0853,-0.0827,-0.0833,-0.0799,-0.073,-0.0758,-0.0847,-0.0777,-0.0641,-0.0605,-0.0568,-0.0567,-0.0635,-0.0633,-0.0701,-0.0755,-0.0783,-0.0847,-0.0877,-0.0875,-0.0908,-0.1009,-0.0976,-0.0841,-0.0775,-0.0776,-0.0843,-0.0875,-0.0976,-0.0976,-0.101,-0.101,1.0206,1.036,1.028,1.0243,1.0195,0.9946,0.959,0.9274,0.8938,0.823,0.7327,0.7322,0.6979,0.654,0.6754,0.6661,0.6625,0.66,0.6576,0.6515,0.642,0.642,0.6354,0.6251,0.6119,0.5951,0.5716,0.555,0.5455,0.5395,0.5395,0.5395,0.5292,0.519,0.5024,0.4891,0.4794,0.47,0.4573,0.4498,0.4434,0.4398,0.4367,0.4334,0.4303,0.4306,0.4314,0.4319,0.4319,0.4317,0.4306,0.4303,0.4303,0.403,0.322,0.1612,0.0404,-0.0337,-0.0271,-0.0172,0.0,0.0,0.0,0.0,-0.0209,-0.024,-0.024,-0.0275,0.0,0.0,0.0,-0.0308,-0.0378,-0.0484,-0.0555,-0.0627,-0.0629,-0.0667,-0.0703,-0.0668,-0.0598,-0.0639,-0.065,-0.0618,-0.0625,-0.067,-0.0638,-0.0529,-0.0526,-0.0587,-0.0583,-0.0441,-0.0402,-0.0401,-0.0436,-0.0506,-0.0505,-0.0538,-0.0561,-0.0585,-0.0617,-0.0647,-0.0676,-0.0707,-0.0741,-0.0707,-0.0606,-0.0607,-0.0607,-0.0573,-0.064,-0.0741,-0.0843,-0.0876,-0.0876,0.9982,1.0075,0.995,0.9865,0.9658,0.9037,0.8739,0.8677,0.8416,0.7749,0.7015,0.6928,0.6753,0.6512,0.6507,0.6486,0.6444,0.6513,0.6515,0.6453,0.6321,0.6317,0.6284,0.6083,0.5918,0.5752,0.562,0.5488,0.5425,0.5395,0.5392,0.5256,0.5153,0.502,0.4891,0.4731,0.4629,0.4535,0.44,0.4311,0.4308,0.4311,0.4303,0.4311,0.4311,0.4327,0.4368,0.4379,0.4372,0.4414,0.4412,0.4368,0.4149,0.3621,0.272,0.1244,0.0404,-0.0102,-0.0137,-0.0069,0.0,0.0,0.0,0.0,-0.0108,-0.0107,-0.0106,0.0,0.0,0.0,0.0,-0.0105,-0.0211,-0.0284,-0.0357,-0.043,-0.0469,-0.0508,-0.0473,-0.0473,-0.0439,-0.0479,-0.0483,-0.0411,-0.0414,-0.042,-0.0384,-0.027,-0.0307,-0.0376,-0.0339,-0.0266,-0.0263,-0.026,0.0,0.0,0.0,0.0,-0.0389,-0.0418,-0.0416,-0.048,-0.0541,-0.0506,-0.0472,-0.0438,-0.0438,-0.0438,-0.0438,-0.0405,-0.0438,-0.054,-0.0607,-0.064,-0.0674,1.0053,1.0024,0.9686,0.9358,0.907,0.8259,0.7856,0.7744,0.7501,0.7013,0.6503,0.6522,0.6531,0.6458,0.6436,0.6428,0.6378,0.6392,0.635,0.6354,0.6218,0.6152,0.6053,0.5815,0.5716,0.5583,0.5488,0.5425,0.5428,0.5359,0.5256,0.5087,0.502,0.4891,0.4691,0.4629,0.4538,0.4483,0.444,0.4387,0.4363,0.4338,0.4317,0.4344,0.4357,0.4376,0.4434,0.4461,0.4441,0.4481,0.4313,0.4139,0.3654,0.2863,0.1809,0.1193,0.0378,0.0,0.0,0.0,0.0,0.0,0.0,0.0,0.0,0.0,0.0,0.0,0.0,0.0,0.0,0.0,-0.0108,-0.0145,-0.0219,-0.0258,-0.0261,-0.0299,-0.0299,-0.0262,-0.0302,-0.0304,-0.0266,-0.0229,-0.023,-0.0234,-0.0196,-0.0078,0.0,0.0,0.0,0.0,0.0,0.0,0.0,0.0,0.0,0.0,0.0,-0.0212,-0.0246,-0.0345,-0.0473,-0.0371,-0.027,-0.027,-0.027,0.0,0.0,-0.027,-0.0304,-0.0371,0.0,0.0,-0.0472,0.9731,0.9671,0.9199,0.8712,0.8201,0.7732,0.721,0.6726,0.6938,0.6901,0.6745,0.6542,0.6503,0.6542,0.6423,0.6331,0.6257,0.624,0.6145,0.609,0.5987,0.5987,0.5954,0.5716,0.5583,0.555,0.5488,0.5359,0.5359,0.5256,0.5156,0.506,0.4937,0.4682,0.4638,0.4555,0.4524,0.4515,0.4561,0.4577,0.4602,0.4531,0.4492,0.4501,0.4496,0.4418,0.4313,0.3839,0.3724,0.3598,0.2968,0.2702,0.2591,0.1824,0.1358,0.1001,0.0,0.0,0.0,0.0,0.0,0.0,0.0,0.0,0.0,0.0,0.0,0.0,0.0,0.0,0.0,0.0,0.0,0.0,0.0,0.0,0.0,0.0,0.0,0.0,0.0,0.0,0.0,0.0,0.0,-0.0079,-0.0039,0.0,0.0,0.0,0.0,0.0,0.0,0.0,0.0,0.0,0.0,0.0,0.0,0.0,0.0,0.0,0.0,0.0,-0.0067,0.0,0.0,0.0,0.0,0.0,0.0,0.0,0.0,0.0,0.0,0.9614,0.951,0.8718,0.8217,0.7839,0.7188,0.6726,0.6518,0.6595,0.6736,0.6779,0.6632,0.6554,0.6572,0.6383,0.6284,0.6181,0.6083,0.602,0.5925,0.5822,0.5785,0.5686,0.562,0.5521,0.5488,0.5355,0.5256,0.5236,0.5066,0.4937,0.4931,0.4713,0.4637,0.4645,0.4591,0.4577,0.4635,0.4695,0.4744,0.4791,0.4709,0.4334,0.4298,0.4342,0.4246,0.3552,0.3049,0.3025,0.2887,0.2499,0.2017,0.186,0.1378,0.0945,0.0582,0.0,0.0,0.0,0.0,0.0,0.0,0.0,0.0,0.0,0.0,0.0,0.0,0.0,0.0,0.0,0.0,0.0,0.0,0.0,0.0,0.0,0.0,0.0,0.0,0.0,0.0,0.0,0.0,0.0,0.0,0.0,0.0,0.0,0.0,0.0,0.0,0.0,0.0,0.0,0.0,0.0,0.0,0.0,0.0,0.0,0.0,0.0,0.0,0.0,0.0,0.0,0.0,0.0,0.0,0.0,0.0,0.0,0.0,0.0,0.9614,0.9458,0.8375,0.7901,0.7746,0.6799,0.6436,0.6536,0.6487,0.6527,0.665,0.6662,0.6544,0.6416,0.6284,0.6214,0.6083,0.5918,0.5855,0.576,0.5657,0.562,0.5554,0.5491,0.5425,0.5322,0.519,0.5149,0.5111,0.4919,0.4798,0.4717,0.4693,0.4689,0.4698,0.4717,0.4711,0.4754,0.4792,0.4841,0.4836,0.4809,0.4289,0.4072,0.3896,0.3606,0.281,0.2159,0.2226,0.2135,0.1954,0.1474,0.1159,0.0819,0.0594,0.0,0.0,0.0,0.0,0.0,0.0,0.0,0.0,0.0,0.0,0.0,0.0,0.0,0.0,0.0,0.0,0.0,0.0,0.0,0.0,0.0,0.0,0.0,0.0,0.0,0.0,0.0,0.0,0.0,0.0,0.0,0.0,0.0,0.0,0.0,0.0,0.0,0.0,0.0,0.0,0.0,0.0,0.0,0.0,0.0,0.0,0.0,0.0,0.0,0.0,0.0,0.0,0.0,0.0,0.0,0.0,0.0,0.0,0.0,0.0,0.9614,0.9517,0.8243,0.7829,0.779,0.6808,0.6393,0.6456,0.6568,0.6584,0.6474,0.6449,0.6416,0.6387,0.6251,0.6115,0.5918,0.5756,0.5591,0.5495,0.5491,0.5458,0.5425,0.5326,0.5292,0.5196,0.5079,0.506,0.4981,0.4809,0.4778,0.4828,0.4726,0.4712,0.4737,0.4732,0.4814,0.4817,0.4871,0.4958,0.4936,0.4757,0.4391,0.3859,0.3165,0.2863,0.2218,0.1094,0.1097,0.1095,0.0,0.0,0.0,0.0,0.0,0.0,0.0,0.0,0.0,0.0,0.0,0.0,0.0,0.0,0.0,0.0,0.0,0.0,0.0,0.0,0.0,0.0,0.0,0.0,0.0,0.0,0.0,0.0,0.0,0.0,0.0,0.0,0.0,0.0,0.0,0.0,0.0,0.0,0.0,0.0,0.0,0.0,0.0,0.0,0.0,0.0,0.0,0.0,0.0,0.0,0.0,0.0,0.0,0.0,0.0,0.0,0.0,0.0,0.0,0.0,0.0,0.0,0.0,0.0,0.0]}]]